GFSMA_sfc_rhum_000.txt.gz
RH
51 46 45 41 42 43 45 48 45 41 34 32 35 36 33 34 35 25 26 59 62 59 59 57 59 60 62 67 73 78 80 86 79 82 83 84 85 86 86 88 91 91 89
49 42 38 35 34 34 38 42 41 37 32 31 33 36 33 30 32 33 23 32 60 67 66 63 65 67 66 66 70 73 74 79 82 80 85 86 87 86 86 87 90 91 90
43 45 37 36 35 36 45 47 48 41 36 29 32 33 32 34 29 32 27 25 37 72 68 64 65 63 61 59 60 62 67 72 74 78 82 86 88 87 85 85 87 90 90
46 46 38 37 37 40 38 40 41 38 36 31 30 28 28 28 30 32 28 27 24 21 62 69 64 61 58 58 55 55 58 61 65 69 79 86 87 88 89 87 87 88 89
42 44 38 37 42 39 39 39 40 40 39 32 28 28 29 28 28 23 27 31 32 27 23 68 67 65 60 54 48 50 54 60 61 63 69 78 86 89 89 90 91 91 90
37 40 37 43 44 42 40 38 45 40 37 36 24 23 28 30 29 28 28 24 26 33 31 32 34 38 60 48 44 43 49 52 54 63 60 73 78 87 93 91 89 91 89
36 40 36 39 41 41 44 49 47 49 46 40 40 34 32 34 38 29 27 26 26 30 33 34 27 24 28 47 39 48 49 53 53 52 58 62 64 75 82 93 93 92 92
32 32 37 37 38 38 44 47 51 50 47 44 45 40 38 31 31 33 30 28 34 27 32 35 31 30 27 24 38 51 52 56 58 59 55 59 54 66 68 75 86 88 91
32 34 36 39 42 40 38 42 44 48 45 44 47 47 44 40 33 27 38 31 35 35 32 31 29 28 28 29 37 45 67 73 67 62 55 61 56 57 61 68 81 83 86
33 32 35 40 43 40 42 41 34 43 45 45 40 38 49 46 48 44 34 38 34 37 40 31 29 31 30 27 38 60 75 81 82 74 58 56 57 56 58 66 72 77 87
32 33 39 44 45 42 44 51 53 52 49 50 47 46 57 49 48 50 44 41 34 32 29 34 36 34 34 30 28 52 77 87 80 75 73 65 64 61 61 61 68 68 75
31 36 40 45 47 47 48 48 54 58 57 58 55 58 56 68 58 49 47 43 41 34 32 35 37 36 35 32 35 63 72 80 73 72 73 70 71 71 62 58 58 64 67
35 40 47 47 42 46 47 48 53 56 64 68 72 77 83 89 86 87 76 64 63 42 40 37 35 35 31 35 33 59 68 66 73 77 82 88 76 81 79 72 66 64 67
42 48 48 46 47 48 50 54 63 64 62 64 68 75 79 79 86 94 94 96 97 87 59 54 35 34 34 33 45 63 36 62 68 81 78 81 77 72 74 72 74 67 60
41 48 51 47 42 46 48 53 60 68 67 68 64 62 64 72 78 74 76 68 80 78 57 42 39 34 32 32 39 35 37 60 65 74 80 77 71 66 65 65 72 76 77
50 47 45 44 45 49 58 61 64 65 65 62 57 53 44 40 43 46 45 46 43 43 42 30 26 27 28 22 34 33 34 58 71 78 76 74 73 70 67 67 70 74 82
46 43 44 48 53 67 76 78 67 57 47 47 45 43 42 39 38 34 34 34 35 34 36 32 26 27 32 34 33 34 33 34 34 74 77 68 70 72 74 73 74 80 83
54 52 61 72 71 71 60 55 53 45 42 40 40 41 39 26 37 37 35 39 38 37 37 41 34 31 33 33 35 38 30 24 29 45 78 74 73 71 72 74 76 85 91
70 74 69 68 68 62 56 47 40 39 41 42 41 40 38 40 43 39 40 40 37 31 36 37 37 33 32 32 34 35 36 38 28 46 71 80 79 79 77 77 78 84 91
54 50 47 48 50 43 39 37 35 40 41 38 42 44 43 44 44 43 39 40 36 37 36 35 34 34 33 33 33 36 38 36 36 26 38 48 58 66 73 76 78 82 89
36 34 35 36 38 36 30 48 39 41 42 43 46 42 45 48 59 60 48 45 42 40 38 37 38 37 38 38 40 37 40 41 41 38 40 39 38 37 39 62 55 76 78
33 35 36 38 40 30 76 72 67 48 43 41 42 41 40 52 51 64 64 65 65 57 50 48 48 51 47 45 43 47 51 53 55 47 49 52 50 46 39 37 53 69 78
39 41 40 42 45 44 65 67 69 49 46 45 45 44 39 32 50 43 56 68 69 70 74 66 68 62 60 56 54 60 61 59 54 44 51 65 60 76 68 42 68 76 82
39 40 43 44 44 38 62 67 68 56 54 52 48 46 44 43 45 56 56 58 59 57 58 57 60 54 52 50 52 51 54 60 62 52 54 78 75 79 73 72 69 75 83
40 42 44 45 46 47 63 66 66 66 62 59 49 46 51 62 66 69 72 84 69 61 58 68 69 70 71 74 70 64 84 75 87 59 50 58 74 76 72 79 79 73 82
40 44 54 55 60 63 63 66 66 68 81 74 71 65 70 66 74 75 90 89 82 60 57 63 62 79 80 64 77 72 71 78 74 72 54 60 55 58 79 76 71 79 81

GFSMA_sfc_rhum_003.txt.gz
RH
46 40 39 34 33 31 34 37 37 36 36 33 31 33 32 32 33 28 25 60 57 56 54 52 56 57 58 61 66 72 76 79 82 87 84 85 86 84 84 84 85 84 89
45 39 36 32 31 30 31 34 36 38 34 30 31 33 34 29 28 32 24 37 60 65 61 58 61 62 62 62 65 67 70 73 78 81 89 87 87 87 86 85 84 86 86
40 43 38 36 33 34 40 37 37 36 36 32 30 30 32 35 32 32 29 24 39 71 68 61 62 59 55 54 54 54 57 64 70 76 86 87 91 88 88 87 86 86 86
39 43 37 37 36 39 36 36 34 35 35 34 36 30 28 29 31 32 30 29 24 27 62 68 61 58 56 52 48 48 51 57 60 65 72 87 93 89 90 91 89 87 87
33 38 36 39 47 40 42 41 38 41 39 37 34 32 31 29 32 24 30 34 37 27 28 70 71 67 60 53 45 42 46 49 58 62 67 74 84 90 89 90 93 90 87
36 38 37 44 43 40 41 41 50 42 44 42 33 31 36 31 31 34 30 26 30 36 32 36 44 44 68 55 48 42 43 47 50 53 62 62 73 80 90 90 90 92 91
33 36 33 36 40 39 44 48 47 50 47 45 46 45 42 41 40 32 33 30 30 31 38 36 34 28 41 60 47 41 45 46 52 53 54 60 67 70 78 83 92 91 90
33 33 36 34 38 36 46 49 52 48 46 46 50 49 52 45 37 37 34 35 40 30 31 37 39 37 30 29 42 51 44 46 51 55 57 57 67 63 68 68 72 87 92
31 31 33 36 42 41 39 47 46 49 45 44 49 50 55 52 44 36 42 39 41 37 34 33 41 34 33 30 44 45 65 64 57 58 60 58 62 60 63 63 66 79 87
28 26 29 36 44 42 47 44 34 51 50 48 44 36 46 50 61 61 44 45 40 43 46 38 36 34 32 31 44 62 67 72 73 72 59 57 58 63 59 62 66 73 77
30 28 31 37 44 40 46 51 53 50 47 49 47 50 55 53 56 67 74 56 45 42 54 61 38 33 34 34 33 50 71 84 76 70 68 60 58 58 60 61 65 70 71
30 33 31 39 45 45 45 47 47 53 62 58 57 59 66 71 72 71 72 61 59 73 68 51 50 42 39 37 39 74 70 78 67 69 66 61 64 64 68 68 64 61 63
34 39 42 45 41 42 42 49 65 69 74 80 76 70 64 72 75 79 93 94 90 72 88 79 70 57 38 42 40 53 73 66 68 76 76 74 71 77 78 75 70 65 66
40 40 42 44 43 43 54 58 55 60 62 66 66 69 68 72 78 85 94 96 92 90 84 75 56 60 60 41 63 56 51 67 68 77 75 76 66 60 65 67 70 70 66
36 40 42 42 51 51 60 62 64 68 69 70 70 67 66 69 75 63 61 71 87 91 62 57 60 53 55 46 44 41 39 68 69 69 76 68 65 58 58 56 59 64 65
42 46 51 54 58 61 62 68 64 64 66 63 57 54 52 48 44 47 49 59 62 70 69 43 38 39 36 25 39 39 39 66 71 72 69 64 63 65 67 67 67 69 67
50 59 63 65 67 70 73 73 63 60 65 65 57 52 49 45 43 38 41 41 39 38 43 37 30 32 37 38 33 37 39 40 41 71 68 68 72 71 69 69 69 70 77
58 61 67 67 71 75 72 69 66 53 50 50 50 49 49 37 45 40 36 38 37 35 36 42 36 35 39 38 40 43 30 24 32 46 74 72 72 68 69 73 75 74 78
47 47 47 52 48 49 44 41 40 45 45 44 43 44 42 41 42 41 40 40 36 30 37 37 37 34 35 34 35 37 38 41 27 50 79 79 80 76 74 73 76 78 81
35 33 32 33 34 32 30 32 33 38 37 34 37 39 39 41 42 44 42 42 38 40 37 38 37 36 35 34 35 38 41 38 37 24 36 45 60 71 71 73 78 77 78
30 28 31 32 33 31 32 48 44 46 44 42 44 36 40 45 59 58 44 47 48 47 43 41 42 41 38 38 38 38 42 43 44 41 43 43 43 43 47 72 60 77 78
29 32 33 34 36 27 73 68 64 50 45 43 42 40 38 48 52 69 70 72 63 51 50 50 48 49 47 45 43 45 48 51 54 49 50 56 49 49 45 46 63 61 62
34 36 36 35 39 40 63 65 70 52 50 48 46 44 40 33 49 40 50 64 68 73 75 61 64 59 56 51 52 56 60 60 60 50 54 66 68 73 61 42 68 74 72
36 37 39 40 44 40 68 68 67 54 53 50 47 46 48 46 46 52 56 56 53 54 56 56 60 55 56 52 53 54 59 61 62 57 58 78 75 79 72 67 68 72 77
36 37 39 46 53 54 65 70 64 62 63 61 51 51 56 56 58 64 68 74 66 61 56 68 69 70 72 72 70 68 84 89 86 59 53 66 74 79 74 78 77 70 75
36 42 50 54 62 63 71 62 66 71 80 72 68 58 66 64 75 76 80 86 87 68 62 71 69 72 93 82 77 69 68 77 77 77 54 65 60 60 80 77 73 76 79

GFSMA_sfc_rhum_006.txt.gz
RH
72 68 65 62 61 58 58 61 59 58 58 52 50 46 48 50 48 49 59 62 61 55 52 53 55 59 61 65 70 74 77 81 80 84 88 87 86 86 86 84 82 83 84
69 67 66 63 61 59 60 59 58 62 61 55 51 49 47 48 47 49 48 65 65 64 61 57 57 59 60 64 69 71 73 76 80 82 87 91 88 88 88 87 86 86 86
62 65 67 66 64 63 60 62 63 60 63 56 54 53 52 53 52 49 52 50 61 71 75 70 64 63 63 60 61 62 64 69 73 76 85 89 91 90 89 88 88 86 86
54 63 67 68 67 70 66 67 66 64 63 62 62 60 51 49 51 50 49 49 49 42 72 77 74 69 62 58 57 54 55 60 63 68 76 87 89 92 92 90 87 89 89
58 64 65 69 70 68 69 68 61 67 67 66 58 54 58 56 50 38 43 48 52 46 51 68 76 74 71 64 55 52 51 53 58 62 67 76 86 90 93 95 91 89 88
55 61 61 68 70 66 66 69 74 66 66 63 47 47 56 51 51 58 48 43 44 44 44 48 69 71 76 69 58 51 48 48 50 52 58 66 75 84 90 92 92 94 90
54 60 60 60 61 62 66 65 65 65 60 67 62 59 55 55 63 53 47 45 43 41 42 41 61 56 59 73 66 53 47 46 48 50 53 57 66 80 83 84 91 93 92
52 44 58 57 60 63 66 70 73 67 62 62 65 60 60 52 54 52 48 48 41 42 39 42 46 47 48 58 65 61 49 49 49 52 54 59 66 76 73 73 76 81 91
46 50 54 58 63 64 64 67 68 68 69 62 65 69 66 66 59 53 54 52 64 66 74 64 44 42 52 49 57 62 69 66 56 51 52 56 62 64 70 68 66 68 77
53 46 51 60 65 68 67 70 54 74 74 72 72 62 72 76 88 80 67 62 57 62 72 81 68 60 50 53 62 67 74 77 71 57 53 53 58 59 66 63 65 66 74
54 50 52 60 67 65 67 72 71 78 79 83 80 77 78 72 73 89 81 80 70 72 80 92 88 90 78 56 52 71 72 75 76 72 67 56 55 58 60 64 63 65 69
54 56 53 63 66 67 66 73 83 80 87 86 82 82 84 79 76 77 81 82 83 83 82 87 96 96 92 80 55 75 78 80 75 72 71 69 63 59 58 58 60 63 66
60 59 62 63 64 65 67 67 74 79 78 88 88 88 88 84 83 76 82 85 85 78 91 89 89 90 83 93 85 79 77 78 69 71 74 75 72 74 74 72 69 66 63
63 60 62 61 66 69 74 73 78 78 82 88 78 79 85 86 86 89 89 94 94 93 88 91 84 89 91 90 85 76 69 73 73 76 73 74 75 63 68 71 74 72 70
51 61 70 67 67 72 75 78 81 80 82 86 88 88 86 85 87 83 86 85 91 95 81 64 86 84 90 88 85 73 63 70 72 78 77 67 72 68 67 62 61 63 64
59 63 69 72 71 72 71 72 79 77 78 83 79 80 85 74 71 72 76 83 82 83 88 69 54 48 46 41 66 70 54 75 76 76 76 64 64 64 67 68 67 67 68
63 63 60 64 66 68 82 85 82 74 69 69 70 67 67 63 66 64 60 55 57 66 68 54 50 46 48 54 44 44 48 62 71 75 72 70 72 72 71 70 69 65 64
63 59 60 60 63 65 74 78 79 73 70 70 62 61 59 45 56 54 53 53 55 55 58 56 54 50 50 50 49 54 41 30 46 66 73 72 71 72 74 74 72 73 74
56 54 48 49 46 49 48 49 50 53 54 53 52 54 52 55 60 60 59 58 55 45 54 56 57 56 53 54 49 50 48 54 41 52 78 78 76 75 78 76 73 74 73
48 46 46 47 50 43 39 49 48 56 58 52 56 54 53 52 56 60 59 67 56 63 58 58 57 54 56 52 55 51 56 56 57 33 44 55 76 77 77 74 74 74 76
44 45 44 48 50 44 47 64 59 60 60 58 57 50 51 56 60 64 48 59 64 67 67 64 63 60 57 59 63 61 66 67 67 66 68 66 64 69 73 78 67 74 76
46 48 51 51 54 35 72 70 70 71 62 61 63 57 54 57 56 66 68 67 69 69 64 64 63 66 63 62 64 71 80 82 83 74 76 81 74 75 71 65 70 71 75
53 56 56 55 58 60 72 71 71 67 66 62 61 60 55 44 61 56 69 74 71 79 84 76 75 75 71 65 65 71 79 85 88 79 79 94 94 90 84 57 79 71 71
55 56 60 59 63 53 70 71 74 74 70 67 65 62 62 62 67 67 70 79 74 69 69 68 78 79 72 66 70 75 80 79 85 83 78 89 95 92 95 91 75 73 73
56 60 60 68 72 69 71 82 85 83 79 74 67 68 69 68 65 65 74 83 84 76 61 67 71 76 75 75 76 79 86 88 95 91 82 90 92 95 94 93 93 77 75
54 70 76 77 75 76 76 70 76 88 88 81 80 72 67 73 90 89 96 97 95 86 78 82 80 72 67 80 89 92 91 89 83 85 72 78 82 92 95 93 90 89 96

GFSMA_sfc_rhum_009.txt.gz
RH
72 72 73 68 66 67 66 64 62 61 65 60 57 53 48 53 54 55 62 70 64 60 50 48 53 56 60 68 75 77 78 81 80 83 84 89 88 87 87 88 86 84 83
73 74 71 72 67 69 68 66 63 65 66 66 61 56 50 50 51 54 57 67 72 67 62 52 52 55 58 61 72 74 75 78 82 82 86 91 88 87 87 88 88 86 84
62 66 72 75 75 74 72 70 70 73 71 66 69 63 59 56 55 52 53 59 66 74 69 69 64 61 61 62 66 71 73 78 78 80 86 89 92 89 87 89 89 87 86
66 71 69 72 77 77 76 74 76 75 76 76 75 71 69 62 56 58 53 55 60 51 70 73 74 72 72 65 62 61 64 67 69 74 80 89 90 92 91 90 90 89 88
64 68 68 71 74 78 80 79 78 84 85 78 65 59 65 67 66 50 57 55 58 58 55 67 74 76 78 73 60 57 55 57 62 66 70 78 85 91 93 92 91 91 90
60 61 61 62 65 69 73 70 74 71 77 72 54 54 74 73 76 75 66 54 54 52 55 53 65 68 81 76 68 58 55 52 53 57 66 70 77 83 90 93 93 94 92
52 56 61 66 70 69 72 70 77 72 67 75 80 64 72 69 67 62 65 71 63 54 53 55 56 65 65 76 73 60 54 52 51 52 55 62 71 84 87 91 92 92 93
57 51 63 67 69 70 70 70 73 79 78 78 80 78 79 66 69 61 67 64 74 76 71 65 56 59 59 61 69 70 59 53 50 51 56 65 69 72 81 79 81 84 90
58 55 61 67 72 73 72 73 78 76 84 81 81 87 96 96 84 75 60 67 74 75 84 87 83 75 63 54 61 69 74 71 62 55 55 61 64 66 73 74 72 71 72
56 56 58 65 73 74 73 80 68 84 88 91 88 70 86 84 85 80 74 63 66 65 82 92 93 88 90 91 82 79 81 78 74 64 55 53 55 60 64 71 70 68 68
59 58 62 66 71 77 75 85 88 88 91 91 91 88 85 82 81 82 82 80 71 74 84 89 94 97 89 93 94 92 87 84 76 70 61 59 57 56 58 66 66 67 67
67 61 61 68 72 77 84 85 89 88 90 86 82 83 85 91 93 90 79 78 74 80 76 84 94 97 96 95 88 95 89 88 83 76 74 71 68 62 58 58 61 63 63
68 75 75 77 80 80 83 84 87 88 91 94 93 94 94 94 92 91 79 80 89 82 92 91 94 94 85 96 93 94 93 94 88 75 76 76 74 76 79 80 73 60 60
77 75 81 80 80 80 85 86 90 87 81 88 89 93 91 85 94 94 95 90 90 82 94 86 92 93 92 96 90 89 89 93 91 80 72 76 75 63 65 63 68 75 76
60 78 81 80 80 83 77 76 80 82 90 92 93 94 89 88 90 89 90 91 98 91 81 83 85 75 82 91 89 90 94 92 92 86 81 72 76 66 62 60 62 62 65
72 72 72 74 76 78 83 89 94 91 89 89 80 86 87 90 85 92 95 97 94 89 96 78 70 65 57 44 77 83 86 86 92 87 85 73 67 65 63 64 65 63 59
64 68 71 74 75 77 80 89 92 89 90 84 83 74 66 60 68 89 87 77 72 77 94 67 64 58 55 54 50 63 71 76 78 84 76 74 73 73 73 72 70 64 59
66 67 66 58 58 58 61 66 76 76 69 68 68 69 68 50 61 63 65 62 65 62 60 70 67 63 58 56 56 52 41 30 58 73 79 74 77 80 79 78 77 75 72
56 53 52 56 57 60 59 60 65 69 70 67 69 69 63 61 63 63 69 74 75 59 69 70 73 66 63 58 53 57 48 52 39 54 78 80 75 76 77 77 77 74 74
50 50 50 53 58 57 60 62 61 70 71 66 70 69 64 62 64 68 63 66 67 76 74 74 74 71 70 61 67 71 72 70 63 42 48 64 80 81 84 82 80 78 76
51 49 50 55 58 56 56 76 72 75 75 74 73 64 60 60 59 65 63 68 75 79 77 75 78 74 74 74 73 79 83 81 76 78 76 72 70 72 75 81 82 80 81
50 52 56 60 65 52 74 70 73 80 74 72 73 64 65 63 64 64 68 81 79 80 76 81 77 80 77 77 76 81 85 89 91 81 86 85 80 78 76 72 74 80 74
56 60 66 64 68 75 76 71 72 78 80 78 76 71 64 51 67 68 71 76 77 74 86 90 95 91 84 81 78 82 88 90 92 85 88 96 97 89 85 66 74 69 69
59 68 72 77 78 64 74 80 86 90 85 82 77 69 72 75 76 71 70 75 83 81 76 72 92 88 88 83 82 74 87 94 93 90 86 93 97 96 96 91 79 76 76
71 79 81 82 83 83 78 76 84 91 89 87 75 73 71 71 71 79 88 94 93 84 69 68 72 84 88 93 87 91 97 93 92 86 92 97 96 96 96 94 92 79 78
80 83 82 85 82 88 70 66 86 96 96 90 83 74 73 78 94 93 92 97 96 84 83 88 86 78 72 73 72 84 89 95 95 97 82 86 83 95 96 97 95 93 95

GFSMA_sfc_rhum_015.txt.gz
RH
80 82 78 81 80 82 83 80 79 76 78 77 75 76 73 69 63 61 67 69 72 68 60 53 53 52 57 63 69 74 71 71 73 77 84 88 88 88 86 82 81 87 86
79 78 80 76 76 81 81 82 82 82 80 78 71 70 71 74 70 65 63 65 70 72 70 64 57 54 55 60 66 72 74 75 72 73 79 86 91 90 87 84 83 79 87
80 78 72 69 74 78 75 77 76 75 73 70 70 72 72 69 74 71 70 68 69 70 72 69 68 64 64 61 64 67 72 76 76 74 76 83 88 91 89 85 80 80 80
68 68 66 68 75 76 77 75 80 70 74 77 78 72 70 75 70 74 74 76 76 70 70 69 68 67 67 66 61 62 63 66 74 70 76 80 84 87 89 88 82 83 79
65 68 70 77 78 76 78 77 73 76 79 77 67 64 75 74 77 70 73 77 82 79 74 66 66 71 75 71 68 64 59 61 65 67 70 73 77 82 85 88 87 85 83
66 70 70 79 77 74 75 74 73 75 78 82 62 61 72 74 80 82 81 70 75 78 70 66 72 70 72 75 73 69 66 60 59 62 65 68 71 76 81 85 87 86 84
63 69 72 76 76 72 73 74 79 82 79 84 85 68 78 73 74 74 74 85 74 76 72 71 72 76 67 74 75 78 73 69 62 61 63 66 69 73 79 82 84 88 87
63 61 72 75 76 78 79 81 86 89 90 91 92 95 89 72 83 70 71 71 81 78 70 64 80 66 67 77 89 82 84 78 72 69 68 66 72 73 75 76 77 85 87
68 71 75 80 84 86 89 94 93 94 97 93 91 94 96 94 95 79 71 74 80 80 85 83 80 70 73 86 90 92 92 89 83 75 72 71 70 71 73 72 71 74 80
74 73 75 80 85 90 87 87 88 95 96 98 95 83 91 90 88 88 81 73 79 69 84 89 90 85 85 94 87 90 93 92 88 83 77 70 67 68 70 65 65 67 74
69 75 74 74 79 87 87 88 90 94 95 96 94 92 86 92 91 95 98 92 84 81 82 92 89 93 89 93 96 93 89 93 92 86 79 78 68 66 63 61 61 64 68
84 78 75 82 85 89 88 91 90 87 90 92 92 88 93 96 97 98 99 90 81 77 86 89 93 93 92 94 80 78 88 91 90 87 86 80 78 66 60 60 60 62 68
91 85 82 81 82 86 87 89 89 90 91 94 95 96 96 95 92 90 97 93 99 90 92 93 92 91 78 90 87 76 82 92 87 87 89 89 83 83 76 70 69 62 64
84 86 82 77 76 79 84 89 92 92 91 94 91 93 95 95 93 92 91 98 97 94 93 93 81 86 90 89 84 78 90 84 87 85 85 89 92 82 72 70 77 79 78
76 83 81 76 76 79 84 88 94 93 92 94 94 95 94 92 87 91 90 96 98 95 86 92 92 74 82 80 75 79 92 79 82 86 86 86 90 91 86 68 69 76 76
71 70 72 73 73 74 80 84 85 88 93 94 90 77 74 79 83 86 86 87 92 96 89 92 83 76 66 47 54 72 71 64 82 86 87 87 92 91 91 87 84 70 70
75 76 74 71 70 63 66 69 72 80 79 74 75 75 76 74 80 82 83 79 79 86 90 75 80 74 62 59 60 63 63 67 89 84 87 88 90 95 96 94 90 87 75
76 70 73 73 65 62 64 66 70 72 73 73 75 77 76 57 76 79 80 73 75 73 83 79 80 77 67 60 62 64 55 49 69 64 82 79 88 90 94 95 92 88 85
74 83 82 80 66 63 62 67 71 72 71 74 76 77 77 77 78 73 71 75 76 68 76 78 77 80 79 73 68 68 68 74 51 53 65 84 86 85 84 92 93 85 80
90 87 87 72 65 64 66 66 67 71 76 73 76 78 78 76 74 72 70 72 76 90 86 92 90 82 76 74 78 80 80 79 73 46 58 71 81 80 84 90 88 85 81
88 94 69 67 68 69 62 72 71 77 79 79 78 74 72 70 66 62 62 73 81 83 87 93 90 88 86 79 78 80 82 82 80 77 84 77 77 76 80 79 77 85 86
87 74 76 72 72 60 75 74 83 89 81 81 87 77 76 71 69 66 69 70 71 83 90 94 85 90 89 79 80 84 84 89 88 86 89 87 78 76 74 71 75 82 82
94 80 79 79 76 76 79 78 82 90 92 91 84 82 73 59 71 74 75 75 74 77 83 93 92 87 85 88 83 87 91 92 93 84 93 98 98 89 79 61 72 73 78
94 84 82 78 82 78 69 72 82 90 90 85 74 77 77 77 81 74 88 86 80 77 74 77 96 86 82 84 85 80 84 88 90 92 94 96 98 96 97 90 73 73 77
83 84 80 82 82 76 66 66 71 94 89 84 75 73 70 75 77 84 90 92 90 81 67 67 67 71 95 92 94 95 96 91 89 75 96 98 97 97 98 96 90 74 78
78 75 72 84 69 82 68 64 68 97 97 88 83 74 76 74 80 81 96 96 96 80 78 83 87 86 80 79 74 83 96 95 90 98 92 95 90 92 95 97 98 96 97

GFSMA_sfc_rhum_021.txt.gz
RH
66 59 61 53 52 49 51 51 49 47 47 44 42 42 39 42 41 34 36 69 75 72 70 70 70 70 70 71 71 70 68 67 66 66 73 78 84 88 90 89 88 87 85
66 59 54 50 51 50 50 49 48 43 42 42 40 42 40 39 38 43 34 39 73 69 66 65 64 64 65 66 71 72 70 69 68 69 74 78 83 87 90 91 89 88 87
63 58 53 53 53 52 52 48 46 44 39 37 39 37 35 39 36 45 44 46 44 60 62 61 60 59 59 59 61 64 70 72 70 68 75 79 82 84 88 91 90 88 86
59 59 60 58 58 52 48 57 45 40 40 40 41 35 37 34 41 47 48 45 42 36 47 60 59 59 58 56 56 56 59 64 72 71 72 74 80 81 84 88 89 88 86
61 62 67 62 54 50 51 47 46 48 43 41 37 35 38 31 38 40 48 48 49 44 40 48 56 54 60 56 57 58 58 58 63 70 72 73 76 79 80 82 87 87 86
58 53 54 57 51 49 50 48 51 46 49 52 38 37 40 35 45 46 44 42 44 48 44 46 42 38 55 58 60 61 62 62 61 66 69 73 75 79 78 80 83 87 84
53 55 51 52 52 51 58 60 53 55 44 54 39 38 35 46 52 44 45 41 45 43 47 46 42 39 38 52 56 67 68 67 66 67 68 70 73 74 76 79 79 82 80
52 51 54 53 55 50 60 62 61 50 50 58 53 43 37 33 45 45 43 46 48 47 45 47 51 48 46 41 49 67 73 70 71 68 68 70 72 73 74 74 77 78 79
48 53 57 56 57 55 56 62 61 60 48 50 58 53 49 43 50 37 44 42 52 48 49 48 49 49 50 49 50 54 65 75 75 70 67 67 69 71 71 73 73 76 78
53 51 55 60 62 58 60 55 50 54 51 46 45 46 54 55 53 51 39 45 46 48 54 51 50 54 56 54 60 63 71 74 76 73 69 67 65 67 71 72 72 71 74
56 56 60 62 60 54 58 57 57 54 50 47 44 45 48 49 50 62 57 44 40 38 46 42 48 48 56 58 54 52 69 74 80 76 66 64 68 66 70 74 75 74 71
55 63 62 60 59 56 58 56 59 57 53 52 46 47 50 54 52 58 60 52 47 42 36 42 49 47 49 55 50 64 64 72 85 76 70 65 69 71 75 74 76 79 69
56 59 67 64 52 57 58 58 57 56 54 51 56 53 58 58 56 57 56 52 63 42 45 42 43 42 36 43 49 58 58 70 70 78 74 69 70 74 74 80 78 77 79
62 65 67 59 56 58 57 60 59 59 62 60 62 57 52 54 63 64 62 68 69 53 45 48 37 40 40 41 48 63 51 66 69 71 80 74 72 76 77 83 82 79 82
56 64 67 60 59 58 57 58 58 61 61 59 59 61 59 56 57 55 59 62 72 81 59 43 43 38 37 40 45 48 50 60 68 70 82 78 75 70 79 83 88 80 80
56 62 64 60 59 60 62 58 58 56 58 54 54 60 54 52 56 57 57 60 60 66 66 41 37 37 37 32 41 46 44 59 62 75 81 82 79 75 79 83 87 88 79
52 59 61 62 61 66 65 64 57 53 54 55 56 56 55 53 52 49 49 47 47 46 53 45 38 38 43 45 43 43 41 45 47 68 71 75 83 81 82 85 88 93 88
60 62 62 61 61 72 66 61 53 53 55 55 53 54 55 47 54 51 50 50 49 47 50 50 42 42 48 47 47 51 42 38 37 50 58 62 72 83 84 88 89 90 93
64 66 62 64 73 73 56 53 55 54 52 54 56 57 57 58 56 50 50 50 49 48 52 53 54 46 43 43 59 50 48 48 38 49 58 60 68 79 84 85 87 88 90
69 69 71 75 74 57 54 53 52 55 58 58 61 61 59 56 53 51 54 57 53 64 62 62 58 52 51 47 52 58 56 44 43 34 43 53 63 75 82 84 87 88 91
69 71 71 67 65 57 49 59 61 62 60 57 54 48 48 55 65 61 56 58 61 65 63 65 57 50 48 48 52 50 61 60 64 46 44 40 43 50 65 83 83 87 92
67 74 69 61 59 53 79 76 71 55 51 47 47 46 45 54 53 65 66 68 67 79 84 66 61 68 63 56 53 53 74 70 61 47 48 46 45 46 50 61 73 82 90
72 76 64 57 61 59 65 67 68 54 51 50 48 48 48 45 57 53 58 65 72 68 74 77 79 61 56 50 56 68 68 72 68 66 53 56 57 58 51 44 65 72 89
70 70 62 61 58 49 64 65 66 52 53 50 49 51 51 53 54 62 79 67 58 50 54 60 69 65 59 57 57 70 75 67 61 54 53 73 60 70 62 56 65 71 81
64 62 59 58 52 49 62 63 61 63 62 59 54 52 54 55 67 77 70 75 59 52 55 61 69 71 74 76 74 69 80 75 75 48 44 66 69 71 67 68 66 66 78
59 58 56 56 62 59 63 63 63 69 80 68 61 51 61 65 74 66 70 75 78 64 57 60 58 61 67 68 80 66 60 83 72 82 50 69 56 56 67 67 65 67 68

GFSMA_sfc_rhum_024.txt.gz
RH
54 44 46 39 39 36 35 36 35 34 34 32 33 33 31 31 31 23 23 74 71 66 64 64 64 64 63 64 67 71 71 70 68 68 72 76 79 82 85 87 88 87 86
57 46 44 39 37 36 36 36 38 33 32 33 31 34 34 31 31 32 25 28 68 61 60 60 59 60 58 57 57 58 62 68 72 70 70 78 81 83 85 87 88 88 86
62 49 43 42 43 42 41 37 37 33 32 29 31 30 29 30 29 33 32 29 33 65 58 58 58 56 56 55 55 56 56 58 62 70 72 74 79 82 84 86 87 86 84
68 52 50 50 48 42 38 36 36 34 33 33 34 31 30 31 31 31 31 37 31 28 43 53 52 53 52 54 53 53 54 56 57 60 66 75 76 80 81 84 86 86 86
57 52 47 47 44 38 40 37 37 40 40 37 35 30 30 29 28 18 30 38 39 36 32 48 53 53 48 50 54 55 54 56 58 60 61 65 71 75 81 82 83 84 85
47 42 43 46 39 38 41 44 48 42 40 37 31 23 27 26 25 28 33 31 29 35 35 38 36 31 52 46 52 53 60 60 60 62 62 64 66 68 74 78 81 82 84
42 42 37 41 44 42 49 47 41 40 36 38 41 30 27 26 36 33 31 31 34 34 38 34 34 33 33 49 45 49 60 64 64 63 62 63 65 67 70 74 76 79 81
38 38 43 40 44 38 45 48 49 44 36 37 45 38 33 27 22 33 29 32 35 34 33 35 38 38 38 35 42 56 55 67 68 65 65 63 63 65 66 68 72 76 79
36 39 42 41 40 39 36 48 47 47 42 33 38 39 42 37 34 28 30 27 37 34 35 33 36 36 39 38 41 44 59 65 69 66 65 63 62 62 63 64 67 72 75
37 34 38 44 46 42 46 43 36 45 42 37 33 28 38 39 42 42 30 32 31 30 35 31 33 33 35 34 47 61 62 66 62 66 66 63 61 62 62 62 63 72 73
39 38 40 46 50 47 46 47 46 44 38 40 37 36 38 34 36 38 40 34 28 26 27 29 30 31 32 32 34 48 63 65 63 67 72 65 61 61 64 63 68 66 75
33 37 41 49 50 49 47 46 49 47 46 42 36 37 38 38 38 39 41 36 34 28 27 28 31 30 30 31 32 54 62 67 66 58 63 72 66 63 63 66 68 68 67
30 35 39 42 43 48 49 49 48 51 49 42 42 38 38 38 35 38 38 38 39 30 30 28 28 27 25 30 32 50 52 61 64 62 55 57 70 68 63 67 69 78 72
31 34 37 40 47 48 50 47 48 52 54 51 46 42 37 36 35 35 37 47 53 39 34 36 27 28 28 28 37 52 36 54 66 71 64 58 67 70 66 64 70 75 81
28 33 38 43 46 51 50 49 46 53 54 54 45 46 41 38 36 35 37 41 61 76 52 38 34 30 28 29 34 35 37 48 59 66 69 65 68 73 70 68 70 73 78
34 36 38 40 43 45 47 49 48 50 52 45 38 45 44 38 36 36 35 38 41 53 57 34 30 32 31 25 33 36 36 50 54 59 69 70 79 79 76 72 74 77 82
37 38 41 44 43 43 46 50 55 54 48 42 45 47 46 43 40 37 38 37 37 37 43 37 32 33 37 37 36 40 40 38 36 54 71 67 69 71 78 77 78 82 83
39 40 44 44 44 47 60 71 53 41 43 45 45 46 46 35 43 41 37 39 37 38 44 47 40 40 42 41 41 44 33 32 34 39 63 61 59 67 85 84 86 87 88
40 42 43 46 47 55 63 59 50 47 46 47 48 49 47 46 44 39 40 39 39 41 47 51 50 44 43 42 42 44 45 46 33 48 60 61 61 60 70 85 86 86 86
43 43 46 48 52 51 52 48 45 50 49 46 48 47 44 41 42 45 42 43 43 49 49 52 52 49 48 39 38 47 48 44 48 40 44 50 55 54 65 85 87 84 84
44 44 48 50 52 52 46 55 48 48 46 44 42 37 38 46 57 56 48 50 53 58 60 55 60 54 49 48 54 47 49 42 44 46 58 47 38 35 48 81 74 82 86
43 44 47 53 53 39 73 72 66 44 42 39 38 37 37 44 46 57 61 62 59 65 71 69 67 60 57 47 45 47 54 58 60 47 86 55 50 39 35 39 66 69 75
48 48 51 53 51 52 61 62 64 42 41 40 40 39 37 33 46 45 54 62 67 70 85 70 68 68 68 56 56 55 56 57 65 51 67 64 52 54 44 30 62 65 72
47 48 51 50 52 46 62 62 64 44 45 44 43 43 43 41 44 57 63 59 48 44 39 44 54 54 53 53 56 60 62 55 54 44 46 67 55 62 56 50 61 62 71
47 48 48 52 52 48 61 61 61 53 53 52 45 44 44 43 59 68 60 59 49 42 50 54 58 62 65 72 69 66 70 62 75 56 41 53 58 59 57 64 61 69 72
45 44 48 52 58 54 63 61 60 62 76 60 51 45 48 56 67 64 68 68 74 59 50 52 51 50 50 51 72 69 62 64 62 68 53 54 51 54 66 56 55 59 63

GFSMA_sfc_rhum_027.txt.gz
RH
63 48 48 39 40 36 36 38 36 36 35 34 34 33 34 35 32 28 28 71 66 58 56 55 58 58 59 59 59 60 62 66 70 72 72 75 80 81 82 84 85 87 87
72 66 70 64 49 40 40 39 40 39 39 36 35 35 34 32 30 32 27 31 67 61 58 55 55 57 57 56 55 56 58 58 61 64 70 73 78 82 83 84 84 86 84
68 71 68 68 53 48 54 49 49 40 34 30 33 31 30 30 28 32 29 27 33 68 59 56 53 53 51 54 55 55 54 54 58 59 62 66 73 78 83 84 84 85 85
77 73 67 57 54 46 38 38 36 37 37 36 37 34 31 27 28 30 25 24 28 30 52 51 48 47 47 48 50 55 55 54 55 57 60 62 65 68 74 78 83 84 84
58 52 48 47 46 39 40 41 42 44 42 40 31 28 31 24 26 19 26 27 34 33 30 44 56 54 45 44 47 51 52 59 58 58 60 62 64 66 67 72 77 81 84
45 41 43 46 44 41 42 45 50 42 39 34 24 29 34 27 26 27 31 27 30 32 32 40 34 33 56 44 47 48 51 58 58 60 60 59 61 63 67 68 71 75 79
40 41 38 41 43 42 44 47 45 44 36 34 34 34 32 33 32 24 24 30 30 29 32 32 32 31 31 50 42 45 53 54 61 64 63 62 60 60 62 64 65 68 73
38 36 45 41 41 38 40 39 44 43 38 36 38 36 39 31 25 28 28 28 33 26 29 30 34 34 34 32 40 48 56 64 65 63 62 62 60 58 59 60 62 64 67
35 36 38 39 40 38 36 41 42 46 42 39 40 38 41 39 35 28 32 27 36 32 33 29 30 30 34 32 37 40 60 62 60 59 59 62 58 57 58 59 60 61 62
36 31 32 38 42 41 44 42 35 44 46 43 38 31 37 36 38 39 30 32 31 29 36 29 28 28 29 30 39 50 60 62 57 55 59 62 60 58 58 58 59 61 60
31 30 34 38 44 42 44 46 47 48 45 47 45 38 36 33 34 38 47 36 29 26 27 29 29 29 28 29 32 40 58 64 56 52 55 58 62 64 60 58 61 62 61
28 28 28 36 38 39 43 43 45 51 55 52 44 37 37 40 39 44 45 40 38 30 26 29 34 31 31 31 31 52 56 67 56 50 50 51 58 57 64 62 59 59 62
26 29 33 35 34 38 40 42 53 60 51 50 50 42 43 43 40 38 40 40 43 33 34 33 32 32 24 34 33 52 46 57 58 54 49 52 57 57 58 60 61 58 60
28 31 33 34 36 39 40 53 54 49 58 60 63 57 51 45 40 41 41 50 55 42 38 40 34 35 32 32 38 51 33 54 55 58 58 55 59 58 58 61 61 60 60
25 30 35 36 35 37 41 48 50 53 52 56 64 61 50 45 49 46 42 40 54 73 55 40 38 34 32 34 38 40 41 46 54 58 59 56 55 57 57 62 66 64 63
32 35 36 36 38 39 39 42 45 48 53 58 54 50 45 50 51 47 39 41 36 47 53 35 31 34 35 28 36 42 41 52 54 60 62 62 63 59 61 70 72 67 68
34 34 34 36 36 36 37 46 59 60 58 58 46 45 53 50 48 45 44 36 37 37 42 37 32 36 41 43 40 41 41 43 41 52 58 62 65 72 71 65 72 74 74
36 35 34 35 35 35 41 58 53 61 62 54 50 50 48 40 47 39 36 37 38 37 39 42 40 44 45 44 45 46 36 31 38 48 60 59 67 70 70 69 78 85 84
36 36 35 37 37 40 41 48 55 53 50 51 51 51 47 43 42 38 40 41 38 33 41 51 53 49 44 41 44 44 43 41 34 48 57 64 72 69 67 68 74 81 86
37 37 37 37 41 41 41 44 44 50 54 49 48 44 39 39 41 46 43 45 41 45 48 52 50 53 47 49 51 52 56 50 44 28 39 53 69 71 68 69 72 76 86
37 37 37 38 44 44 42 52 47 48 48 45 42 34 36 43 48 52 46 48 51 54 54 56 58 58 61 52 52 51 57 49 44 46 50 57 64 64 52 62 58 75 82
35 37 38 40 49 40 76 70 64 48 43 38 38 37 36 46 48 56 56 58 60 62 71 73 63 55 49 54 66 71 63 60 54 49 72 82 72 85 49 48 68 71 67
40 42 42 43 51 50 67 62 63 47 44 41 41 40 38 30 46 42 54 56 59 65 71 65 70 68 76 56 55 64 63 68 65 53 62 76 69 75 51 36 60 65 69
41 42 43 47 49 50 67 62 64 51 44 45 45 44 42 42 47 58 58 52 45 41 40 37 50 51 51 49 52 56 58 52 55 50 48 72 64 70 64 53 62 66 69
42 44 41 47 53 55 67 62 61 52 51 50 46 43 44 43 59 64 59 60 51 45 44 54 52 58 64 68 66 68 82 72 81 56 55 83 70 68 67 66 65 62 72
41 40 41 48 58 54 67 63 60 61 68 60 51 45 56 52 62 62 68 67 70 53 45 47 53 54 54 53 70 66 75 91 78 70 63 83 58 54 67 67 66 69 76

GFSMA_sfc_rhum_030.txt.gz
RH
84 79 76 72 67 63 59 63 62 58 56 51 53 49 47 48 49 51 53 70 67 53 50 53 55 56 57 58 58 59 59 59 61 63 65 72 78 82 86 86 84 84 85
86 82 78 75 72 62 60 61 62 59 58 56 50 51 50 49 45 45 43 55 70 66 57 55 53 52 51 52 52 56 58 57 57 59 60 63 68 76 79 84 87 86 84
79 78 79 76 69 64 61 61 61 58 59 49 52 51 48 46 38 40 46 41 52 73 65 55 49 45 46 47 48 50 53 55 58 58 60 62 64 67 71 75 78 82 87
80 78 74 73 70 73 64 63 65 65 64 63 61 52 51 42 37 41 37 42 40 50 67 58 46 43 45 42 45 47 49 51 56 56 57 59 61 63 66 69 71 75 80
68 71 71 73 69 64 66 66 70 70 66 58 44 42 53 49 47 31 36 43 50 47 43 60 61 57 44 44 44 47 47 51 53 55 66 59 59 60 62 63 67 69 72
60 63 68 65 64 66 66 70 72 67 64 60 37 40 55 54 44 45 48 42 42 41 44 45 48 46 54 47 46 46 51 52 55 65 62 58 60 59 59 60 61 64 66
54 62 66 64 64 64 65 59 62 65 66 63 61 55 53 47 47 49 42 43 43 37 45 52 48 48 45 45 44 45 49 61 62 59 58 58 57 58 57 57 58 60 62
53 57 62 60 60 61 62 66 67 70 67 65 68 64 63 53 50 42 46 44 50 50 43 37 44 46 48 52 47 43 44 55 54 54 55 56 58 57 56 54 56 57 60
48 50 52 58 62 63 67 69 67 66 70 66 65 68 66 67 54 51 46 50 53 52 53 46 39 42 40 48 44 47 55 57 48 47 49 52 55 56 64 63 57 56 58
47 43 46 54 61 67 68 69 55 70 69 72 67 51 62 62 57 56 50 52 49 40 47 54 49 44 43 47 47 57 64 57 49 45 47 49 51 54 55 66 64 56 56
49 42 49 61 62 64 66 68 69 67 70 73 72 71 63 61 58 63 63 58 50 47 46 50 53 52 44 45 52 52 64 66 53 50 48 48 49 51 54 55 63 64 58
48 51 49 56 58 60 62 66 68 64 73 73 72 71 69 66 64 68 67 63 58 50 49 50 52 53 54 53 40 55 61 59 56 44 44 45 48 50 51 55 57 60 59
50 53 51 55 57 57 61 64 69 73 77 77 79 78 74 66 62 67 73 70 70 54 54 54 54 54 38 51 50 57 52 63 64 50 46 46 47 52 57 57 58 59 58
48 48 50 54 54 55 59 63 70 75 76 80 79 82 85 74 66 70 72 83 80 64 56 59 54 53 52 45 56 58 51 58 61 59 57 50 48 48 50 55 58 59 60
38 52 54 54 55 57 60 63 69 73 75 79 80 83 85 78 70 73 73 69 76 88 65 52 55 46 54 50 52 50 51 54 60 61 61 58 54 53 52 52 54 56 58
45 50 52 53 54 56 57 60 72 75 76 81 77 83 78 76 72 73 70 69 64 63 64 50 47 48 52 38 45 50 50 51 56 59 60 60 61 60 59 59 53 57 61
47 49 49 50 50 52 55 62 66 64 70 81 82 75 74 66 73 71 68 64 59 59 59 51 45 50 52 59 52 53 52 49 48 56 60 61 64 66 65 66 68 66 62
49 49 49 48 49 50 56 60 66 67 68 69 69 66 65 48 65 62 61 62 61 54 56 58 56 57 60 57 56 57 45 39 46 48 56 60 63 66 69 76 75 72 68
50 50 48 52 52 54 54 58 60 63 68 68 70 68 65 60 60 64 66 61 61 49 61 63 62 60 60 58 58 58 57 57 47 52 52 57 59 66 75 76 71 73 69
50 51 52 54 56 52 52 53 53 62 67 60 64 63 56 55 61 62 55 64 55 65 64 67 67 65 61 60 66 65 68 62 62 43 47 55 66 68 74 79 81 74 70
50 51 52 55 55 52 47 64 57 62 66 62 61 49 50 52 48 55 53 65 71 76 71 68 68 72 69 64 62 80 92 75 66 64 63 74 76 74 81 81 80 73 71
52 51 53 54 58 44 78 71 64 65 61 60 61 57 54 56 59 63 63 56 64 80 81 84 81 80 73 74 82 72 74 76 76 70 78 76 80 82 82 97 87 79 93
55 57 58 57 61 72 77 68 65 60 66 67 62 62 54 37 68 66 62 62 62 59 69 74 76 83 83 70 67 70 72 77 82 67 72 73 80 83 70 49 74 73 81
57 60 60 59 64 62 77 69 65 66 70 66 64 63 63 62 77 69 76 70 64 59 55 47 65 64 61 63 68 68 74 72 75 71 68 82 91 86 83 83 71 69 70
59 60 56 60 64 74 78 70 65 72 75 73 63 63 60 60 68 62 72 76 71 63 51 55 56 57 62 69 69 75 93 90 91 80 75 90 92 95 90 91 88 70 71
53 56 61 64 69 80 76 70 67 90 88 88 76 66 64 64 59 61 84 86 86 75 66 63 65 66 64 67 73 74 96 96 94 93 79 94 86 84 96 100 91 98 91

GFSMA_sfc_rhum_033.txt.gz
RH
92 90 85 80 75 69 66 64 58 56 56 55 55 55 53 54 47 50 60 71 69 54 50 55 54 52 52 52 53 54 56 57 59 61 61 64 66 69 71 74 79 84 85
89 83 83 77 72 66 60 62 58 59 65 60 58 56 51 51 41 40 50 56 73 67 57 54 50 47 49 47 49 50 52 54 57 58 59 60 63 65 67 68 70 74 78
85 84 82 76 71 70 66 64 70 70 70 62 63 54 53 46 45 46 45 45 73 72 68 53 44 44 46 44 46 47 47 48 52 53 59 63 60 61 62 64 65 69 73
77 80 79 76 75 77 70 76 76 72 70 65 63 56 59 50 50 42 41 43 55 66 73 60 48 45 47 45 46 46 45 46 48 63 65 65 63 61 60 62 62 63 65
75 78 78 72 75 76 78 71 75 74 69 66 52 51 61 58 49 44 41 42 49 49 67 67 54 53 44 45 46 46 49 47 56 56 59 61 59 56 58 59 59 60 62
70 74 72 72 72 73 69 69 70 73 70 70 47 53 57 56 56 58 50 40 47 48 53 43 48 45 54 42 43 44 46 51 52 55 53 53 57 56 56 56 56 56 58
66 71 74 69 67 67 64 68 69 68 71 74 68 68 61 60 48 51 52 53 52 45 46 46 45 48 50 48 41 40 42 42 47 47 48 49 52 53 54 56 59 56 56
65 60 65 65 63 66 70 72 70 76 75 73 69 79 75 67 61 49 53 51 57 52 49 38 46 46 51 53 45 34 36 42 44 43 44 43 46 49 51 52 59 62 59
55 61 62 64 67 70 72 74 75 70 74 72 71 72 80 82 72 56 49 58 55 57 56 54 48 44 46 53 50 50 53 53 48 44 43 44 44 46 48 50 52 60 65
52 47 57 68 72 74 71 76 66 74 72 76 77 60 72 76 72 74 62 55 54 47 55 57 57 51 49 55 53 58 64 65 46 46 46 46 46 46 47 48 49 55 60
54 53 59 59 61 68 68 70 74 79 80 80 78 78 76 74 68 71 79 68 62 57 56 59 58 59 52 56 56 52 64 64 57 46 42 43 45 46 46 47 49 48 56
62 54 51 58 58 61 65 70 72 80 80 78 73 77 81 80 74 74 78 78 74 67 60 60 60 61 60 58 44 58 62 66 62 46 45 46 47 48 49 48 49 51 54
57 53 53 57 60 61 62 67 74 77 79 83 85 84 85 82 75 75 80 95 83 75 69 65 62 62 50 58 60 57 54 63 60 50 48 49 50 50 50 50 49 51 56
52 51 55 56 55 58 62 64 72 78 85 88 86 88 90 90 81 80 85 91 96 90 80 70 64 66 64 64 55 55 58 63 63 62 53 51 51 51 51 50 50 51 52
44 53 55 54 55 58 59 60 79 82 81 86 90 89 91 90 88 83 82 79 85 99 87 68 67 57 60 60 57 59 62 56 62 62 59 53 50 49 50 51 52 53 55
49 52 52 52 53 55 60 68 76 72 80 90 87 89 90 92 88 88 84 79 76 80 89 66 62 59 59 47 50 58 60 53 58 63 62 63 61 55 50 53 56 55 55
50 51 54 54 50 54 60 65 69 70 76 81 84 85 79 71 78 72 72 72 72 72 74 68 63 66 64 67 58 62 61 57 57 60 62 62 64 64 64 64 65 61 61
54 55 56 52 52 55 61 69 69 69 72 78 78 72 67 54 67 69 74 68 69 70 74 72 71 67 70 69 64 64 53 45 54 54 63 63 64 62 64 66 70 74 72
54 58 55 54 55 59 59 64 66 66 71 73 73 72 71 66 67 71 66 68 70 55 75 78 71 70 70 69 65 66 67 72 55 57 57 60 60 64 69 72 72 76 77
54 56 54 54 59 62 57 58 62 68 69 66 67 68 67 64 62 60 58 64 62 74 77 82 73 70 69 68 75 75 81 79 75 53 56 62 64 65 62 67 74 74 77
55 52 52 55 61 61 55 66 60 65 64 64 66 60 58 56 56 59 56 68 76 82 85 82 76 75 76 76 78 89 83 69 65 68 71 72 73 70 74 72 80 84 88
58 56 57 61 61 49 79 72 66 64 59 63 70 66 61 58 66 65 62 61 66 82 92 98 82 82 77 88 86 83 75 78 79 74 88 81 77 75 74 84 78 78 98
54 60 61 62 65 71 78 74 70 61 63 69 74 69 60 56 69 67 64 63 63 59 74 82 81 81 78 72 75 78 81 86 87 73 79 88 82 85 77 57 69 76 78
65 66 66 64 73 68 80 78 72 66 69 74 74 70 70 73 74 70 75 73 73 72 66 58 74 71 70 69 76 74 80 81 82 78 74 96 86 86 91 86 78 74 80
63 65 64 66 73 78 82 78 71 73 74 77 73 72 71 71 66 60 73 77 78 74 58 60 61 66 68 68 69 86 93 92 93 83 88 96 95 95 96 96 91 75 86
53 62 63 68 72 82 82 77 70 90 87 91 83 75 66 71 62 62 87 88 91 75 74 72 72 73 72 76 76 81 89 96 94 92 82 97 92 94 96 97 96 96 98

GFSMA_sfc_rhum_036.txt.gz
RH
91 90 87 78 74 72 68 65 63 64 65 60 61 56 55 48 44 50 62 63 66 53 49 55 52 51 50 52 52 53 53 55 56 56 59 62 62 63 63 64 69 73 74
88 86 81 75 71 67 68 71 72 72 72 65 60 57 50 48 49 48 49 55 64 66 56 53 46 47 45 46 49 49 48 51 50 55 62 63 62 62 61 61 62 64 67
87 83 79 75 75 72 72 76 74 73 68 57 55 55 56 53 50 47 51 54 68 75 67 49 45 45 43 43 45 45 45 47 49 64 63 62 61 58 60 60 62 61 62
81 82 79 79 83 81 80 79 76 73 68 65 61 57 63 52 49 47 46 51 61 78 71 57 50 47 46 49 47 44 46 46 47 50 54 52 57 56 58 58 58 59 59
79 79 77 82 80 78 79 73 80 75 70 66 58 62 61 59 58 43 46 50 52 61 58 53 48 47 39 40 40 41 42 43 48 48 52 51 51 51 54 56 56 57 58
78 78 80 79 74 68 70 69 69 71 73 73 50 53 61 62 60 58 54 48 49 52 52 47 55 56 55 41 40 38 39 42 43 43 44 44 44 49 52 53 54 53 59
76 76 73 70 68 67 72 67 71 68 76 73 69 70 73 65 56 55 57 57 50 48 48 50 53 60 56 52 42 39 39 40 42 42 41 42 42 44 46 49 50 52 51
70 68 69 67 66 72 72 72 73 80 78 76 70 84 76 72 68 51 56 56 56 53 49 47 49 48 55 59 58 49 46 42 39 40 41 41 41 42 44 46 48 49 50
64 65 65 68 72 73 74 78 77 70 74 77 77 73 80 83 80 65 56 58 57 57 60 55 50 48 49 55 59 60 48 53 48 43 42 43 44 44 45 46 46 47 49
63 63 68 75 76 74 70 74 73 79 80 78 81 66 75 76 80 84 66 61 60 51 58 62 60 55 53 58 52 52 60 61 47 42 41 43 45 45 45 46 46 47 48
63 59 62 63 66 71 69 67 69 79 88 84 82 82 80 82 77 79 81 71 68 65 61 63 62 62 55 57 61 53 60 65 62 46 46 44 45 47 48 48 47 47 47
66 58 57 61 63 63 63 68 74 82 83 83 83 85 86 85 85 82 86 85 84 75 64 62 64 65 65 65 54 57 65 63 51 47 48 48 48 49 50 50 50 50 50
59 57 57 59 58 60 64 65 70 78 85 89 89 91 90 89 84 81 88 94 98 83 77 72 67 66 56 71 68 55 53 63 55 51 51 51 51 51 51 51 52 52 52
57 55 57 57 57 59 60 63 79 87 87 90 86 90 93 92 91 84 88 94 96 95 90 81 73 70 67 69 61 54 64 57 54 54 53 52 51 51 51 50 50 51 51
52 58 55 57 56 57 58 69 84 79 84 90 90 90 94 96 96 95 92 96 100 99 96 84 70 62 67 66 63 65 63 56 54 55 55 54 53 53 53 53 53 53 53
55 55 54 53 55 54 60 72 79 73 82 89 90 88 90 93 88 90 90 89 85 82 89 74 69 69 65 51 53 57 64 55 59 60 61 58 59 56 56 56 55 54 54
52 50 56 59 53 53 59 76 74 75 76 82 85 87 84 81 86 83 75 69 66 68 74 73 71 73 72 73 64 68 66 64 67 59 60 58 64 63 64 58 56 55 56
55 59 60 60 56 57 62 69 74 71 71 75 77 74 72 57 67 70 72 66 67 69 73 76 76 73 74 71 72 76 60 52 68 60 58 59 55 58 66 67 69 68 67
58 62 63 59 58 61 65 72 71 73 74 76 76 76 75 76 65 74 68 67 70 56 74 79 76 77 78 74 71 72 74 72 64 57 52 53 53 57 62 61 62 64 68
62 61 60 60 63 62 65 64 66 73 74 67 66 65 65 64 64 62 60 63 64 74 78 82 78 77 76 70 81 83 81 76 67 49 54 58 61 65 61 61 62 61 67
59 58 60 62 62 62 59 67 65 70 69 65 65 61 61 60 59 60 60 70 77 82 84 84 81 79 75 75 83 86 91 70 68 68 69 74 81 72 76 72 67 66 70
57 60 61 64 66 56 69 79 72 70 62 62 64 68 64 59 66 67 64 66 71 82 87 98 90 85 80 81 88 79 78 83 84 78 89 83 79 81 81 84 74 72 72
67 68 67 68 71 72 82 80 74 66 66 66 69 73 65 58 71 68 63 61 62 60 76 89 90 87 82 71 73 82 85 90 90 79 85 90 87 89 79 64 70 71 75
70 71 70 69 73 74 83 80 77 68 68 69 75 73 74 73 74 70 73 71 69 68 67 62 79 79 75 76 78 81 94 94 91 82 89 95 88 90 86 86 76 78 78
75 70 66 73 76 80 82 82 75 72 73 74 72 73 76 75 72 67 72 76 75 71 53 60 62 66 66 67 71 85 91 94 90 82 87 91 88 91 89 86 88 78 76
64 67 71 75 74 82 84 84 78 85 86 86 81 80 70 70 72 68 86 87 90 70 69 76 75 71 73 74 75 85 91 96 94 91 84 92 85 92 98 96 99 91 93

GFSMA_sfc_rhum_039.txt.gz
RH
91 93 86 79 76 70 69 70 71 69 68 61 59 52 50 52 50 54 62 60 62 56 44 55 51 51 51 51 52 49 51 52 52 60 61 62 61 61 62 63 64 65 64
89 81 78 74 73 73 76 74 73 70 67 58 58 56 55 53 49 52 56 69 73 70 58 52 47 47 46 46 47 47 47 48 58 60 61 60 59 57 59 59 60 61 62
86 81 79 79 78 77 77 76 73 68 64 56 55 59 56 52 50 49 55 60 89 76 65 52 48 48 48 46 45 45 46 48 47 50 52 52 52 54 54 56 59 59 58
82 82 83 86 85 81 79 79 75 70 69 67 61 65 65 56 51 49 51 62 80 73 63 49 44 39 38 42 42 43 44 44 49 50 51 50 49 49 51 55 54 57 56
81 81 84 86 79 77 79 73 78 72 71 69 58 61 65 61 57 46 49 49 54 52 49 48 54 55 46 38 39 40 41 42 43 45 45 46 45 44 47 50 51 52 54
78 80 81 78 71 71 71 69 69 78 77 74 52 55 71 65 60 61 56 46 48 48 50 50 60 59 50 42 36 37 39 41 42 43 43 42 42 42 43 46 48 49 50
78 77 76 72 70 70 71 68 74 73 77 78 67 71 77 69 62 58 60 55 49 49 51 52 54 55 55 48 47 40 40 40 41 41 40 40 41 41 42 43 45 47 48
73 68 71 69 72 77 75 74 74 83 78 77 75 84 76 70 69 62 62 58 56 55 52 50 50 50 55 57 60 42 40 41 42 41 42 42 42 42 43 44 44 45 47
70 69 70 75 76 78 79 80 76 69 75 78 76 70 81 86 84 72 61 62 59 62 61 56 51 49 51 55 57 57 49 46 40 42 41 41 43 44 45 45 46 46 47
71 69 72 79 79 76 75 77 75 82 81 79 84 70 78 78 84 88 71 66 66 56 60 64 61 57 55 60 56 55 56 63 50 43 42 43 44 46 46 46 46 48 49
71 73 70 67 68 73 66 66 72 80 89 87 86 85 85 89 85 88 93 80 70 68 68 68 69 67 58 60 67 61 60 65 57 52 51 50 48 48 49 48 47 48 49
70 64 61 63 64 64 63 70 81 82 83 87 88 90 88 88 89 92 95 91 86 80 75 69 71 68 72 72 57 62 57 58 55 52 51 51 52 54 54 53 52 51 50
66 64 62 63 66 65 63 64 71 75 80 88 88 92 93 92 90 88 92 94 94 82 72 75 69 72 56 74 70 58 59 59 57 56 55 56 55 55 54 53 52 53 53
59 58 63 64 66 60 60 63 74 84 89 90 88 91 91 91 94 96 92 96 93 77 78 72 71 66 69 69 63 56 68 59 56 55 56 55 53 53 53 54 54 53 54
54 58 63 62 60 60 58 64 80 82 81 89 88 88 90 94 95 94 95 98 100 98 94 81 70 66 68 66 64 64 70 60 57 56 58 57 56 56 55 55 55 55 56
55 63 59 58 59 60 61 72 84 78 84 89 88 88 89 92 92 93 93 95 98 98 98 80 70 69 67 54 58 67 71 62 63 62 59 59 60 59 60 60 57 57 55
55 54 56 57 61 60 66 77 81 77 78 82 88 89 86 87 93 92 88 76 73 71 73 65 72 72 73 72 68 75 74 73 75 62 62 60 60 61 59 58 60 60 58
62 56 62 64 62 60 64 76 77 73 80 81 81 84 82 67 84 78 77 70 68 67 70 71 76 75 75 71 74 78 64 57 70 64 59 56 56 55 56 56 60 64 63
63 62 65 64 62 65 66 70 76 79 80 79 82 81 76 78 81 75 72 70 70 58 74 80 78 79 80 77 72 75 78 75 66 57 55 56 58 61 64 63 65 64 60
64 66 64 65 65 62 62 68 72 78 81 80 79 75 68 70 72 71 67 67 65 72 78 84 81 76 80 74 82 85 78 74 65 52 60 63 62 64 66 67 68 68 66
67 62 62 64 65 63 59 72 71 79 82 75 72 67 67 64 60 62 62 68 74 83 85 86 80 77 80 78 88 77 81 71 71 72 73 72 75 74 76 75 74 73 70
63 68 77 74 68 61 70 80 79 81 75 72 72 68 68 65 69 72 66 67 74 84 86 97 86 86 82 88 85 81 84 88 84 80 90 86 79 82 81 85 79 77 74
82 90 83 71 70 74 79 80 84 78 76 72 70 68 69 57 70 76 76 69 65 63 79 85 91 88 92 78 78 87 88 90 92 83 92 87 81 86 74 66 73 74 73
94 82 77 73 77 74 82 83 85 75 74 71 72 74 76 72 76 71 73 74 69 68 65 59 76 82 80 80 84 81 91 91 85 83 86 94 82 88 81 80 77 76 74
82 77 72 75 79 77 78 84 86 77 76 73 70 73 76 78 74 73 77 78 75 72 55 58 62 64 67 65 66 89 92 93 91 80 80 93 91 86 84 87 87 76 75
81 75 75 80 80 84 80 85 88 91 86 82 81 77 80 78 74 76 88 88 93 78 65 67 74 73 70 75 72 83 92 97 93 91 86 95 82 90 96 97 98 92 88

GFSMA_sfc_rhum_042.txt.gz
RH
95 94 89 79 75 72 74 75 72 63 61 60 58 56 54 56 56 57 65 68 69 56 44 56 52 51 52 51 50 49 50 50 58 59 58 57 58 57 56 58 59 59 60
94 84 79 77 77 77 78 73 68 65 62 59 61 57 55 53 53 57 64 85 80 71 59 51 48 47 46 46 44 44 44 49 54 54 55 55 52 51 53 56 56 58 59
83 80 81 81 82 80 76 73 69 67 64 56 62 60 57 53 53 59 69 80 80 69 61 54 52 51 50 50 50 48 46 44 47 48 49 50 49 47 46 52 54 54 56
80 82 84 84 86 82 78 75 71 71 71 65 66 67 62 57 54 56 59 66 66 52 56 52 50 46 39 40 40 40 41 42 43 42 45 46 46 45 44 47 50 51 52
82 82 85 88 82 80 79 74 76 71 70 69 59 66 67 60 57 45 51 53 56 52 49 50 54 56 44 39 38 38 38 41 42 43 43 44 43 42 42 43 45 47 48
80 84 84 81 75 73 76 71 73 80 75 73 51 62 73 66 62 61 55 46 51 54 54 55 58 56 51 48 43 41 39 41 42 42 41 42 41 42 42 42 42 44 46
80 81 78 73 74 71 71 71 77 74 74 78 70 74 74 71 66 62 58 56 54 54 56 54 54 52 50 48 46 39 40 40 41 42 42 43 43 43 44 44 44 44 44
80 75 74 74 76 78 76 74 75 82 82 80 77 81 76 68 68 65 63 60 59 57 54 53 54 53 54 53 59 42 38 40 42 43 42 43 43 44 45 46 46 45 45
74 73 74 78 79 79 80 80 77 75 78 80 80 75 76 77 82 74 66 64 62 63 61 58 55 54 56 55 56 58 55 52 46 45 44 44 44 44 45 46 47 47 46
75 72 76 79 82 83 80 80 76 80 80 76 83 73 79 76 81 84 73 65 66 63 65 64 61 60 60 61 60 61 60 62 58 48 47 46 46 46 47 47 47 48 47
78 76 80 74 75 76 74 72 76 80 85 84 86 84 84 87 85 86 91 82 70 65 66 69 69 66 62 62 66 66 61 60 56 54 52 51 50 50 50 50 50 50 50
81 75 68 72 72 72 69 71 80 80 86 84 87 88 83 86 87 89 95 92 88 78 73 71 70 65 64 65 53 59 60 61 60 58 58 58 58 57 56 55 54 54 54
75 70 66 70 71 72 68 74 68 67 82 87 89 91 92 89 85 89 94 94 95 88 77 70 71 62 50 63 62 54 55 58 59 59 59 58 58 58 58 56 55 55 54
66 65 64 68 74 79 79 65 70 77 87 90 90 92 89 87 90 92 94 94 84 78 81 77 72 60 62 60 56 53 61 60 57 57 58 58 58 57 57 56 56 56 56
62 62 67 75 88 77 64 66 74 80 83 88 89 90 90 89 95 96 96 92 94 94 92 85 80 63 62 62 59 61 62 62 62 60 61 60 59 58 58 58 58 58 60
58 66 71 82 69 64 64 67 72 79 84 88 89 90 91 92 95 96 96 96 91 92 96 82 69 63 60 51 57 60 63 62 64 65 62 61 61 61 59 59 59 58 58
61 68 76 65 65 66 66 68 74 82 81 86 88 91 90 89 93 94 95 93 92 92 86 65 66 63 63 61 61 64 68 66 68 66 64 62 60 60 59 58 58 59 59
67 64 64 66 64 64 66 71 77 73 82 85 85 89 89 79 92 93 91 81 72 69 67 66 65 67 67 65 67 68 59 54 63 64 65 59 58 59 60 61 61 61 62
71 75 68 70 71 73 68 70 74 78 81 83 82 86 84 84 83 83 77 75 71 59 69 72 70 71 71 69 64 66 68 67 62 60 58 59 62 66 65 65 67 67 66
69 71 74 71 69 65 69 68 68 75 83 82 85 86 84 82 79 78 74 73 67 68 70 74 77 73 70 66 72 76 70 60 61 53 60 64 65 67 68 68 70 72 72
72 68 76 86 87 77 65 72 70 79 83 86 86 82 80 72 68 70 65 68 68 73 76 78 76 70 65 70 68 72 75 71 70 68 65 65 68 66 70 71 71 73 76
84 86 90 92 91 81 80 78 82 85 84 85 83 80 71 68 74 76 74 66 67 80 84 84 77 72 67 72 80 79 80 81 75 68 80 79 68 72 71 76 72 70 71
92 97 94 93 90 80 79 82 86 91 87 85 81 73 66 59 73 68 76 78 76 73 82 78 81 74 82 76 71 81 82 85 84 71 78 82 70 77 65 59 70 72 74
96 96 92 85 81 74 80 84 88 92 86 82 77 72 70 69 68 74 78 81 72 66 67 65 70 70 74 73 75 74 84 84 76 70 68 89 73 82 70 67 72 75 77
95 87 81 78 79 80 81 81 86 92 82 78 73 72 73 71 75 74 78 78 71 67 62 66 61 68 67 66 67 79 82 86 90 70 65 84 83 81 75 78 79 74 72
83 86 81 81 83 86 82 82 87 96 90 84 81 72 77 77 78 82 89 87 88 74 71 61 61 66 68 69 73 73 79 92 90 83 75 83 73 82 86 82 83 79 82

GFSMA_sfc_rhum_045.txt.gz
RH
78 70 64 55 51 51 51 49 46 42 44 43 40 39 38 39 38 32 36 78 65 56 50 56 52 52 51 49 47 44 47 52 48 52 54 53 52 51 52 55 55 56 57
73 66 60 55 54 51 50 46 44 42 41 40 40 39 38 35 38 46 46 53 77 69 59 51 49 47 47 46 43 47 46 47 45 48 49 52 48 47 47 49 50 53 54
75 68 60 58 56 54 55 51 48 44 39 36 41 38 34 38 38 50 49 48 48 66 61 56 54 51 50 49 44 42 42 44 44 43 45 48 47 47 46 45 46 50 51
69 65 59 60 60 56 51 54 46 44 42 39 42 39 36 34 41 48 49 44 38 34 47 51 48 44 39 38 37 38 39 41 42 43 44 45 44 44 43 43 44 46 48
67 61 58 62 63 57 61 49 50 46 45 42 38 41 40 34 35 30 38 39 38 33 28 46 51 49 44 39 36 36 37 40 41 43 43 43 44 43 42 42 43 43 43
65 62 61 66 63 64 53 49 53 50 45 44 32 40 46 38 36 36 34 28 33 37 33 35 30 31 46 42 41 39 37 40 41 42 42 43 44 44 44 43 44 44 45
63 66 61 62 57 52 52 56 54 53 47 50 42 44 46 46 44 37 35 34 36 34 37 32 29 27 27 43 42 38 38 39 40 42 44 43 44 44 44 44 45 46 46
64 66 63 56 54 52 58 58 56 52 50 52 46 46 42 44 43 44 38 39 46 34 33 36 38 37 34 30 37 47 46 45 46 46 46 46 46 46 46 45 45 45 47
65 66 61 56 58 54 55 58 56 51 44 54 60 48 40 35 46 46 50 43 46 39 41 42 42 38 39 37 40 42 55 58 56 53 49 48 48 48 47 46 46 47 47
65 60 58 60 60 57 59 56 50 52 54 48 58 52 56 50 42 43 46 45 46 46 46 44 40 43 44 40 48 55 60 63 59 55 53 51 50 50 50 49 48 49 49
65 60 60 62 62 56 57 55 59 58 69 74 51 55 58 55 58 52 43 44 39 39 40 45 49 47 48 44 47 53 59 61 60 59 58 58 56 55 54 52 52 51 50
61 63 57 60 58 54 55 53 58 68 73 64 55 55 50 47 46 50 48 44 46 45 47 46 50 49 44 41 39 52 54 56 56 56 57 57 57 57 57 57 56 55 54
67 67 61 60 53 54 58 64 84 85 66 71 66 54 56 55 50 48 51 48 52 44 48 50 51 48 42 48 43 50 48 54 56 56 56 57 58 58 59 58 58 57 56
69 65 59 54 57 69 70 90 78 67 59 59 65 63 58 53 51 48 51 57 60 47 44 58 49 49 44 40 44 52 39 50 55 57 59 60 60 60 60 59 58 57 57
70 65 60 59 65 71 85 76 61 59 63 67 68 71 65 55 57 54 56 62 71 76 48 40 48 52 45 41 39 43 42 44 56 59 60 61 62 61 60 59 59 58 57
66 66 60 65 75 82 70 70 58 61 62 64 61 66 62 57 61 62 61 60 60 73 62 39 40 44 42 32 38 45 40 51 50 58 63 63 63 63 62 61 60 60 60
64 58 59 74 79 71 65 69 70 64 63 60 63 64 63 61 58 58 60 59 58 60 68 45 41 40 44 42 40 40 37 37 37 51 59 62 62 63 60 60 61 61 61
67 68 72 74 72 67 56 73 72 66 58 59 61 64 62 54 65 62 60 61 58 53 54 49 40 40 44 44 44 43 33 31 39 45 56 62 62 61 63 64 65 65 65
66 69 70 73 72 70 71 72 73 59 57 60 60 62 59 62 63 58 60 56 51 47 47 48 43 39 43 42 42 37 35 42 33 46 50 53 57 63 65 64 66 67 68
66 66 74 72 74 72 72 66 55 57 58 59 62 63 60 61 60 58 56 54 49 47 44 45 42 42 42 41 42 36 38 35 37 34 44 51 60 60 61 60 66 69 69
73 68 77 80 88 85 78 78 70 66 64 62 63 63 64 65 72 65 50 49 48 47 44 45 45 44 43 41 38 36 44 39 40 40 42 41 41 42 43 51 54 60 63
76 74 85 91 93 88 95 92 86 68 58 59 60 60 61 75 74 79 79 72 52 51 56 52 48 49 46 45 40 42 46 49 49 39 47 48 40 43 45 48 55 64 68
89 95 96 94 96 92 90 86 84 60 61 60 61 59 56 52 65 52 68 79 78 75 72 55 60 53 58 44 39 47 49 51 51 43 48 53 46 50 45 39 55 63 70
95 95 92 87 80 70 82 84 87 62 62 62 63 61 60 57 58 54 54 75 57 54 58 53 50 49 48 40 46 51 57 57 46 41 42 65 50 58 51 49 57 63 73
89 80 76 70 67 62 81 82 77 62 63 62 57 58 57 56 64 72 87 76 58 54 59 66 64 66 66 68 66 58 64 62 70 47 43 60 56 58 54 56 53 61 64
68 62 62 65 72 66 76 83 78 73 77 70 62 58 75 62 72 84 86 84 80 57 50 50 51 54 57 54 68 57 54 69 65 63 42 62 53 55 66 52 58 59 61

GFSMA_sfc_rhum_048.txt.gz
RH
52 47 49 42 42 41 40 40 40 37 40 38 35 32 29 29 27 23 26 78 63 57 59 56 53 52 49 47 44 42 48 48 48 50 48 51 48 48 48 48 50 52 54
52 46 48 45 43 41 40 39 39 38 35 34 34 31 29 26 29 33 25 43 74 67 58 50 48 46 47 46 44 49 46 43 44 46 46 45 49 47 47 45 46 48 50
54 52 48 47 44 44 45 43 42 38 34 28 30 28 25 30 27 32 28 30 42 67 62 57 55 50 49 49 44 44 42 43 44 45 45 45 46 45 44 43 42 44 45
62 58 50 48 48 47 42 42 41 36 33 28 30 26 26 25 30 32 31 28 29 27 54 52 48 45 41 38 40 41 42 41 42 44 44 45 46 47 45 43 43 44 44
64 56 50 50 54 46 47 44 41 38 35 30 26 27 29 25 28 20 32 34 35 28 22 49 46 44 41 38 37 39 40 41 43 43 45 45 45 45 45 45 45 44 45
60 54 49 56 49 47 48 44 44 36 32 30 19 26 32 28 27 28 28 23 26 30 28 28 26 29 40 39 40 39 40 41 43 42 43 44 44 46 46 47 46 46 46
55 55 50 55 51 49 47 50 44 44 37 37 32 32 33 37 36 29 29 26 29 30 31 28 27 23 25 41 38 39 41 44 44 44 46 46 47 48 48 48 47 46 46
54 53 53 54 52 46 52 50 47 41 38 38 36 36 38 35 36 35 31 30 36 31 27 30 34 35 32 27 36 42 47 53 52 52 51 50 49 50 50 50 48 48 46
60 54 59 58 57 48 48 50 48 44 40 40 39 39 40 40 33 30 41 36 38 34 33 32 34 33 34 33 38 38 56 55 56 56 54 52 52 53 52 52 51 50 49
60 53 55 57 60 48 48 48 42 42 41 42 41 38 43 37 36 36 35 37 39 37 38 34 32 34 36 36 41 51 60 62 60 58 58 57 57 57 56 55 53 52 51
60 54 54 58 62 51 51 50 49 47 43 43 45 44 46 42 42 37 32 27 29 28 29 31 33 35 36 39 39 52 55 56 58 56 55 55 56 56 56 56 56 55 54
63 58 51 55 56 51 52 48 49 52 56 62 47 41 40 36 31 36 38 36 34 31 28 34 38 36 37 38 39 53 48 52 56 54 53 53 54 55 56 57 57 57 56
75 73 66 59 54 52 48 50 70 64 59 56 51 40 35 34 34 34 37 37 37 29 30 33 34 35 32 38 40 50 47 51 52 55 56 54 56 58 59 60 60 59 57
76 70 67 63 55 54 59 71 67 66 56 53 48 45 37 38 38 36 37 40 46 39 32 35 30 35 35 34 42 53 38 55 48 50 55 57 58 59 60 61 61 60 58
75 69 66 66 65 51 58 77 72 77 65 62 68 59 50 40 41 38 38 40 55 67 43 32 31 32 35 35 39 37 39 47 51 53 54 58 61 61 61 62 61 60 60
72 70 71 62 56 67 75 81 70 75 73 71 68 66 50 42 41 41 41 43 41 45 49 34 30 32 34 29 35 36 37 45 50 52 49 56 61 62 61 62 61 60 60
75 74 67 58 63 77 80 80 85 77 70 80 71 59 53 46 42 42 44 43 42 41 43 36 30 31 37 40 36 35 35 34 28 48 49 52 56 60 63 63 62 62 62
79 70 67 72 79 80 81 84 80 82 81 75 66 55 50 36 46 48 44 50 48 44 42 44 36 33 35 36 38 39 31 23 26 39 47 50 56 56 60 63 65 66 65
80 75 78 75 74 77 84 88 83 85 82 70 62 55 48 47 48 48 50 54 46 37 40 40 39 34 33 32 35 35 34 31 23 36 49 54 47 53 59 61 63 65 65
75 76 76 81 86 86 76 79 85 82 75 65 60 56 50 49 50 50 47 56 50 46 43 40 38 36 34 33 33 34 32 25 27 21 36 48 52 51 58 58 57 57 61
66 68 78 87 84 81 84 85 83 83 80 76 65 52 50 56 67 62 43 45 50 50 46 41 39 38 36 35 33 32 32 29 31 31 31 31 32 33 35 46 48 54 57
69 74 70 75 83 80 94 97 94 86 77 61 52 48 45 58 67 81 81 78 61 53 53 51 51 50 42 37 34 36 31 34 39 32 35 38 33 34 33 36 56 56 58
82 84 87 88 89 88 97 97 95 64 54 50 49 46 41 33 58 53 77 82 79 76 74 53 61 53 47 39 38 39 36 39 40 36 38 42 39 42 35 29 58 59 61
86 88 90 85 79 72 85 86 86 54 51 48 47 45 45 44 45 51 54 51 49 48 58 55 52 45 40 39 41 38 42 47 42 36 35 53 42 46 42 40 54 58 58
88 77 63 59 57 52 76 81 76 55 51 51 44 43 43 45 56 76 59 57 51 55 63 68 71 72 65 64 59 48 56 55 65 41 37 43 45 47 44 46 44 58 62
52 46 47 50 61 55 68 81 74 59 61 58 52 46 66 58 67 81 62 64 70 55 56 54 50 58 67 58 74 56 49 60 58 57 38 47 40 43 56 47 46 47 51

GFSMA_sfc_rhum_054.txt.gz
RH
77 72 71 63 63 65 63 67 65 59 57 51 48 42 40 40 39 55 71 68 63 56 61 59 57 54 52 48 45 48 49 47 46 46 46 48 50 50 49 48 48 48 49
79 74 75 68 67 66 64 64 63 62 59 54 47 41 40 41 41 45 59 84 77 75 67 60 57 54 52 49 46 48 45 44 44 44 46 46 47 49 49 48 48 46 47
72 70 72 72 68 67 66 65 63 62 58 51 48 43 43 38 41 39 50 62 78 74 71 60 55 52 51 50 46 43 42 43 43 42 44 46 47 48 48 49 49 48 47
72 75 74 74 72 73 67 70 67 64 65 57 53 49 42 40 38 40 44 49 62 61 73 69 58 52 46 39 39 40 41 41 41 42 44 46 47 48 48 48 50 50 50
74 78 77 74 74 74 74 68 71 70 65 56 48 50 49 47 43 30 44 43 44 48 62 71 67 58 48 41 36 33 36 39 42 43 45 46 45 47 48 49 50 50 50
76 81 82 79 76 75 75 73 71 70 65 58 32 39 57 52 49 48 45 38 44 39 41 50 64 58 59 42 38 36 36 38 41 44 47 47 48 49 49 50 50 50 50
75 77 84 80 79 77 74 75 74 70 65 58 59 61 63 61 56 52 52 51 43 42 45 46 49 48 57 50 45 40 38 38 41 45 50 52 52 52 52 52 52 53 52
73 77 82 77 82 76 77 78 76 76 71 69 68 69 70 72 64 58 56 52 52 48 46 45 45 44 50 55 60 45 42 41 43 46 49 52 53 54 54 53 52 52 49
70 72 76 78 78 79 81 82 79 76 75 72 65 71 77 79 68 67 59 62 62 59 56 51 48 46 52 52 57 59 58 55 53 50 52 55 57 56 56 56 56 55 55
75 68 72 76 80 79 79 81 74 72 71 70 69 59 68 70 70 66 68 66 64 56 62 61 56 47 46 53 58 69 68 64 57 53 54 56 59 58 58 57 55 54 54
77 78 75 78 82 82 81 82 77 73 74 71 70 68 72 66 67 71 82 63 64 59 60 68 57 54 47 51 70 72 68 63 54 52 54 51 53 54 53 53 53 54 55
79 78 70 80 85 85 86 85 84 78 75 74 68 65 69 73 69 71 73 70 66 57 50 50 57 58 59 57 49 68 65 61 56 52 50 51 54 56 55 55 56 56 56
78 79 85 84 84 81 84 83 84 78 80 80 80 87 76 73 70 69 72 65 66 56 53 52 55 59 50 62 67 67 64 68 62 54 53 53 53 54 54 55 58 58 59
76 79 86 81 82 85 85 83 85 86 92 96 94 85 86 82 81 78 69 74 80 65 62 61 54 54 55 59 70 69 66 69 70 64 56 54 54 51 49 53 58 60 61
85 90 92 87 89 86 86 88 91 94 93 92 92 90 92 92 90 84 74 65 80 94 80 65 61 49 48 57 68 72 65 61 66 69 64 60 54 50 49 51 56 58 60
93 93 93 90 86 86 86 88 92 87 91 96 96 92 94 94 88 84 71 72 69 76 86 66 58 54 52 34 52 55 55 57 62 70 72 69 65 53 49 52 53 54 60
92 87 87 87 86 85 88 91 95 93 95 96 94 93 93 92 86 78 73 73 72 72 79 73 61 56 61 62 49 59 60 59 61 65 70 71 72 63 57 56 55 56 59
91 90 88 88 88 92 92 93 94 94 93 94 93 95 93 77 82 77 76 76 75 72 72 76 71 69 65 60 58 60 49 35 49 51 63 67 69 66 67 65 61 61 60
93 92 92 92 94 94 94 94 91 89 90 88 91 94 87 85 87 83 85 81 76 60 69 81 74 74 73 67 62 60 58 62 44 51 61 65 66 67 66 67 66 66 63
91 92 92 92 93 92 90 88 88 89 90 92 92 90 86 86 84 82 82 79 72 77 74 77 75 74 78 66 68 65 65 65 60 32 44 47 58 61 66 71 70 69 69
83 85 88 90 89 88 86 87 86 93 93 92 91 88 86 84 83 81 72 74 80 80 80 82 80 82 81 76 72 65 64 66 65 59 55 54 55 58 57 57 57 60 63
81 82 84 85 90 79 93 91 92 93 90 90 91 87 82 85 86 88 82 81 67 68 77 84 78 78 80 78 80 79 81 77 82 62 56 64 60 60 57 62 57 63 62
80 82 82 83 84 91 94 94 96 89 90 91 88 79 64 44 64 62 68 76 82 82 81 74 81 80 81 77 88 87 86 87 77 68 62 70 69 71 65 39 56 62 62
83 87 87 87 88 84 96 96 97 92 72 69 69 67 68 67 67 70 73 75 67 64 77 80 86 80 76 77 77 77 85 75 70 64 58 77 73 77 73 68 60 60 60
86 84 76 80 79 79 93 88 79 78 74 76 64 68 70 71 77 82 82 88 81 68 57 70 79 82 78 76 78 85 93 89 94 76 69 71 70 82 71 73 69 60 61
69 60 56 64 62 78 85 85 75 91 91 89 79 67 74 76 80 77 84 86 90 92 90 87 78 85 91 82 77 73 78 80 95 91 71 73 72 75 89 72 75 74 80

GFSMA_sfc_rhum_057.txt.gz
RH
81 75 75 72 70 71 62 69 69 62 58 53 51 44 40 46 56 62 74 69 68 68 60 59 57 54 52 50 49 51 49 46 46 47 48 48 49 51 50 50 50 49 49
82 74 81 67 72 72 67 73 68 65 61 53 45 42 43 45 61 66 79 80 70 68 69 61 58 56 53 49 50 48 45 44 45 45 45 46 48 50 51 51 52 52 51
78 78 86 84 75 73 69 71 69 68 68 54 46 44 42 45 44 60 69 81 85 80 75 69 59 53 50 50 51 45 42 43 42 42 43 45 47 48 50 51 51 52 52
76 79 83 82 75 78 76 76 73 69 68 59 56 51 51 47 41 43 64 72 78 75 77 73 65 58 54 48 45 41 40 40 40 42 43 45 45 46 48 49 50 50 51
79 80 84 79 81 86 79 71 74 71 74 70 56 57 53 54 44 36 50 66 72 77 76 74 71 67 58 50 45 38 32 34 38 40 44 46 45 46 48 49 49 49 49
80 86 88 87 91 82 80 80 74 78 76 65 38 46 57 58 55 53 50 46 47 67 72 74 79 69 66 48 41 38 37 37 37 41 45 49 51 52 50 50 50 50 50
82 87 90 91 92 81 80 80 80 77 76 69 62 64 68 64 57 56 56 52 49 45 55 63 64 60 63 58 46 43 42 40 39 41 44 47 51 52 52 52 52 50 51
76 87 92 94 92 85 85 84 80 82 75 72 65 71 70 75 71 60 62 55 53 52 49 50 49 53 57 60 61 51 47 43 42 44 47 50 51 54 53 53 52 53 53
80 82 90 91 85 85 89 87 83 78 79 80 68 67 78 83 81 74 66 60 55 64 60 55 52 47 52 66 66 64 62 57 52 50 49 51 52 55 56 54 54 54 53
82 79 82 90 87 84 91 88 82 84 79 73 78 62 67 67 69 67 69 68 63 60 64 66 59 58 53 60 68 73 72 69 59 55 54 50 52 52 53 54 53 53 54
79 78 79 87 89 86 92 89 89 85 77 79 74 74 77 76 67 71 77 67 68 63 66 67 70 62 51 58 82 77 75 73 64 60 54 50 47 50 53 55 55 55 54
84 84 86 90 93 92 91 92 92 89 91 91 89 85 80 80 85 93 80 71 72 62 63 67 74 64 59 65 67 77 78 75 68 60 56 50 50 52 53 54 54 54 56
93 88 88 93 95 95 92 89 92 91 92 85 84 93 95 95 88 80 83 82 82 64 60 58 58 61 56 71 72 78 77 75 71 63 57 54 54 54 51 51 51 53 56
83 86 92 93 92 91 93 92 94 96 94 93 96 96 92 92 92 91 89 90 92 80 70 61 60 61 67 70 81 80 73 76 75 72 63 58 57 55 53 50 48 49 52
93 94 95 95 96 96 94 93 95 96 96 96 96 96 96 97 95 92 93 90 88 93 89 71 67 58 62 72 77 79 77 75 76 75 73 67 59 57 54 51 48 48 49
96 98 98 97 96 92 90 92 94 94 95 98 97 95 95 95 95 94 92 92 85 83 85 80 73 67 60 46 63 77 68 70 76 76 72 72 71 64 57 53 50 51 49
96 97 95 92 92 92 92 94 94 95 95 97 96 95 94 93 95 93 91 87 79 80 76 85 78 68 64 62 60 78 70 71 68 77 77 77 78 75 72 65 58 55 53
97 95 95 95 92 92 92 94 94 92 94 96 94 94 91 85 93 88 86 85 80 78 80 85 85 80 72 68 70 70 57 46 57 62 72 74 74 75 72 70 69 68 62
97 95 93 92 93 94 94 93 93 95 94 90 91 92 92 92 92 92 90 89 86 74 82 84 80 86 76 82 76 71 66 69 50 57 68 71 72 76 75 74 73 72 69
95 94 94 95 95 94 93 92 92 92 91 90 93 94 91 90 90 89 87 87 83 86 85 86 82 81 87 73 81 70 73 83 67 43 51 54 64 64 73 75 76 75 73
94 92 94 94 94 92 90 91 89 92 94 94 94 92 91 90 91 90 84 93 94 94 95 94 86 86 93 91 87 79 87 83 70 71 64 56 52 59 63 58 63 70 71
88 88 90 91 92 86 94 92 93 94 93 93 94 92 93 91 92 92 92 93 92 94 92 88 82 80 79 92 92 91 92 89 85 79 76 63 60 66 62 65 60 66 68
92 93 94 94 94 94 93 94 95 91 92 95 95 96 91 67 81 81 83 83 85 85 93 84 82 80 83 83 89 94 95 94 88 87 70 72 74 70 66 46 63 67 68
92 94 92 91 91 88 95 96 99 95 93 83 82 83 86 83 84 80 82 83 81 82 81 78 82 82 81 81 90 81 84 87 84 74 67 81 77 74 76 77 68 67 63
89 88 86 94 92 94 97 97 88 89 88 88 72 76 74 80 79 72 74 76 70 64 52 63 71 78 83 86 86 88 94 94 93 80 78 74 79 80 78 78 73 62 65
84 83 79 82 85 86 82 85 82 91 83 82 78 74 75 74 77 74 78 86 91 82 79 78 78 80 78 78 88 90 83 88 95 98 84 80 79 84 88 80 72 77 76

GFSMA_sfc_rhum_060.txt.gz
RH
77 79 78 79 73 71 67 68 75 63 56 54 47 45 50 52 49 60 76 76 76 66 59 58 59 57 54 51 52 54 49 47 46 47 48 49 50 51 53 53 53 53 52
74 75 78 72 74 74 68 74 70 64 59 48 46 45 50 56 63 60 70 80 76 76 67 61 60 57 53 50 54 50 46 44 44 43 44 46 48 50 51 52 52 52 52
72 80 77 82 77 76 73 78 72 68 65 52 45 45 47 56 68 59 70 80 81 79 78 72 62 60 57 54 54 49 43 42 40 40 41 44 46 47 48 50 51 52 52
74 82 93 93 83 81 81 78 77 76 70 62 54 52 50 51 55 62 69 81 87 83 81 76 71 61 57 55 53 47 43 39 36 39 40 43 44 44 47 49 50 50 50
83 86 88 86 86 90 84 74 78 74 75 70 58 57 56 54 48 50 66 74 82 84 84 77 74 72 64 53 47 45 38 34 36 38 42 45 47 48 50 51 50 49 50
84 88 90 88 92 92 85 80 76 80 77 76 48 50 59 60 56 57 65 66 75 80 81 81 85 79 72 57 48 43 38 39 37 39 42 47 51 52 53 53 52 52 51
82 88 91 91 94 90 83 80 80 79 84 75 64 66 67 69 65 61 62 66 58 73 81 81 84 74 69 68 51 45 44 44 41 41 42 44 48 50 51 52 52 51 52
82 88 92 93 95 95 88 89 83 88 84 78 70 72 65 64 71 66 65 60 62 60 69 65 67 60 60 75 65 51 49 48 46 45 48 50 48 49 51 53 53 52 53
79 81 89 91 94 89 85 91 86 81 81 85 71 69 84 78 81 78 73 69 63 66 59 54 54 54 59 64 65 70 69 62 51 54 54 53 51 48 50 51 54 54 54
82 79 81 90 92 89 87 86 85 83 78 73 80 72 73 69 75 68 67 66 63 58 64 62 56 57 56 67 65 74 78 72 64 56 56 55 52 49 48 49 52 54 54
85 84 82 93 93 90 89 92 94 88 81 81 86 83 85 80 72 74 73 78 80 67 63 61 66 68 60 64 76 82 78 75 71 60 58 58 54 50 48 51 53 54 55
82 84 83 89 92 90 93 93 93 91 91 90 92 92 93 84 88 91 96 88 76 70 65 65 69 71 67 72 67 76 79 77 75 67 63 59 56 53 52 52 52 53 52
82 82 87 88 91 92 93 95 95 96 95 95 95 97 92 92 91 88 87 89 84 68 61 62 61 68 60 68 72 78 81 79 78 74 67 61 58 55 55 53 52 51 50
74 81 90 90 95 97 97 97 96 97 96 98 98 98 97 94 94 92 93 92 93 90 79 70 66 65 62 66 76 84 84 84 81 77 73 69 61 59 58 54 53 52 48
90 94 94 93 97 96 98 96 98 97 95 96 97 95 97 97 96 94 91 89 92 98 86 74 70 63 65 69 79 88 90 83 82 78 77 74 69 63 60 58 57 53 50
92 95 97 96 98 97 97 97 97 96 96 97 97 96 96 96 96 96 96 95 94 94 97 75 74 73 67 53 68 92 89 78 82 80 79 76 73 71 68 64 60 54 52
97 98 98 98 98 98 96 96 97 96 97 98 96 95 95 95 97 96 95 96 96 92 97 82 76 77 73 69 62 79 80 78 78 83 82 77 75 74 72 72 70 64 57
98 97 98 96 95 95 95 95 97 96 96 97 96 96 94 89 94 93 94 93 92 87 87 91 82 81 80 73 69 72 62 57 66 68 80 75 75 76 77 77 74 72 68
98 98 97 97 97 96 96 95 94 95 95 94 94 93 92 94 96 93 93 95 94 83 89 91 89 80 86 89 85 83 76 74 66 65 72 81 79 78 80 76 74 75 73
98 98 97 96 96 94 93 93 93 95 95 93 92 91 91 94 94 92 92 94 88 90 93 96 96 95 95 91 90 85 82 90 76 59 65 66 75 76 76 78 79 78 76
95 94 96 97 96 94 93 94 93 94 92 94 94 92 93 92 92 95 96 94 97 98 98 98 97 96 94 94 93 86 90 78 86 84 82 74 69 71 75 74 72 78 79
95 93 95 95 97 92 98 95 92 92 90 93 96 93 92 93 93 86 83 82 90 98 96 97 92 88 93 90 91 85 83 94 93 86 88 80 76 67 65 62 62 67 68
93 96 95 93 94 96 95 93 95 96 94 94 94 94 78 69 87 84 82 80 82 79 93 94 91 87 91 84 91 98 96 95 88 82 86 90 84 80 63 48 67 71 71
92 93 92 93 94 93 95 98 98 96 93 91 89 85 83 87 84 76 77 74 72 71 67 59 77 77 78 75 82 82 86 92 96 89 85 95 86 73 72 69 65 68 76
94 94 94 95 96 99 97 98 92 93 86 79 74 75 77 78 72 70 79 86 87 82 68 71 74 77 80 81 81 89 83 86 88 88 90 82 86 84 80 78 75 67 71
90 91 96 97 96 89 91 90 85 87 81 80 76 72 71 75 69 69 88 94 95 88 88 88 88 88 83 84 82 87 89 93 93 90 89 82 81 84 95 82 78 77 75

GFSMA_sfc_rhum_063.txt.gz
RH
82 80 77 78 77 71 70 71 69 60 56 49 52 52 52 56 67 81 94 81 75 66 61 61 60 58 58 56 56 53 51 48 47 47 49 50 53 54 55 55 54 54 54
78 73 74 73 76 68 70 78 70 63 60 52 51 52 53 50 52 64 78 88 81 74 65 59 60 58 55 55 56 53 48 46 44 44 44 49 50 52 52 52 53 53 54
73 72 70 76 74 73 70 80 74 70 61 49 47 53 58 65 57 54 65 78 85 84 78 71 64 61 57 55 58 52 46 43 41 40 42 46 47 48 49 50 52 52 52
74 75 85 87 78 82 79 83 81 77 70 60 55 54 54 63 63 57 65 72 82 84 86 80 74 66 62 57 57 53 48 44 37 39 42 44 44 44 47 49 51 51 51
82 80 85 85 84 90 88 82 84 79 78 72 59 59 57 56 59 56 64 74 85 90 93 84 80 74 70 59 51 49 48 37 38 40 44 46 47 50 52 52 53 52 52
83 89 91 91 93 94 91 88 81 83 79 75 50 53 58 60 59 66 69 66 81 88 88 88 88 84 75 64 50 48 46 40 40 42 45 46 49 49 48 49 51 52 52
87 91 94 93 95 95 89 86 85 83 87 82 67 67 68 66 65 63 66 78 77 80 89 88 91 87 84 73 56 50 47 44 44 44 45 48 50 48 47 48 50 51 52
84 90 92 93 94 94 91 88 84 90 89 82 75 74 69 70 79 70 68 68 79 72 82 82 86 81 72 79 77 57 49 47 48 48 49 52 53 50 48 47 49 50 52
83 86 90 92 94 94 91 93 89 90 91 93 73 69 80 79 84 81 78 71 62 67 71 75 75 71 64 59 71 73 70 69 54 50 54 56 55 53 48 46 46 48 51
82 84 87 93 95 95 95 93 90 88 91 89 88 69 70 70 71 72 76 69 69 59 61 62 64 57 54 59 63 73 76 78 70 55 57 57 58 55 52 48 47 50 52
88 89 90 93 94 96 94 94 95 94 92 94 92 87 88 92 86 78 76 77 85 75 68 64 59 61 55 59 64 71 78 80 74 66 59 58 59 57 54 52 52 52 52
87 92 93 94 94 93 94 94 92 93 93 91 95 94 92 95 95 94 93 91 87 74 72 78 72 66 68 66 61 70 81 82 76 72 66 60 61 60 57 54 54 54 52
86 86 94 92 93 93 92 94 96 96 97 95 93 90 95 93 92 92 95 93 92 83 69 66 68 70 67 70 67 75 81 86 80 76 72 69 66 62 59 57 56 55 53
71 81 92 92 92 93 96 98 99 99 98 96 94 95 96 96 95 93 91 93 96 91 84 72 69 70 63 66 72 76 76 86 82 80 76 75 74 70 65 60 58 56 55
81 90 93 93 93 93 95 98 98 98 98 97 97 98 97 97 96 95 91 87 93 99 95 84 75 64 66 74 73 80 88 85 87 84 81 79 77 74 73 68 63 59 57
93 96 96 94 94 95 97 97 98 98 97 98 99 98 97 98 96 96 96 96 95 96 99 82 73 67 65 63 68 82 90 86 87 89 86 83 80 76 75 73 71 66 60
97 98 97 97 97 98 99 99 98 98 97 98 98 96 97 95 98 97 96 95 97 98 99 92 81 76 72 68 70 76 87 94 94 85 88 87 84 80 76 74 74 73 70
98 98 98 98 98 98 98 98 98 97 97 98 97 96 97 92 95 95 95 95 96 95 97 98 88 82 78 82 82 84 71 65 79 73 81 84 85 83 80 78 77 78 72
96 99 99 99 99 98 98 97 96 97 96 95 95 95 96 95 97 96 94 94 94 89 94 97 96 92 94 93 92 91 89 85 75 71 76 78 81 84 84 81 78 76 78
96 96 97 98 98 98 96 95 95 96 96 96 95 93 92 92 93 94 93 95 94 91 92 98 94 89 95 91 96 97 92 88 86 69 70 71 73 75 83 82 80 80 82
98 98 99 99 98 97 96 95 94 96 96 96 94 92 94 93 94 96 95 97 97 99 99 99 96 94 90 85 96 93 92 85 81 92 82 77 80 76 77 79 82 82 82
98 98 98 98 98 97 99 97 95 94 92 92 96 97 90 85 85 84 82 81 87 92 92 96 96 94 92 95 95 96 87 83 80 79 90 82 85 74 73 89 77 80 83
98 99 98 97 98 98 98 97 95 89 91 95 95 88 72 72 83 79 68 62 62 62 86 89 93 93 92 86 91 92 88 88 86 71 77 80 92 88 78 70 84 80 74
98 98 98 97 97 96 97 97 97 91 88 86 86 80 88 85 79 75 74 74 78 79 76 72 80 82 85 84 91 86 89 88 79 69 79 88 76 91 87 83 77 76 73
96 95 94 93 94 97 99 95 87 89 80 80 77 76 74 79 70 67 78 86 86 81 70 68 68 72 76 79 79 88 85 88 90 79 78 88 80 88 90 81 74 72 75
92 92 95 95 97 97 95 90 86 84 82 80 71 70 73 73 68 72 90 92 93 83 81 78 77 78 72 84 81 86 89 89 86 87 77 97 79 86 95 94 88 80 85

GFSMA_sfc_rhum_066.txt.gz
RH
90 88 84 80 75 75 70 73 61 54 55 60 64 68 76 84 90 92 93 80 75 67 63 60 61 61 60 58 55 54 51 50 50 51 52 54 55 56 56 55 55 55 55
83 78 76 73 74 72 76 68 59 56 59 56 56 55 58 66 78 88 90 89 80 75 67 62 60 60 58 57 57 54 50 49 47 46 50 52 52 53 53 53 53 53 52
82 77 77 75 72 72 77 73 70 67 60 52 56 59 56 55 57 68 80 86 85 83 75 70 63 60 57 57 57 53 50 47 44 43 48 49 49 50 50 50 50 50 50
77 77 86 86 76 73 79 77 76 72 63 57 58 62 62 69 60 56 64 75 83 82 85 79 74 66 62 59 60 56 50 47 40 42 46 48 46 46 48 49 51 51 50
82 76 76 81 78 87 81 82 85 78 72 66 58 60 60 65 68 53 61 65 78 85 88 87 82 79 74 65 58 56 52 48 40 42 47 48 49 52 52 50 49 50 51
81 86 86 86 87 91 88 88 84 83 78 72 51 53 61 62 62 71 67 63 75 82 88 90 92 86 80 71 59 49 48 46 42 44 48 49 52 54 50 46 46 47 48
82 86 89 91 92 90 89 88 87 84 84 78 70 69 68 66 66 66 67 74 74 80 89 90 90 84 82 78 64 50 48 48 46 47 50 51 53 53 50 48 46 47 48
86 90 91 92 95 97 94 92 87 90 87 81 78 74 73 70 75 69 69 66 80 78 82 86 86 86 82 82 81 59 52 50 48 50 51 53 54 55 53 49 47 46 46
87 88 93 95 96 95 94 94 89 87 91 92 78 76 78 81 79 78 76 70 70 77 71 79 79 79 78 73 72 76 75 71 57 50 53 54 57 57 56 52 49 46 47
82 83 88 93 95 96 95 91 92 90 91 93 92 83 80 76 76 75 74 72 66 63 67 67 67 69 69 67 65 71 78 79 75 60 53 55 59 60 59 55 51 50 50
82 83 86 92 95 96 95 96 96 94 92 94 94 90 88 90 86 84 87 79 84 74 64 62 65 68 61 63 65 65 78 81 79 72 60 55 58 61 61 59 55 53 53
83 89 90 93 94 96 96 95 95 96 96 95 96 94 90 90 89 94 94 92 86 82 76 78 80 75 72 68 60 67 73 80 82 76 72 65 60 58 61 61 59 56 56
88 91 93 96 96 95 96 96 97 98 98 98 96 96 93 89 93 91 94 95 93 86 74 73 78 77 68 74 70 71 74 82 83 80 75 72 69 64 63 62 61 59 57
80 78 91 95 95 95 96 98 98 98 98 99 98 98 97 92 92 94 95 96 97 91 81 74 72 70 67 68 72 75 75 83 87 86 81 76 75 71 71 70 66 61 58
89 88 90 92 94 95 97 96 97 98 99 98 97 97 96 95 97 96 94 90 93 98 94 85 79 69 70 70 72 74 79 80 85 89 88 85 80 78 76 74 72 69 64
92 91 92 93 94 95 96 96 96 96 98 99 98 98 97 98 97 97 95 93 91 92 97 86 76 72 68 62 68 74 75 76 86 89 90 90 87 82 79 78 77 74 73
90 89 88 91 94 95 98 97 96 99 99 99 99 98 98 96 97 96 96 94 94 94 98 92 85 79 76 76 72 72 72 80 82 87 89 89 90 88 85 82 80 77 76
82 86 88 92 96 98 98 98 99 99 98 99 99 98 98 94 97 96 96 95 94 95 96 98 91 85 81 81 81 86 77 70 78 78 84 86 86 87 88 87 85 82 79
80 86 91 96 97 98 98 99 98 98 98 97 97 96 97 95 98 96 94 95 93 87 95 98 96 90 89 87 86 87 86 88 77 75 81 83 83 82 82 84 86 85 84
89 92 94 95 97 98 98 98 99 99 98 97 96 95 95 93 94 95 93 94 93 95 92 93 90 88 90 83 90 92 86 85 83 66 69 74 77 76 78 78 79 82 84
92 94 96 98 99 99 98 98 98 98 98 98 97 95 95 94 95 94 94 97 96 97 96 91 90 94 92 89 85 91 81 72 69 64 64 75 75 76 73 75 72 76 81
94 98 99 98 99 99 100 100 97 98 96 96 98 96 93 90 89 88 86 85 83 85 85 87 88 77 74 86 87 85 84 82 77 73 78 72 70 67 64 65 73 77 78
99 99 99 98 99 99 100 100 98 94 95 96 94 86 77 78 80 67 66 64 66 68 82 76 76 79 84 75 84 89 89 89 85 73 76 81 71 75 68 61 74 78 79
98 98 98 98 98 98 99 98 97 93 93 91 86 84 77 72 71 66 64 72 75 73 76 73 80 82 83 83 86 81 83 80 75 67 71 86 69 74 70 70 75 80 81
98 99 98 98 98 98 97 94 88 84 80 77 74 72 70 70 69 66 74 76 76 77 59 60 61 62 65 67 72 86 87 88 87 68 65 79 73 78 76 72 69 76 78
97 95 97 96 98 97 95 90 80 80 77 74 68 69 73 73 73 81 86 82 77 73 68 61 62 66 65 68 70 66 76 89 87 80 71 78 66 70 82 65 80 80 82

GFSMA_sfc_rhum_069.txt.gz
RH
69 57 62 55 50 53 56 55 55 54 56 57 56 58 59 60 60 52 51 78 74 66 62 62 62 60 60 59 56 53 52 51 52 54 56 56 57 56 56 56 56 55 54
67 57 56 52 50 47 49 48 50 48 47 50 57 58 59 59 60 61 52 56 79 74 66 61 61 61 60 57 55 52 50 48 48 51 54 54 56 55 54 54 52 51 51
68 60 54 55 56 53 51 49 49 46 43 40 45 49 52 58 59 62 58 54 58 82 76 70 63 61 59 58 58 54 51 48 45 48 52 52 53 54 53 51 50 48 48
68 63 56 56 60 58 50 48 48 44 43 40 42 40 39 42 51 60 59 60 56 51 73 78 73 67 61 59 60 56 53 50 44 46 50 51 51 51 52 51 49 48 48
68 61 58 60 66 66 61 55 54 49 48 44 42 46 45 44 45 34 46 63 65 60 51 76 81 78 74 64 62 61 56 53 46 46 50 50 50 51 54 52 47 46 47
66 71 69 69 68 70 65 63 64 60 51 47 35 40 46 46 47 46 42 39 43 59 62 61 60 61 83 76 65 59 56 54 48 48 52 53 53 56 55 50 46 46 46
69 74 75 74 76 72 70 72 70 74 64 60 55 52 49 50 48 42 46 43 46 47 53 58 61 56 60 82 72 59 50 51 51 49 52 55 54 56 54 52 50 47 47
69 73 77 73 72 80 82 83 82 77 79 71 65 58 61 55 50 47 43 45 53 46 49 58 78 65 70 69 68 69 55 52 52 51 53 56 57 58 57 54 52 50 48
76 77 82 79 83 84 86 89 88 79 76 78 70 63 66 65 56 52 57 48 53 59 69 66 74 78 75 66 77 75 79 74 63 52 53 56 58 59 60 58 55 52 49
86 80 81 87 91 88 88 91 87 79 76 78 75 66 66 58 61 63 51 56 67 53 62 56 62 69 75 69 71 74 79 82 78 65 55 52 56 60 61 60 59 56 53
87 83 80 90 86 91 90 84 86 83 81 77 77 73 73 72 66 62 69 72 67 56 58 66 50 55 69 71 74 73 77 80 78 72 64 57 53 55 63 63 62 60 57
79 81 77 77 80 76 81 83 83 82 82 82 78 80 75 74 76 84 86 82 76 72 76 66 67 53 69 68 65 71 78 80 80 77 70 65 61 56 56 63 69 66 63
68 71 74 75 75 76 76 77 81 83 83 85 85 86 87 86 92 85 90 89 90 87 85 76 59 54 52 60 65 70 74 81 82 79 76 73 70 67 64 59 60 62 64
59 63 70 68 69 70 74 76 80 82 84 90 86 90 96 95 95 89 92 92 98 93 87 80 56 56 55 60 71 75 62 81 86 85 84 84 82 79 75 66 69 66 59
66 66 68 70 71 72 73 76 80 82 86 86 90 97 94 88 89 93 90 91 93 99 94 68 63 60 63 61 65 57 58 71 82 85 86 86 84 80 81 79 79 76 72
68 67 67 68 66 68 72 75 79 79 85 88 90 96 90 88 91 94 91 90 88 92 95 66 62 59 61 57 65 69 60 71 78 84 87 86 87 85 84 84 83 80 79
75 75 70 68 66 68 72 77 78 80 89 89 98 97 94 91 95 96 93 92 88 78 89 85 76 75 71 62 65 63 60 61 57 78 83 85 87 88 88 88 87 85 83
74 73 74 72 68 70 77 87 95 97 98 98 98 99 97 97 98 96 93 93 92 91 82 87 85 66 71 74 71 69 58 50 53 64 80 83 84 85 86 86 86 85 85
70 76 78 78 79 84 91 96 96 98 98 98 98 98 96 97 97 96 94 95 90 85 84 83 90 78 75 71 63 59 59 57 46 60 69 78 80 81 82 79 80 78 79
71 70 77 78 78 81 90 93 97 98 98 97 98 97 96 95 96 95 92 90 84 88 90 91 86 78 72 57 61 59 52 44 39 30 43 54 67 68 75 75 75 74 74
68 69 78 84 86 94 98 98 98 98 98 98 98 96 94 92 94 92 88 91 89 87 91 90 76 76 67 53 49 44 45 40 41 41 42 41 40 40 43 52 52 60 66
73 76 89 90 99 98 100 100 99 97 98 96 98 98 96 96 96 96 94 91 87 86 84 74 68 58 48 45 43 48 49 46 39 44 49 46 39 41 42 42 57 69 74
81 86 93 96 98 98 100 100 100 96 96 95 97 94 87 87 85 72 75 73 72 71 77 53 48 45 46 46 54 56 53 56 50 43 46 48 44 47 39 34 60 69 74
94 98 98 99 98 99 100 100 100 96 96 94 90 88 88 80 70 61 58 59 58 57 55 47 50 49 53 54 59 57 60 58 47 40 42 55 41 47 45 44 59 66 72
99 99 98 98 98 98 99 98 94 92 92 91 84 80 75 72 76 64 57 58 54 55 59 60 58 59 60 63 63 56 54 51 62 37 38 49 44 45 45 48 44 63 72
98 98 98 97 98 97 96 92 88 88 88 86 83 77 75 67 77 72 55 50 51 50 47 41 44 50 52 50 60 46 46 62 58 51 39 54 40 47 60 42 45 50 57

GFSMA_sfc_rhum_072.txt.gz
RH
57 55 54 48 46 45 46 43 41 41 42 40 40 42 42 42 43 36 44 78 74 67 63 62 62 61 60 58 56 54 54 55 56 58 58 59 57 57 56 56 55 54 53
60 50 55 47 46 44 43 39 38 37 36 36 40 40 42 43 44 44 40 52 77 73 68 63 62 61 60 58 55 53 51 52 54 56 57 57 56 55 54 53 52 50 50
56 56 48 44 41 40 43 39 40 35 34 33 38 40 40 44 42 46 41 42 54 81 75 71 66 63 61 58 57 54 52 50 50 53 55 56 55 54 53 51 49 47 46
58 57 45 41 39 42 39 38 37 37 34 32 36 36 35 39 43 45 42 42 41 41 72 77 74 70 64 61 61 57 55 52 49 50 54 54 54 54 54 52 50 47 47
55 44 41 43 49 39 38 39 39 39 38 34 32 31 33 32 40 36 41 47 47 43 40 77 82 78 73 65 62 61 58 55 50 49 52 54 53 53 55 55 51 47 46
57 44 43 54 53 45 46 44 48 42 41 39 29 35 38 36 34 32 34 35 41 47 44 44 54 57 82 74 66 64 62 59 56 50 52 55 54 54 56 56 52 49 48
50 50 43 54 58 54 53 57 55 59 50 47 43 44 43 43 42 36 36 33 33 36 44 44 44 42 56 81 77 67 61 58 58 55 53 56 57 58 59 56 53 52 49
50 59 67 66 64 58 59 64 68 68 62 68 57 52 58 51 43 42 37 37 42 34 35 41 56 48 46 44 65 76 66 56 53 56 55 56 59 59 60 59 56 54 50
57 64 77 73 77 65 61 69 70 68 67 69 64 60 60 56 56 45 50 41 44 44 40 52 52 59 61 54 68 69 83 78 66 55 56 62 59 61 61 62 60 58 54
74 69 77 78 79 72 65 72 77 65 63 75 67 62 58 54 54 62 48 50 48 47 63 44 41 52 52 62 63 72 82 83 80 69 62 58 56 61 63 63 64 62 60
87 73 80 82 81 77 80 77 79 71 62 67 68 62 64 61 60 59 57 55 48 45 56 73 59 57 54 52 52 65 83 82 81 75 66 61 58 56 56 60 67 67 65
91 88 74 74 71 81 72 72 80 77 73 68 59 64 62 60 60 62 66 65 78 65 62 77 75 55 59 49 53 75 83 85 84 79 72 65 62 60 59 58 57 73 76
82 79 80 80 70 64 80 74 69 74 62 66 68 62 63 64 62 67 78 88 89 92 93 90 80 61 50 57 46 70 78 82 83 80 75 73 70 67 64 60 58 58 60
64 65 72 74 70 67 73 72 69 59 64 67 69 68 61 63 66 73 80 92 98 94 85 81 72 55 62 51 61 78 54 82 85 84 82 80 78 77 77 74 71 69 65
54 64 65 68 67 63 61 66 60 60 61 64 66 67 66 68 73 79 84 84 91 98 95 75 65 56 65 53 59 55 53 73 79 84 83 81 79 78 78 77 76 74 71
55 58 60 61 58 55 54 56 55 54 57 60 58 64 68 72 80 82 82 90 86 94 96 64 73 75 58 52 60 60 56 67 71 79 83 82 83 81 81 80 79 78 76
58 57 58 57 51 51 51 54 55 55 56 59 62 71 79 80 93 92 91 91 93 93 93 86 68 66 67 63 59 56 56 57 55 82 81 82 84 85 85 85 84 81 78
60 57 55 52 51 50 55 56 58 56 58 61 68 83 94 96 97 97 97 96 96 92 87 89 82 72 72 65 61 64 61 43 44 65 75 77 79 81 82 82 84 84 82
58 57 55 56 55 58 57 58 58 61 63 76 86 96 96 97 98 98 98 98 96 92 85 86 86 71 64 70 68 67 56 52 39 58 66 72 73 74 78 78 76 77 79
55 55 56 57 60 59 61 62 82 86 90 88 92 94 96 97 95 97 97 95 93 91 86 76 71 78 70 71 64 53 48 41 35 20 36 48 55 53 64 71 75 68 68
57 55 58 59 62 73 77 79 72 78 91 96 98 98 97 95 97 94 92 90 89 90 89 76 80 75 76 70 62 40 40 34 32 31 30 33 31 30 34 53 52 62 67
60 59 60 59 62 65 86 98 84 92 97 98 98 98 98 98 98 97 96 93 88 88 86 86 80 80 68 53 43 40 36 36 35 27 41 37 33 33 31 32 53 62 64
63 65 61 59 64 68 100 100 100 92 96 97 98 97 96 95 93 89 90 86 83 82 84 72 70 61 52 43 39 42 42 42 40 34 37 41 38 38 30 24 57 64 66
65 68 70 69 78 92 100 100 100 99 99 98 97 94 93 89 82 77 73 70 66 57 50 40 47 45 43 38 42 40 46 47 42 35 33 46 36 37 37 32 50 56 61
81 88 91 97 98 98 100 100 98 96 96 95 91 89 87 88 90 82 78 79 69 61 61 63 64 64 63 63 58 43 48 44 57 34 31 37 39 37 33 37 36 55 68
97 98 98 97 99 98 99 98 93 93 96 95 93 93 92 90 97 81 72 68 64 52 42 41 43 53 51 53 61 45 36 49 48 45 30 43 36 33 46 36 39 44 46

GFSMA_sfc_rhum_075.txt.gz
RH
73 73 66 54 45 43 44 43 38 38 39 39 40 41 38 37 38 40 49 78 75 67 62 62 62 62 61 60 59 58 58 59 59 59 60 59 57 57 56 55 54 53 53
70 64 64 54 47 44 40 38 39 38 36 37 40 40 39 40 38 42 46 56 78 74 68 62 62 62 60 58 56 55 55 56 57 58 59 59 58 56 55 53 51 50 49
65 63 57 49 46 45 46 41 40 35 33 32 38 38 38 41 40 41 44 49 58 80 77 71 66 63 61 59 57 55 53 54 55 57 58 59 57 56 55 52 50 47 46
60 61 52 50 46 51 42 38 36 34 34 34 37 36 36 38 42 43 41 45 48 46 72 78 74 71 65 61 60 57 55 53 53 55 58 58 58 57 56 55 52 49 47
60 52 48 47 58 51 46 40 40 37 37 36 34 34 35 36 42 38 41 45 50 45 48 74 80 79 75 69 64 62 58 56 53 52 56 57 57 57 57 56 55 51 49
57 52 47 59 55 46 44 40 46 40 39 36 26 31 36 35 37 40 42 40 42 46 45 56 61 59 82 75 69 65 63 61 58 54 54 56 57 57 57 57 56 52 51
51 53 45 52 51 43 44 51 47 52 45 42 40 44 45 48 45 37 37 38 42 44 49 44 55 52 59 79 75 67 65 65 65 62 57 56 59 59 58 59 58 55 54
53 52 54 56 54 48 57 60 60 56 53 54 49 52 60 55 51 47 42 42 48 38 40 44 48 50 54 59 66 76 69 66 61 62 63 58 60 61 61 62 61 58 57
62 48 52 59 65 64 64 68 66 64 74 64 67 75 80 72 71 50 55 48 52 48 42 42 46 49 52 55 69 72 81 81 74 62 63 68 64 62 63 63 64 63 61
74 51 57 66 73 65 73 67 64 66 76 84 65 58 66 68 78 81 57 56 51 49 55 48 44 53 48 52 60 69 83 87 83 75 65 63 63 64 64 65 65 66 69
81 65 67 78 81 73 83 79 77 70 75 81 83 76 59 62 66 73 55 58 54 49 47 54 53 56 63 66 62 64 80 89 86 81 74 66 61 60 60 62 64 67 72
92 80 71 75 82 83 83 77 72 77 79 76 75 72 68 67 62 65 66 63 72 62 50 55 72 72 83 67 61 69 84 84 86 83 79 73 68 64 60 59 59 58 60
89 88 77 74 73 74 73 72 74 76 79 82 70 62 59 59 60 62 71 68 71 70 72 74 81 86 82 71 61 69 84 88 88 85 83 78 72 69 66 64 62 61 60
76 79 82 75 70 72 68 71 71 72 78 76 72 68 56 60 62 64 65 69 84 81 81 78 75 73 71 72 60 80 65 83 86 84 80 80 80 78 76 73 71 70 68
58 69 74 75 73 71 68 68 76 73 73 74 76 72 66 64 66 64 65 73 82 87 76 69 74 68 62 57 67 60 60 80 82 84 82 82 80 77 76 74 73 72 71
66 71 72 69 68 67 65 64 63 64 74 78 70 71 70 66 66 70 72 79 77 86 90 65 70 71 61 51 65 64 59 73 79 79 80 80 81 80 79 79 77 76 74
64 63 66 63 60 60 60 62 61 61 64 67 67 65 66 64 70 72 84 84 87 91 98 94 91 87 76 67 60 62 64 60 60 79 83 81 81 80 81 81 80 77 74
60 58 58 60 58 57 59 62 63 58 62 60 59 62 63 64 73 78 90 95 94 97 97 96 96 94 87 73 70 73 57 49 51 74 84 77 75 75 74 77 76 79 80
58 58 56 59 58 59 58 59 58 58 57 57 59 62 62 67 81 94 96 97 95 97 97 97 95 90 90 82 77 70 71 69 52 74 77 74 73 71 69 73 76 75 74
58 58 59 58 58 55 53 52 52 57 59 58 62 66 66 82 94 95 98 98 97 98 98 97 95 91 86 80 78 72 70 65 57 34 38 39 53 62 67 66 69 71 73
56 56 58 60 60 58 54 58 57 62 66 67 79 88 90 92 98 95 95 96 97 96 97 95 98 93 90 85 81 69 67 60 53 39 32 33 33 37 41 64 62 70 76
57 57 58 58 61 54 70 82 78 76 85 86 86 79 86 99 99 100 100 100 95 96 97 96 93 93 88 78 73 65 55 54 48 35 39 38 36 38 37 37 53 62 59
62 63 60 59 60 60 82 91 94 75 81 81 85 95 99 99 100 99 98 96 97 96 96 92 93 93 89 72 62 60 60 58 45 38 38 48 45 46 40 27 58 63 64
65 66 66 64 63 60 92 99 99 78 78 92 98 98 99 99 98 96 92 90 91 92 90 74 86 86 85 59 49 50 51 44 44 39 40 55 47 50 44 38 56 60 63
66 68 67 68 69 70 100 100 99 99 99 99 97 96 95 95 95 91 91 97 98 98 96 94 87 76 70 65 59 43 53 51 66 41 41 46 45 49 49 48 42 56 61
68 80 93 97 100 99 100 100 99 98 98 98 98 98 97 95 99 92 91 91 92 80 64 64 59 49 47 56 53 44 38 49 48 49 42 46 42 42 48 46 50 52 53

GFSMA_sfc_rhum_081.txt.gz
RH
95 93 91 82 77 78 75 72 74 59 60 58 59 60 62 69 69 74 77 81 77 69 65 65 66 66 66 66 65 65 65 64 63 62 61 62 62 61 60 59 58 59 60
94 89 78 69 71 69 62 64 67 63 63 61 64 63 62 68 70 78 82 81 80 76 70 65 65 65 64 64 65 64 63 64 61 63 61 60 59 58 57 56 56 55 54
94 79 67 69 65 70 57 60 66 68 68 62 62 66 62 67 71 77 83 89 81 82 79 72 68 65 65 64 63 63 64 63 62 62 61 60 59 59 57 55 53 51 50
88 80 59 66 63 72 58 67 64 66 69 67 70 71 68 66 70 73 76 81 89 78 82 80 75 72 67 63 61 61 61 61 62 62 62 62 61 60 59 57 55 52 50
90 82 67 72 69 70 66 65 63 62 66 72 68 71 71 71 71 65 72 76 84 84 85 83 82 80 75 68 62 60 59 60 60 61 62 63 63 62 60 59 58 56 54
80 81 86 91 82 84 75 65 60 68 64 63 47 58 72 74 70 73 73 69 75 75 76 75 81 77 83 76 71 65 63 61 59 60 62 64 64 64 63 62 61 60 58
78 73 85 91 91 83 68 62 69 64 66 65 66 69 64 70 75 78 77 70 73 70 75 73 78 77 77 81 77 69 67 65 64 62 61 62 64 65 64 64 64 63 62
72 73 81 87 81 73 73 72 65 76 67 72 69 74 73 69 72 70 70 74 73 67 69 69 74 75 76 77 78 78 71 68 67 66 65 68 69 69 66 65 65 64 64
74 68 75 76 72 72 67 70 68 70 77 78 60 86 94 86 86 80 78 74 72 78 74 71 70 71 73 76 79 81 83 81 76 73 73 74 72 71 68 67 66 66 66
79 66 76 70 76 74 67 69 67 61 85 84 87 84 89 88 93 94 91 83 77 69 73 77 76 73 70 73 77 80 85 88 84 80 76 76 77 74 72 72 71 69 68
86 77 79 84 77 86 86 80 79 83 90 86 83 93 92 96 94 92 96 93 87 80 76 68 69 72 72 78 80 79 87 89 87 82 81 79 80 77 78 74 74 74 72
95 90 78 79 76 89 92 88 91 89 88 89 88 87 86 88 92 92 91 90 91 83 69 75 78 76 82 77 74 81 88 88 89 87 83 81 80 80 75 75 75 71 71
83 83 90 86 81 85 92 90 91 91 93 90 86 83 89 85 82 84 88 85 93 93 91 90 82 81 80 84 77 80 82 86 89 90 89 87 85 83 81 76 73 68 66
78 67 84 83 83 85 86 90 92 89 91 91 90 90 88 86 86 85 82 84 94 93 95 89 93 90 87 87 83 85 76 85 83 87 90 90 89 88 87 84 81 77 72
79 77 72 91 84 82 82 84 84 90 89 87 85 88 83 84 90 86 92 90 87 90 85 94 95 93 88 92 86 88 85 80 85 86 90 92 90 88 86 83 81 80 75
77 82 79 78 82 80 78 78 77 77 83 84 84 87 85 80 83 86 84 87 90 85 88 93 89 89 93 87 88 91 90 88 90 90 92 89 88 85 85 85 84 82 78
76 73 78 80 79 83 79 78 73 70 77 75 78 83 82 80 86 87 88 85 88 91 90 81 91 94 95 94 91 90 86 84 85 89 88 87 89 88 87 85 84 84 83
80 80 74 72 74 78 82 79 78 69 71 74 76 81 85 84 90 88 89 86 84 84 88 92 85 97 95 93 89 87 85 73 76 86 88 89 90 89 88 88 84 82 81
77 79 79 77 71 76 76 80 76 74 72 71 71 77 77 78 81 79 82 86 85 87 89 92 88 96 93 98 97 94 92 87 80 83 90 89 90 91 89 85 81 77 73
79 80 80 79 79 75 74 74 75 76 74 72 74 75 76 81 81 82 85 86 88 91 94 96 94 95 98 98 96 97 98 96 92 74 84 86 91 92 89 84 78 71 73
77 77 79 79 77 80 78 81 77 79 79 77 74 74 77 78 84 83 84 85 88 95 95 97 98 97 99 100 98 95 96 94 96 96 94 90 89 83 79 78 68 75 76
78 78 80 80 82 75 85 90 83 79 77 77 77 74 73 85 86 88 89 89 95 93 94 94 91 96 95 95 96 98 99 99 100 96 95 90 76 81 74 67 71 74 77
77 82 81 79 81 79 89 91 92 76 78 78 78 78 81 83 93 85 100 100 99 98 100 94 95 93 99 98 97 99 98 98 99 98 96 98 96 90 68 45 59 67 76
78 79 79 79 81 77 90 90 91 79 78 81 81 81 85 91 99 99 99 99 99 98 99 98 99 99 99 97 94 94 96 98 98 98 97 98 88 81 73 72 70 71 72
78 80 77 78 82 81 93 92 92 84 82 80 98 99 94 98 99 99 98 98 98 99 98 98 97 97 97 98 95 93 99 96 98 99 97 98 89 82 78 76 65 65 63
77 77 80 81 82 80 97 92 94 89 97 100 99 99 99 99 99 97 97 95 98 98 97 95 95 95 95 97 97 97 98 98 98 92 81 89 75 74 79 77 72 70 75

GFSMA_sfc_rhum_087.txt.gz
RH
94 96 92 93 94 91 86 81 75 72 71 73 76 77 77 77 82 79 84 83 78 72 67 67 68 68 69 69 69 68 68 68 68 68 67 67 66 65 65 65 66 64 62
96 93 91 91 87 82 85 77 71 72 72 71 78 77 77 79 84 89 83 83 82 77 73 67 67 67 68 69 69 68 67 67 67 66 66 66 65 64 64 64 64 61 58
96 91 91 87 82 77 74 70 70 72 72 68 78 79 78 81 88 90 92 91 85 83 80 74 70 68 68 68 68 68 67 67 65 64 66 65 64 62 62 62 61 58 56
94 92 87 85 79 75 71 69 65 69 75 74 81 80 79 82 87 92 91 93 94 86 84 80 76 73 69 68 68 68 68 66 66 64 64 63 62 60 60 60 58 56 56
94 89 82 81 77 72 74 69 75 66 78 82 79 85 89 89 89 83 92 93 93 92 92 85 82 81 77 71 68 68 67 68 66 66 65 64 62 62 61 60 59 58 56
93 88 85 85 76 75 77 84 72 78 79 80 69 80 89 91 90 93 91 86 92 90 91 92 93 90 85 79 70 68 67 67 68 67 67 67 66 65 64 63 62 61 59
90 86 90 86 75 66 72 79 76 76 87 83 86 87 87 91 92 94 92 92 90 90 91 88 94 95 85 85 79 69 67 66 66 66 67 68 69 69 68 67 66 65 64
87 83 87 80 69 62 74 83 72 79 82 82 81 81 91 85 88 87 93 87 87 86 86 87 88 90 87 85 85 78 71 68 66 66 67 72 74 74 71 71 70 69 68
91 89 90 79 78 63 75 75 74 72 77 80 68 86 91 88 90 86 88 90 90 90 84 83 83 83 86 84 85 84 86 84 78 74 73 74 74 75 77 76 73 72 71
96 90 88 92 83 84 77 76 68 64 80 75 81 80 78 84 87 91 91 89 86 86 86 84 80 81 81 84 85 85 88 90 86 82 80 78 78 76 76 77 78 78 74
92 89 89 90 90 86 80 78 77 80 83 81 78 93 94 96 91 90 89 92 91 82 79 84 82 83 81 82 86 86 90 90 90 85 82 81 81 82 80 78 79 82 80
94 92 86 85 83 87 88 82 85 84 87 81 74 77 80 88 94 92 92 94 83 81 73 78 85 84 86 85 81 84 90 92 91 88 86 83 81 80 81 84 83 83 82
94 92 89 86 80 86 87 88 88 89 88 87 78 72 80 85 88 90 88 86 92 91 90 81 76 74 75 84 82 86 87 91 91 89 88 87 86 85 82 81 83 85 85
86 92 92 86 80 81 87 86 88 87 85 88 84 78 76 77 86 87 87 90 92 92 94 86 89 78 75 73 75 85 81 92 92 90 89 88 88 88 87 85 82 82 84
81 80 86 86 85 82 84 88 86 84 82 87 84 83 75 78 88 87 90 87 83 90 86 85 89 87 83 83 80 82 80 80 90 92 92 91 90 90 90 89 88 87 86
84 88 89 86 88 84 83 84 82 79 83 83 78 85 85 77 86 85 89 90 92 85 86 74 78 82 84 83 81 84 85 86 88 89 90 90 90 90 91 92 92 92 92
86 83 82 83 88 87 85 84 80 78 85 78 79 84 82 79 85 88 90 88 91 92 92 78 76 87 91 88 86 88 83 85 80 90 90 88 89 89 90 91 93 92 91
82 79 79 82 84 83 90 90 87 82 92 87 82 84 84 79 85 81 83 84 81 75 81 85 75 82 92 87 81 84 89 86 85 89 94 94 94 92 92 94 95 97 98
83 83 80 79 80 83 85 90 88 87 85 86 84 86 86 88 87 85 86 85 86 85 86 89 80 77 86 93 93 91 91 91 92 91 95 96 97 97 98 98 99 99 98
84 84 83 82 81 78 77 78 83 85 83 82 84 82 82 85 87 84 89 89 87 87 87 90 88 83 81 86 96 93 94 97 92 90 93 94 97 98 98 98 98 98 96
87 85 86 84 82 81 79 80 76 82 83 82 82 82 81 80 83 82 79 83 86 88 86 84 87 87 88 94 97 86 96 91 93 94 97 98 99 98 98 98 97 96 96
90 88 88 88 90 83 87 92 86 85 86 87 86 81 78 86 85 88 89 84 75 86 88 85 84 87 83 84 89 93 90 97 98 99 99 100 99 99 99 99 98 94 90
88 89 88 88 89 87 97 94 94 82 85 88 88 86 86 82 88 83 92 93 93 90 89 78 84 84 84 82 83 93 94 92 95 99 97 99 99 99 96 94 95 95 95
94 90 89 87 88 84 96 100 100 87 84 83 84 85 87 86 85 86 87 88 92 88 93 92 89 83 82 92 94 92 90 99 98 98 98 99 100 100 99 98 95 95 94
95 94 91 89 90 87 99 100 100 95 92 88 85 86 86 87 88 95 90 92 97 100 98 98 97 98 98 98 98 98 99 98 99 98 97 98 99 99 99 100 100 100 97
92 94 94 95 98 98 98 98 100 95 96 95 91 91 98 92 97 98 94 92 98 100 98 98 96 95 94 94 95 97 99 99 97 96 95 95 94 96 96 97 97 87 77

GFSMA_sfc_rhum_093.txt.gz
RH
89 82 89 88 96 97 98 92 74 68 68 66 64 62 62 60 58 50 49 79 81 70 66 68 70 70 72 71 71 70 67 66 66 66 68 68 67 68 68 67 67 66 65
88 88 91 93 94 96 97 92 66 66 63 62 65 63 61 58 58 57 49 58 81 80 76 71 71 70 71 70 71 67 66 66 66 67 68 68 68 68 69 68 67 65 64
89 90 95 95 93 95 94 90 70 65 63 60 63 62 60 60 57 59 55 54 66 82 80 77 76 73 71 71 67 67 67 68 68 68 68 69 68 68 69 68 66 62 61
94 95 97 96 96 96 92 80 66 65 65 62 62 59 56 57 60 61 57 56 54 56 76 81 78 75 72 70 67 68 68 69 68 68 69 68 66 67 68 69 66 63 60
95 96 96 96 96 95 89 70 69 66 67 63 61 60 60 57 62 58 61 62 61 58 63 79 80 79 77 72 68 66 67 69 68 68 69 68 66 66 66 67 66 63 60
96 95 97 96 95 94 79 72 71 68 63 63 57 62 63 61 60 63 62 58 60 64 59 58 58 60 83 78 72 66 66 67 68 67 68 67 66 66 65 65 64 62 62
96 95 95 93 91 86 72 69 74 72 70 65 70 72 70 72 71 65 62 60 64 65 65 60 57 54 61 82 79 68 67 68 68 67 68 68 68 68 67 66 66 64 64
95 92 89 86 80 78 78 73 71 69 69 71 65 66 82 76 76 72 66 68 69 63 64 65 64 64 61 57 65 79 72 70 69 70 69 74 75 72 70 70 69 68 68
94 93 86 82 80 76 73 72 73 71 76 72 70 62 82 72 78 72 75 69 70 70 64 66 67 67 67 60 68 75 88 86 80 75 75 76 79 79 79 78 76 73 72
95 92 88 83 82 78 77 73 68 69 73 75 70 62 66 66 68 86 79 78 74 73 74 72 69 72 65 65 71 76 86 89 88 84 82 79 79 80 80 81 81 81 80
96 95 92 88 87 84 82 76 76 76 71 68 70 80 76 80 78 75 79 80 77 70 70 72 68 68 66 64 64 72 90 90 90 86 82 81 82 82 81 81 81 82 82
98 97 95 92 89 90 90 89 84 79 78 72 68 68 70 70 72 75 70 76 70 68 73 67 74 71 65 65 72 80 89 91 90 87 85 84 81 80 81 83 84 82 82
97 97 96 96 93 89 84 85 85 83 80 76 74 66 62 59 60 66 68 64 70 71 71 70 72 73 70 72 71 84 87 93 92 90 88 87 86 84 83 82 81 82 83
95 94 92 92 90 79 79 82 77 77 79 80 82 74 67 64 60 60 58 62 70 69 65 61 69 74 69 69 72 86 74 92 93 93 92 90 89 88 87 87 86 84 83
90 95 93 92 88 80 76 77 73 81 86 82 80 81 73 70 69 61 72 66 65 73 59 62 67 74 74 73 73 74 77 78 91 92 92 91 90 89 89 90 89 88 87
87 90 96 94 91 85 72 74 71 59 76 83 80 82 74 69 78 77 81 86 82 72 69 51 54 67 81 78 77 78 75 80 86 91 92 91 91 90 90 90 90 90 89
80 81 81 89 88 83 80 80 73 67 85 80 82 84 82 79 82 88 92 89 87 86 88 72 62 58 71 72 66 74 72 73 70 88 89 90 91 92 92 92 92 91 91
78 76 77 77 76 76 75 78 82 81 82 76 74 80 81 77 85 83 85 85 76 68 80 83 70 60 71 66 76 75 74 71 70 75 87 89 89 89 90 90 90 91 92
79 77 75 80 79 77 78 81 82 82 83 82 80 78 72 71 74 69 70 70 76 74 77 81 69 59 56 63 66 77 74 74 64 71 84 89 89 88 88 89 90 91 91
83 84 82 79 76 76 75 77 80 81 81 78 76 73 71 73 73 73 73 73 71 74 76 82 79 70 64 59 66 71 70 67 68 59 70 80 81 90 94 91 93 93 92
78 76 80 80 80 78 72 77 74 75 77 80 82 80 80 78 82 78 66 72 76 80 80 82 84 77 74 74 77 69 77 72 68 66 68 70 73 78 81 97 92 97 96
88 86 82 78 80 75 91 95 86 76 75 75 78 77 76 91 88 94 94 90 75 78 84 82 80 81 78 74 72 76 79 83 89 75 79 78 73 78 78 80 94 99 99
93 95 95 94 92 91 96 99 99 86 84 85 84 82 80 77 88 76 94 97 96 93 90 76 85 86 84 80 79 81 83 86 87 78 88 91 98 99 96 94 99 99 99
93 94 94 90 92 85 95 95 96 95 92 87 86 86 84 82 82 87 87 88 89 87 91 90 90 85 86 91 95 92 88 86 85 96 95 98 99 99 97 97 97 97 97
89 87 87 87 88 88 94 94 92 89 97 97 92 92 95 96 98 98 98 95 94 94 98 98 97 97 98 95 95 97 98 100 99 99 96 98 99 97 95 96 98 92 91
83 80 83 85 89 88 91 91 90 89 97 96 94 92 98 96 96 97 99 99 99 99 99 96 95 94 94 95 94 97 99 100 100 98 97 96 96 97 95 96 96 96 96

GFSMA_sfc_rhum_096.txt.gz
RH
84 75 66 68 74 76 89 89 91 81 70 59 53 52 49 45 42 34 43 79 78 73 67 67 67 71 72 70 70 68 65 65 64 67 68 68 68 68 68 68 68 66 66
79 79 72 77 86 80 92 96 92 80 70 54 54 52 50 46 45 42 39 59 81 77 74 69 68 69 69 72 72 70 67 67 66 66 68 68 70 70 70 68 68 67 65
76 83 86 85 89 94 88 96 86 78 64 50 52 50 46 44 40 41 39 48 60 86 80 77 74 71 69 70 70 66 66 66 67 67 68 69 69 70 70 70 68 66 65
75 85 90 86 92 94 91 94 84 75 58 52 53 47 43 41 44 43 39 41 44 50 79 83 79 77 76 72 67 66 65 67 66 68 69 69 69 70 71 71 69 65 64
87 90 95 93 96 96 94 93 76 71 61 57 49 46 44 43 47 41 50 43 47 50 51 82 84 83 80 76 65 67 66 66 67 68 69 70 69 69 70 71 70 67 64
88 96 96 98 96 96 96 95 80 75 64 52 43 48 48 46 46 53 56 45 42 49 52 56 56 59 82 79 73 66 64 69 67 67 68 70 69 68 68 69 70 68 65
98 98 97 98 95 95 94 91 76 69 70 59 55 66 62 59 58 54 54 44 43 44 48 48 44 41 53 81 78 70 69 67 69 67 68 70 70 71 69 68 68 67 66
96 95 96 95 94 94 94 88 74 70 66 64 65 62 85 78 66 58 58 48 48 41 43 46 46 45 43 48 59 79 72 71 71 69 69 74 75 75 71 70 69 69 68
96 95 95 94 94 92 90 79 71 70 68 64 60 54 69 64 61 57 62 53 52 48 45 46 50 50 51 46 58 70 86 85 80 77 77 77 78 78 78 77 76 74 72
96 91 95 93 93 90 79 74 67 64 62 66 57 46 47 43 54 71 59 59 56 56 61 49 50 53 53 54 65 72 84 87 87 84 82 81 80 80 81 81 81 81 80
92 94 92 91 89 82 77 71 69 67 61 61 66 64 64 61 53 50 61 62 58 56 53 55 54 55 56 54 54 62 84 90 88 85 84 83 83 83 83 83 83 83 83
98 94 93 91 88 84 82 79 79 78 75 68 60 60 55 62 61 55 42 55 61 57 55 57 67 66 62 60 64 74 84 88 89 88 86 83 81 80 81 84 85 84 83
97 98 95 95 93 91 87 84 86 86 87 83 75 62 53 52 49 48 42 40 51 46 56 57 60 60 55 56 56 76 83 90 90 89 88 86 84 83 82 81 80 81 83
93 92 94 94 90 90 90 91 89 86 87 85 67 64 59 55 48 47 47 42 47 43 44 49 51 54 53 54 61 83 71 91 92 92 91 90 88 87 87 86 84 83 82
89 95 93 95 92 92 87 84 83 83 74 79 76 68 63 64 64 53 49 44 46 62 47 49 51 56 52 52 61 63 65 74 90 93 93 93 91 90 89 89 88 88 88
87 92 93 93 94 94 94 83 79 80 73 77 72 65 62 57 61 62 58 57 69 62 66 44 49 45 51 45 56 61 57 76 86 90 93 93 93 92 91 91 91 90 90
82 88 91 93 92 89 87 84 80 78 77 65 64 77 72 61 68 70 84 80 82 90 88 75 54 56 56 49 48 52 58 66 69 88 89 92 93 92 91 91 90 90 90
77 83 83 91 92 88 84 77 73 66 68 53 57 75 76 67 73 79 78 74 80 85 89 90 77 60 54 54 58 58 46 40 46 59 84 86 86 88 88 88 90 91 91
74 74 72 82 84 85 84 80 72 70 63 61 69 70 66 73 74 74 81 80 77 70 73 75 67 59 56 50 53 55 56 56 46 63 84 87 87 87 88 88 89 88 89
69 70 70 70 74 75 74 73 71 73 73 75 78 78 74 72 72 73 69 66 65 68 67 74 64 60 58 54 57 58 60 55 55 45 55 63 68 80 91 88 88 89 88
79 72 74 75 75 75 73 79 76 80 82 82 82 79 80 79 82 78 65 65 66 70 73 76 77 69 64 61 62 57 63 59 59 59 61 59 59 57 62 92 83 93 93
88 84 81 77 77 78 96 97 94 76 75 75 74 68 66 83 84 94 92 89 77 74 80 81 77 80 72 66 64 64 67 78 84 69 74 72 57 61 77 93 95 96 99
93 93 93 93 92 89 95 95 95 84 82 77 74 74 74 73 88 74 94 97 96 96 96 79 84 84 84 79 82 82 82 82 83 72 82 87 97 98 95 92 97 98 98
92 90 90 89 88 86 93 93 95 88 93 94 95 94 94 94 95 95 94 91 93 94 94 96 97 97 98 97 97 97 99 99 96 98 97 100 99 97 95 95 98 92 92
85 86 85 87 87 88 92 92 88 85 94 94 87 90 89 91 96 96 92 98 99 99 97 94 94 93 91 91 92 92 100 100 99 100 99 99 99 97 96 97 98 95 92
77 76 81 83 88 83 88 88 84 85 93 91 89 88 91 90 92 94 95 98 100 100 99 97 95 94 93 92 92 94 96 100 100 100 98 99 96 96 96 97 96 97 96

GFSMA_sfc_rhum_102.txt.gz
RH
89 89 90 90 92 92 92 90 89 93 93 91 93 84 72 74 62 66 80 87 83 75 65 65 66 70 72 73 73 72 68 67 64 69 72 71 73 75 74 72 73 70 68
89 87 91 89 93 93 92 84 88 92 92 94 94 88 65 72 65 67 76 83 86 80 73 66 69 69 69 72 72 69 65 67 67 69 70 73 76 76 76 73 70 70 68
87 86 91 93 93 93 90 89 92 92 93 94 94 86 60 53 58 62 67 75 84 83 80 77 75 74 71 70 70 68 68 71 68 64 68 72 73 73 75 73 71 69 68
90 91 91 93 94 93 92 89 91 95 95 95 95 91 62 59 55 58 61 66 73 70 84 82 82 79 76 72 71 65 64 68 65 65 66 72 74 75 74 73 72 71 69
87 90 92 94 91 93 92 88 91 90 94 97 95 91 63 60 61 47 62 64 70 72 77 85 85 84 82 78 67 62 66 67 65 66 66 72 72 73 74 74 73 71 70
86 89 92 92 92 93 92 92 90 92 91 94 90 86 54 64 61 65 59 60 64 68 71 78 86 86 86 82 71 65 62 62 64 66 67 71 72 73 74 74 74 73 72
84 86 93 93 93 94 91 91 89 93 97 94 97 86 79 76 76 72 70 63 63 69 71 70 76 75 82 84 79 69 65 68 66 66 68 70 74 77 78 74 74 74 74
83 88 93 96 94 94 92 92 91 92 94 95 92 78 91 90 82 76 77 70 67 54 68 68 66 70 71 77 81 78 67 69 66 66 71 75 77 78 78 74 74 73 74
82 89 92 95 96 95 96 96 92 87 90 96 91 76 90 92 89 84 77 80 72 66 56 63 64 61 65 68 74 78 84 82 77 76 76 76 78 79 80 78 77 75 74
89 90 94 95 97 95 96 96 94 91 87 94 90 67 69 69 81 97 86 79 81 74 70 59 60 61 63 69 72 77 85 86 84 82 81 78 80 80 81 81 81 81 80
90 88 92 96 98 95 96 95 96 96 93 89 78 77 75 75 72 82 94 91 83 77 69 72 71 70 64 69 77 75 84 87 86 83 83 84 83 81 82 82 83 83 83
94 89 94 96 95 96 96 94 94 90 93 90 79 82 73 78 75 80 86 83 79 76 72 72 74 77 74 74 71 74 85 88 87 84 82 83 84 86 86 85 84 84 85
98 96 95 99 98 96 96 95 94 94 92 93 89 81 79 79 76 73 73 80 82 79 74 76 72 70 67 79 74 78 85 88 89 87 86 85 84 84 85 86 87 87 87
93 95 95 96 97 98 96 98 97 94 94 95 89 86 88 86 82 78 74 71 79 76 76 77 78 76 71 72 76 82 74 86 89 89 90 88 87 86 86 84 84 84 84
92 93 93 95 97 96 97 98 99 99 97 98 97 95 94 91 88 80 80 77 73 80 71 84 85 69 70 74 74 74 73 79 86 88 90 90 88 88 88 87 87 86 85
88 94 96 95 96 96 96 96 97 98 97 99 99 98 95 87 82 78 80 87 86 89 80 67 74 78 75 68 76 73 73 81 87 89 89 90 90 89 89 90 90 89 88
89 92 93 95 96 95 96 96 95 95 95 96 95 95 90 80 74 76 85 85 86 90 89 79 71 76 83 83 71 76 78 74 74 88 89 90 90 90 91 92 92 90 89
88 88 92 93 94 95 95 95 95 93 95 94 94 90 86 76 82 84 86 85 88 78 82 83 82 79 80 78 77 72 65 56 62 72 85 86 87 90 91 91 92 92 92
84 88 90 94 94 93 94 92 91 91 91 89 89 88 83 80 79 76 76 81 88 82 90 90 80 78 77 76 69 68 68 67 56 64 73 84 86 87 87 89 90 92 92
83 86 88 90 92 91 90 92 91 91 88 84 82 83 79 83 80 75 75 75 72 83 84 91 90 82 73 68 68 67 71 68 68 57 63 70 80 89 92 94 95 94 94
80 81 86 85 86 88 85 90 87 89 88 85 83 80 81 80 81 80 73 78 80 79 81 84 82 78 79 83 86 80 87 85 86 92 92 90 91 93 93 92 91 95 97
89 88 87 85 86 81 96 95 95 88 84 82 85 84 77 92 92 93 92 92 87 82 83 84 84 93 93 92 97 98 98 97 98 97 97 99 92 96 95 94 92 92 92
93 94 92 89 93 91 96 96 96 87 94 94 92 91 90 85 93 87 94 99 97 99 100 96 97 97 98 98 97 97 96 99 100 97 96 99 97 98 98 95 89 89 89
93 93 92 90 90 89 95 98 98 90 92 92 92 91 91 91 93 94 92 96 95 94 96 90 96 98 98 97 94 93 97 98 99 95 95 100 99 99 96 97 89 87 87
93 93 90 90 91 94 95 96 90 90 92 94 91 93 90 92 98 96 96 97 96 98 97 94 92 91 89 88 90 95 97 99 100 99 96 99 99 98 98 98 98 88 85
100 94 95 95 94 93 95 95 91 92 96 95 96 96 93 94 94 96 97 98 96 98 96 94 93 92 90 90 89 94 96 97 97 99 97 99 98 98 98 98 98 98 99

GFSMA_sfc_rhum_108.txt.gz
RH
98 98 98 98 98 98 98 99 99 99 98 97 95 91 85 94 92 95 94 92 88 81 73 69 70 67 67 72 74 71 71 70 70 66 66 66 66 66 69 75 74 73 72
97 96 98 97 98 97 96 97 98 99 99 98 98 96 91 92 93 93 90 86 88 84 77 69 67 66 66 68 74 73 71 69 69 68 71 73 73 68 78 76 74 73 73
95 95 97 98 97 96 96 98 99 99 100 98 98 97 95 94 94 92 91 85 85 87 83 75 71 73 68 70 72 74 72 70 70 71 71 74 75 77 77 76 75 73 72
94 96 96 97 97 98 97 98 98 97 98 98 98 99 98 92 91 94 92 85 87 80 82 80 79 79 75 73 67 73 72 66 69 74 73 74 77 78 78 76 76 74 72
94 95 96 95 96 97 97 98 98 94 98 98 98 99 98 96 94 93 91 84 89 92 87 85 85 83 80 77 71 70 67 70 68 71 74 76 77 77 78 78 76 74 73
94 96 97 96 96 97 97 96 94 96 94 94 94 97 99 97 97 97 93 80 84 87 92 90 85 86 86 82 78 70 63 71 68 68 66 72 76 78 78 78 77 76 75
96 95 96 97 97 97 95 94 95 96 98 97 97 100 99 98 97 97 92 82 84 84 93 92 96 88 83 84 81 68 66 66 69 63 65 70 74 80 82 80 79 78 76
95 96 96 97 97 98 99 94 94 98 96 96 93 97 99 100 98 95 94 82 84 80 84 84 87 91 90 87 89 76 70 64 64 72 72 73 78 80 81 78 78 78 78
96 95 96 96 97 97 97 97 96 93 96 97 93 94 99 98 95 92 92 86 83 83 81 84 86 86 87 89 90 85 82 81 76 72 73 77 80 81 83 81 80 78 78
96 96 97 97 97 97 95 95 95 94 93 94 97 87 82 80 86 99 96 92 81 80 85 86 86 86 84 87 87 87 88 87 84 81 78 78 80 81 83 84 84 82 80
94 94 96 97 97 97 95 93 94 95 93 92 91 93 93 81 85 84 95 96 91 79 81 86 86 86 82 84 87 85 89 90 87 84 83 83 82 82 83 84 84 85 84
95 95 95 96 95 94 95 94 94 94 95 92 92 93 87 80 79 76 85 86 83 92 86 83 86 83 82 82 82 85 90 89 89 86 84 84 84 86 85 85 84 85 85
97 98 97 98 97 95 94 95 96 97 95 96 94 94 86 78 70 78 88 86 82 88 90 88 82 78 75 80 78 85 89 90 89 88 86 86 85 85 85 87 88 88 87
95 95 94 96 96 97 97 97 97 97 97 98 96 93 94 85 80 83 75 89 95 90 91 81 86 82 76 72 77 88 79 91 90 89 89 88 87 87 88 87 86 87 88
96 96 94 95 95 96 95 97 98 98 98 97 96 96 94 96 93 93 87 81 83 97 86 88 85 83 73 74 78 82 81 89 91 91 91 91 90 89 90 89 88 87 86
95 96 96 96 96 97 96 97 94 97 98 97 96 95 93 95 97 96 93 92 88 88 90 81 88 84 80 72 80 84 80 89 92 91 92 92 91 91 90 90 89 90 87
96 96 96 97 98 97 97 98 98 97 98 98 96 95 94 94 96 96 96 95 93 92 89 88 77 81 90 89 88 88 86 88 83 93 92 92 91 91 91 91 92 91 93
95 96 94 94 94 96 98 97 98 98 96 97 98 96 97 96 97 96 96 95 91 89 89 90 85 82 80 88 89 93 89 82 88 91 96 94 95 96 97 97 96 96 96
93 96 94 95 94 96 98 98 97 98 98 94 94 96 96 97 98 97 95 94 90 88 91 88 87 85 83 86 84 82 87 90 78 82 89 98 97 97 95 95 96 96 96
92 94 94 94 96 96 98 96 97 98 97 97 96 95 95 96 94 96 93 91 93 92 94 93 86 91 90 86 85 86 91 90 82 74 91 92 93 93 93 94 95 95 95
95 93 95 95 94 95 94 98 96 97 98 98 98 97 96 96 100 98 95 96 97 98 98 96 97 97 97 96 94 92 93 88 99 96 97 96 95 94 95 92 92 92 91
94 93 93 92 93 89 98 98 100 97 96 97 98 97 96 100 99 100 100 98 100 96 96 95 92 96 95 94 98 98 97 100 99 94 98 97 93 97 95 94 90 88 88
96 96 96 95 97 97 98 98 100 95 96 97 97 99 94 92 98 94 98 97 96 96 100 95 92 98 98 98 97 97 98 99 100 96 97 99 98 98 98 94 89 87 86
96 95 96 96 96 95 97 97 96 94 95 96 95 94 95 96 97 96 95 96 97 97 96 93 98 100 100 98 95 96 98 98 97 95 97 99 100 99 98 98 83 80 80
96 97 94 95 97 97 97 95 92 93 95 97 95 96 95 98 99 94 93 96 98 98 97 94 95 91 90 92 95 97 100 100 99 97 98 98 99 99 99 99 98 84 82
98 97 97 97 96 97 96 94 92 91 96 96 96 97 99 99 97 93 93 95 98 99 97 96 95 92 89 91 92 96 97 99 96 98 97 97 99 97 98 99 98 97 94

GFSMA_sfc_rhum_111.txt.gz
RH
98 96 94 95 95 98 99 99 99 99 97 96 95 94 96 97 96 98 99 97 90 84 78 72 71 70 69 71 75 70 69 70 65 68 66 71 72 66 66 72 75 74 72
98 97 95 96 96 98 99 99 98 98 99 98 96 93 93 97 97 97 98 99 96 89 82 74 68 70 67 69 75 70 70 70 68 68 68 68 67 67 77 75 76 74 73
97 97 96 96 95 98 98 99 99 99 99 99 97 98 97 98 98 97 97 99 97 94 86 79 74 72 68 71 71 72 70 72 72 71 72 72 69 69 72 78 76 76 74
95 97 98 98 98 99 98 99 98 99 96 98 99 99 99 99 98 96 96 98 98 82 87 84 79 77 74 74 68 68 69 67 72 75 75 74 70 72 79 78 77 75 75
95 96 98 98 98 99 98 98 96 96 96 96 97 99 99 99 98 95 96 97 97 90 87 87 83 83 79 78 69 70 71 69 70 74 74 74 70 78 79 78 78 77 75
96 96 97 98 98 98 98 98 97 94 94 92 96 98 98 99 99 98 96 96 96 89 88 90 89 90 85 79 76 73 70 71 71 70 71 75 72 78 80 79 78 77 76
96 97 98 97 97 98 96 96 96 96 98 98 99 99 99 98 99 98 98 98 97 86 91 92 97 91 82 83 79 74 68 66 72 70 72 70 77 82 83 80 79 78 76
96 96 97 97 97 98 97 94 94 96 96 98 98 98 100 99 99 99 99 98 96 85 88 89 96 95 82 75 77 79 71 71 73 70 70 67 77 81 82 81 81 80 79
96 95 95 95 97 95 96 94 94 94 97 98 94 96 100 98 99 99 99 98 97 90 85 85 92 95 96 92 90 84 81 83 75 72 64 74 77 80 82 80 79 79 79
97 96 95 96 96 95 96 97 95 95 95 98 97 91 92 91 96 99 98 98 97 94 87 88 88 93 94 94 91 91 90 85 82 79 76 78 78 80 82 83 84 82 80
96 96 96 95 97 96 95 96 97 98 96 93 96 95 96 94 90 94 96 99 97 94 84 86 88 90 92 93 97 93 91 90 87 85 83 81 79 81 83 84 85 85 84
98 97 97 97 97 96 96 95 95 96 96 95 93 91 90 86 86 86 90 93 94 95 88 85 89 87 90 90 87 89 92 92 90 88 86 85 85 85 84 85 85 86 86
97 97 97 98 97 96 95 94 96 96 96 95 93 94 89 85 81 76 81 89 92 97 95 88 86 85 85 89 86 89 91 93 92 90 88 86 86 87 88 88 88 86 86
86 94 95 95 94 96 96 96 96 95 94 97 95 95 95 92 88 82 80 84 96 91 95 92 86 87 85 84 84 90 83 93 93 91 90 89 88 88 89 88 89 90 89
95 96 96 97 97 97 97 98 98 98 98 97 98 97 96 93 92 89 84 76 80 93 94 91 91 82 81 81 82 83 84 87 93 92 92 91 90 89 90 90 90 88 87
96 98 97 96 96 96 97 97 97 97 97 97 96 98 96 94 94 92 92 92 89 90 89 76 78 87 79 76 82 80 79 86 93 93 93 92 91 91 91 91 90 90 89
97 97 96 96 95 96 97 98 96 95 98 97 98 98 95 94 93 94 97 96 94 94 86 91 78 85 92 88 87 87 88 88 85 93 93 92 93 94 95 96 95 95 95
95 95 95 96 96 96 96 97 98 98 98 98 97 98 97 96 95 94 96 98 96 98 96 92 90 86 87 92 92 94 92 83 86 95 97 97 98 98 98 98 98 97 97
96 96 96 96 96 96 98 98 97 98 98 97 98 97 96 96 98 98 96 96 96 96 97 94 89 90 88 87 89 89 90 93 87 95 98 98 96 95 96 96 96 96 96
95 95 95 94 94 94 95 96 97 98 98 97 96 96 96 94 94 95 97 97 97 97 95 96 95 95 91 88 89 89 91 87 85 79 91 92 92 93 93 95 95 95 94
94 94 97 97 96 96 99 98 97 98 98 99 98 99 97 97 100 98 95 96 98 97 97 96 94 98 98 98 94 93 92 94 99 95 96 96 94 94 94 91 91 90 90
93 97 97 97 96 92 98 99 100 98 98 98 98 98 98 100 100 100 100 100 98 96 96 96 96 97 96 95 96 95 95 98 100 93 97 98 92 97 95 94 90 89 87
96 96 96 96 97 97 99 99 100 98 99 99 99 99 98 98 100 97 99 98 98 98 100 97 96 96 97 97 97 98 99 99 100 97 97 99 98 98 99 93 89 86 83
100 98 98 96 96 94 97 97 97 95 96 97 97 97 98 99 99 97 96 97 98 98 98 96 99 100 100 99 96 97 97 98 97 97 98 98 99 99 99 99 95 87 82
99 100 98 96 97 97 96 95 93 94 96 97 96 98 97 99 98 95 95 97 98 98 94 92 92 93 93 95 96 98 100 100 100 98 98 97 99 99 99 99 99 86 79
97 96 96 97 99 98 99 97 92 92 96 96 96 98 98 99 96 95 94 94 98 98 96 95 94 93 92 93 93 97 99 100 97 98 98 98 98 98 98 99 98 96 92

GFSMA_sfc_rhum_114.txt.gz
RH
95 95 96 99 97 96 98 100 99 98 97 97 96 95 97 98 96 99 98 98 97 86 79 76 74 71 69 71 77 75 71 72 70 70 71 72 73 75 72 71 68 70 70
97 91 94 95 95 96 99 99 99 99 98 97 96 95 95 97 98 98 99 98 100 97 88 78 74 70 68 71 76 75 71 68 72 71 71 73 75 68 74 75 75 75 68
97 91 95 96 96 97 99 99 99 99 98 98 96 97 96 97 98 98 98 98 98 99 97 88 79 76 71 69 72 71 72 75 76 73 72 70 74 66 72 75 77 73 74
97 97 93 94 96 98 99 99 98 98 99 98 98 98 98 98 98 98 98 98 98 98 98 91 82 80 74 72 70 68 71 74 74 74 71 73 68 69 76 79 78 77 76
97 97 94 96 97 97 98 97 97 98 98 96 95 98 99 99 97 95 97 97 98 99 98 92 86 84 79 77 73 68 69 73 74 73 71 72 69 70 76 79 78 77 76
96 97 99 98 97 97 97 98 95 94 97 95 94 95 97 98 97 93 95 96 96 98 97 87 85 85 84 80 78 68 68 71 70 70 71 71 66 76 80 80 79 78 77
97 96 98 99 96 96 95 94 93 93 98 96 99 99 99 98 98 97 98 98 97 97 97 85 86 89 84 82 80 73 70 71 68 70 73 72 73 78 82 82 80 79 77
96 96 97 98 96 97 96 94 96 97 96 98 98 98 100 99 99 98 98 98 97 97 96 86 86 90 86 82 78 80 75 72 72 70 73 80 78 79 83 81 81 80 79
96 95 96 97 97 95 97 97 96 94 98 99 95 95 99 98 99 99 98 98 98 98 96 90 88 89 88 81 82 82 84 82 77 76 77 80 78 75 81 82 76 81 81
96 94 96 96 96 96 96 96 94 94 93 97 98 93 92 90 97 99 99 98 98 97 96 94 87 88 91 91 86 85 88 85 85 82 80 78 74 77 78 80 81 82 81
96 95 96 96 96 96 95 95 97 97 95 94 95 98 96 96 94 96 99 99 98 96 95 93 89 88 90 90 91 92 92 89 87 85 81 76 77 77 78 80 83 83 84
95 96 94 94 93 94 95 96 96 96 96 96 94 92 92 93 94 95 95 95 95 97 95 95 92 87 88 88 88 92 95 93 90 87 86 85 84 81 78 81 83 85 86
97 97 97 96 96 96 96 94 96 97 97 97 96 94 94 92 84 82 85 93 96 99 99 97 93 85 83 88 86 91 94 95 93 90 88 88 88 88 88 87 86 85 86
93 90 95 96 91 95 96 96 96 97 96 97 96 96 93 92 90 92 88 89 98 98 99 95 92 87 83 85 85 93 84 95 94 92 91 90 89 89 90 90 91 92 90
96 97 95 96 94 94 96 97 98 98 97 97 96 96 96 92 94 92 89 84 86 95 96 96 97 84 82 84 86 87 87 92 94 94 93 92 91 90 90 90 90 90 90
97 97 97 96 94 94 96 97 97 97 98 97 97 97 96 95 97 95 94 91 91 87 90 91 93 92 84 80 84 86 85 90 94 95 94 94 93 92 92 92 92 92 92
96 97 96 96 96 94 98 98 98 98 98 98 96 96 93 92 97 96 94 93 93 91 90 96 90 92 93 88 85 86 86 87 85 94 94 94 95 95 95 96 95 95 95
95 95 96 97 97 97 97 97 97 96 96 95 92 97 97 97 96 95 95 94 90 93 95 94 97 95 90 90 87 90 88 80 86 97 96 98 96 97 97 98 98 97 97
97 97 97 98 97 96 97 96 95 96 96 94 96 96 97 97 98 97 94 93 93 92 94 97 99 96 93 91 94 93 96 98 89 95 96 97 96 96 96 96 96 96 97
95 98 97 96 96 96 96 97 97 97 97 96 96 97 96 96 95 96 96 95 96 97 96 97 97 98 95 95 94 94 97 97 91 81 92 93 93 95 95 96 95 94 94
89 90 95 97 96 98 98 98 96 97 97 98 98 98 97 96 97 94 94 95 95 95 96 97 96 96 98 99 97 92 91 98 97 95 96 96 95 94 93 92 92 92 92
90 91 93 93 94 92 98 99 100 97 98 99 99 99 99 100 100 100 100 100 98 96 96 96 95 96 93 92 96 95 93 99 99 96 97 98 94 98 96 95 91 90 89
93 95 94 94 95 96 97 98 100 99 99 99 100 99 99 99 100 98 99 99 99 98 100 93 94 94 93 94 96 99 96 96 99 99 95 98 98 98 98 93 88 86 85
98 98 98 96 95 96 97 97 97 95 97 97 98 97 99 99 99 99 98 98 98 98 98 98 100 100 100 99 98 98 98 98 98 99 96 99 99 99 99 98 88 85 84
95 96 96 96 98 98 98 97 93 94 97 97 97 98 98 99 99 96 96 98 98 98 99 100 99 99 98 97 98 98 100 99 100 99 99 96 99 99 99 99 99 89 80
96 93 94 96 95 97 100 99 95 97 96 96 96 98 98 99 97 94 95 96 98 99 97 96 96 96 95 96 95 98 100 100 97 99 99 97 97 98 99 99 98 95 92

GFSMA_sfc_rhum_117.txt.gz
RH
89 83 77 72 72 79 78 76 67 69 74 77 76 74 69 74 75 77 77 96 96 91 85 76 74 72 71 72 77 74 72 73 68 70 72 75 76 74 71 74 76 74 74
88 86 85 82 77 79 88 74 67 73 74 74 76 73 69 71 72 75 81 90 99 99 94 83 74 73 71 69 76 75 74 73 69 70 71 76 78 78 76 77 66 71 70
86 87 90 88 83 86 92 77 79 77 76 76 72 72 69 71 72 81 79 79 92 96 99 95 88 78 72 70 73 76 74 77 74 72 71 74 77 76 74 78 77 72 68
87 87 88 89 88 93 92 85 88 84 76 76 75 72 70 70 70 72 80 83 86 89 99 98 94 86 79 74 71 67 70 72 75 74 73 74 74 73 75 77 79 72 74
89 88 89 92 94 94 95 89 91 82 87 76 76 78 77 73 73 70 81 85 84 84 94 98 97 89 84 78 74 67 65 70 74 72 74 71 71 73 76 77 77 78 78
91 88 91 92 93 94 96 93 88 84 80 73 77 82 85 85 80 85 83 83 82 84 88 97 96 86 86 82 79 71 65 67 69 72 72 70 73 75 77 79 78 77 77
89 90 92 92 94 94 93 92 91 92 90 81 88 94 92 92 91 91 91 91 85 84 89 96 95 76 66 84 82 76 69 68 70 71 72 74 76 77 79 79 80 79 78
88 88 93 92 93 94 94 94 92 94 92 92 95 94 98 95 98 92 91 95 91 91 94 95 93 77 69 61 67 80 74 70 71 68 73 78 78 74 79 80 81 80 79
87 87 89 91 92 92 92 94 92 93 97 97 91 88 97 94 91 91 97 95 95 97 94 90 95 87 69 62 72 78 84 84 78 75 75 80 81 79 79 80 79 81 80
85 84 86 88 91 92 92 92 91 93 90 95 96 89 84 85 88 98 98 97 95 96 95 92 95 88 72 66 76 78 87 86 86 80 79 77 80 79 76 80 80 78 80
90 86 87 88 93 90 89 92 94 94 92 85 91 94 86 85 82 93 99 99 98 94 92 94 93 92 82 71 67 71 85 86 86 86 82 80 80 80 77 76 78 75 77
91 91 89 91 91 90 88 89 91 93 92 92 90 91 88 91 94 93 93 97 95 97 94 95 96 91 86 77 72 82 92 91 89 86 87 84 81 80 77 78 78 77 80
94 92 95 96 94 91 90 87 90 92 93 95 93 92 88 86 75 76 86 90 98 97 98 96 94 88 84 73 64 86 94 93 91 88 88 88 87 85 84 82 79 78 80
89 89 94 94 93 91 90 91 93 93 93 95 94 94 91 82 86 87 88 90 98 98 98 87 92 88 89 78 70 93 67 96 94 92 90 89 88 88 88 88 89 88 87
88 91 92 93 92 91 92 93 93 95 96 96 96 95 94 90 91 91 89 90 93 98 97 89 96 90 88 86 77 72 72 88 96 94 93 92 90 90 90 89 90 92 92
90 92 93 93 93 94 93 93 92 93 96 96 96 95 94 90 90 93 94 94 94 93 94 81 90 93 88 84 79 73 70 86 96 96 95 94 93 92 92 92 92 91 91
94 94 94 95 95 94 93 94 93 94 95 95 96 95 93 88 92 93 95 92 94 94 97 95 89 94 94 91 87 79 72 74 69 97 96 96 96 96 95 95 95 95 94
94 92 93 95 94 93 91 94 94 94 95 97 96 96 94 91 90 89 94 96 96 94 93 96 96 98 96 92 89 90 77 70 72 95 96 96 96 96 96 97 97 97 97
91 94 95 96 95 96 95 95 94 95 95 93 92 91 87 82 93 94 96 96 95 93 92 93 96 95 96 96 93 85 73 75 78 97 98 99 98 98 97 97 96 97 97
89 89 92 95 96 97 96 96 96 94 93 90 86 87 78 90 93 96 96 92 94 94 92 93 95 95 92 96 90 90 96 91 86 75 91 92 93 97 97 97 97 96 95
88 88 89 89 90 87 87 95 96 96 95 92 90 89 92 93 100 97 95 94 94 95 96 96 96 98 96 99 96 89 93 96 95 92 96 96 95 94 95 94 93 94 94
88 90 90 89 92 86 96 96 97 97 95 95 96 92 91 99 99 100 100 99 94 94 93 93 92 94 94 93 95 96 96 99 99 96 96 98 94 97 95 93 93 93 92
91 91 91 91 93 94 96 96 97 94 96 96 99 99 99 99 100 97 99 99 99 99 100 90 91 91 91 92 94 98 96 94 95 98 94 99 98 99 97 94 91 89 89
95 94 94 92 92 94 98 96 94 94 96 97 97 97 98 98 99 99 99 98 98 98 98 98 100 100 100 100 97 92 91 97 98 99 95 98 100 99 99 97 90 88 86
95 95 94 94 94 96 94 97 93 94 95 99 98 97 97 97 99 97 97 98 98 99 98 98 97 96 97 97 98 99 100 98 100 100 100 97 98 98 99 99 99 87 83
100 95 97 94 92 95 96 94 92 96 98 97 98 97 96 98 97 96 95 96 98 99 98 96 96 95 95 96 95 99 100 99 100 100 100 98 97 97 98 98 98 97 95

GFSMA_sfc_rhum_120.txt.gz
RH
72 59 56 58 63 55 53 54 51 52 55 55 54 54 53 58 56 67 60 95 92 88 85 88 77 74 71 74 79 76 76 73 72 71 72 76 79 76 75 74 77 76 75
73 58 59 56 60 55 52 55 55 50 51 50 54 54 53 54 56 59 63 77 94 94 91 86 86 74 71 70 77 76 76 76 72 70 73 77 77 76 75 75 77 73 72
78 66 68 58 59 63 66 64 59 52 51 50 52 52 50 54 54 59 63 60 80 98 96 90 90 86 75 70 73 74 77 78 76 72 74 77 78 77 75 75 72 75 74
79 80 73 76 69 79 72 63 60 57 54 52 51 48 48 47 52 55 58 65 66 57 91 95 98 93 85 75 70 68 69 76 76 75 75 78 78 77 75 77 75 76 69
85 81 77 76 84 85 82 69 68 60 58 56 50 50 49 47 50 47 55 59 64 71 66 96 97 97 95 85 76 68 69 70 72 73 73 75 75 76 75 77 77 77 74
86 84 83 85 87 85 86 89 78 62 60 59 52 54 57 56 53 58 58 57 63 67 72 76 92 95 96 90 82 73 68 66 67 70 73 73 74 77 78 78 77 75 76
86 86 85 88 88 87 86 88 85 78 72 66 77 78 79 74 78 74 69 65 66 68 78 79 85 90 93 92 86 78 68 66 67 70 73 76 76 79 78 77 78 80 77
85 81 86 86 88 88 87 88 92 87 82 79 79 78 81 77 86 76 76 74 70 66 74 74 82 88 90 80 70 82 75 71 68 71 77 78 78 80 79 76 77 80 79
81 84 84 86 88 87 88 88 89 88 87 88 78 62 77 60 50 58 68 62 69 75 72 74 81 85 88 74 65 76 86 84 77 76 78 79 81 81 79 77 78 79 82
66 79 79 85 87 87 84 87 84 88 83 92 88 67 59 52 55 67 82 73 68 75 77 84 82 85 75 80 73 71 87 88 86 80 77 78 82 81 79 76 79 80 80
72 71 74 80 83 85 83 84 90 90 90 81 78 81 71 65 61 61 72 86 85 73 67 78 84 81 78 86 77 64 87 88 88 88 81 79 80 82 80 79 78 80 81
87 84 70 79 83 81 82 85 87 87 89 86 83 75 68 73 74 71 66 62 78 88 88 81 84 88 83 88 79 78 87 89 88 87 86 83 81 80 80 79 76 76 79
92 89 80 84 84 85 80 86 88 85 84 85 80 79 69 66 70 73 75 65 74 67 86 90 86 87 85 94 83 85 90 89 89 87 86 88 86 84 82 80 78 77 77
84 84 89 87 84 85 85 82 85 82 82 85 82 86 80 79 78 76 71 73 76 93 92 77 90 92 87 83 82 90 76 92 91 90 89 87 88 88 88 87 84 82 81
84 85 93 94 93 92 88 86 84 88 87 87 85 86 87 84 85 80 72 68 85 90 95 78 87 85 83 77 84 79 78 83 94 93 91 90 88 89 89 89 89 90 90
94 91 92 95 91 93 93 93 89 91 93 92 90 90 90 90 89 88 84 84 86 92 95 82 87 89 91 85 84 84 77 79 95 95 94 92 91 90 89 89 90 90 90
95 96 93 92 92 93 97 98 97 94 94 92 91 91 90 89 92 87 88 80 90 95 98 90 86 86 96 95 92 91 82 72 60 97 96 95 94 94 93 94 93 92 92
90 95 92 91 94 93 93 97 96 94 94 94 92 94 92 90 93 87 87 88 90 89 95 97 94 96 94 94 92 94 86 66 63 86 96 97 96 96 96 96 96 96 96
84 87 90 95 93 94 95 95 95 93 94 91 91 91 88 92 95 91 88 86 76 80 91 97 96 93 94 96 96 94 95 91 86 98 99 99 98 98 98 97 98 98 98
84 85 85 86 87 86 87 90 93 95 93 93 92 90 89 91 89 83 83 77 80 94 97 97 93 95 93 96 94 96 99 96 90 75 92 91 97 98 98 98 98 98 98
82 82 83 86 87 86 86 93 90 93 97 96 95 94 92 91 94 85 79 83 89 96 98 97 96 95 98 98 97 93 92 98 95 93 96 95 94 94 95 96 96 97 97
84 84 84 88 91 87 96 96 96 93 93 98 98 97 95 100 99 100 100 100 96 96 97 97 95 95 92 92 93 93 93 98 99 96 95 96 91 96 93 90 95 96 96
87 88 88 87 90 91 94 95 95 90 93 95 96 93 95 96 99 98 100 99 99 99 100 90 93 89 90 89 92 94 94 93 90 98 94 99 97 99 98 96 95 94 94
96 95 93 88 89 88 92 92 93 89 93 94 95 95 96 96 96 98 99 98 97 97 98 98 100 100 100 99 94 88 91 96 98 99 96 99 100 100 100 99 94 94 94
99 100 100 98 97 96 92 92 88 87 92 97 96 96 95 95 98 97 96 98 99 99 96 94 95 95 95 96 98 100 100 99 100 100 100 97 99 98 99 99 100 95 96
100 95 100 100 93 99 90 88 89 88 94 93 94 95 97 100 98 97 97 96 97 99 98 96 95 94 94 95 95 98 100 98 100 100 100 98 98 97 98 98 98 97 97

GFSMA_sfc_rhum_123.txt.gz
RH
66 59 62 58 67 63 56 63 59 63 66 66 58 55 60 66 61 54 76 94 93 87 79 81 87 86 78 77 82 80 77 76 73 74 76 76 79 78 77 76 74 68 66
66 64 59 56 61 65 62 62 68 65 54 54 64 59 55 60 64 63 69 72 92 90 90 84 82 83 74 73 80 79 77 78 77 74 76 76 80 78 76 74 75 66 74
69 60 68 64 70 62 72 71 71 60 64 61 60 59 59 64 63 62 63 72 69 96 90 88 88 87 84 72 76 78 77 79 79 77 76 76 78 77 75 71 75 74 68
72 66 54 58 66 73 64 70 64 60 67 68 64 62 53 60 64 66 67 66 73 60 89 93 89 88 89 80 72 71 71 77 79 78 78 75 76 76 74 68 73 76 74
81 72 54 62 65 63 71 67 64 64 66 68 64 63 64 57 63 54 62 66 71 68 69 93 94 94 93 86 77 70 67 72 72 74 76 76 77 77 76 76 76 75 68
84 82 75 79 75 76 84 69 72 66 65 68 52 59 69 67 66 70 66 57 56 67 70 76 80 81 94 92 87 75 68 69 70 70 70 76 77 78 77 76 78 76 69
88 84 79 78 83 79 78 82 78 71 68 65 65 78 61 61 63 56 53 54 55 63 67 77 84 77 82 94 90 81 73 71 70 70 74 76 79 79 77 77 76 76 67
86 80 83 84 85 79 85 84 83 80 74 72 72 77 82 78 67 66 62 59 62 54 60 74 80 82 74 78 83 89 83 75 72 72 77 80 81 80 78 76 77 77 75
84 82 83 84 87 82 85 82 84 81 77 74 78 66 72 59 46 60 70 65 65 68 63 68 79 77 76 71 84 88 93 86 78 75 77 81 82 81 78 76 75 78 78
75 82 83 85 86 84 84 78 78 80 80 89 88 71 62 49 48 50 53 56 60 64 69 67 78 76 71 74 77 79 88 91 88 79 77 81 83 82 81 79 77 76 78
62 74 80 85 86 85 84 81 82 79 76 80 82 77 76 60 58 60 56 70 56 54 62 71 73 73 74 74 74 72 88 91 89 87 81 82 83 83 83 81 78 76 78
62 66 72 82 84 84 85 84 83 82 83 82 80 69 66 64 60 67 65 60 69 62 56 54 72 72 77 82 76 81 90 93 91 88 88 84 83 84 84 82 79 78 78
78 67 69 76 82 84 84 83 86 85 82 87 84 76 65 64 59 60 64 59 62 57 72 66 63 69 74 81 76 87 91 91 90 88 89 89 86 85 85 84 81 78 78
85 78 76 80 81 83 84 85 85 86 85 88 84 80 70 67 64 64 62 70 77 71 62 77 64 67 73 75 80 94 83 94 93 91 90 90 90 88 88 86 85 83 79
90 87 85 88 90 90 88 87 91 81 84 87 87 84 79 72 71 65 68 69 77 85 74 60 64 61 70 85 88 88 83 89 93 92 91 90 89 90 90 90 90 87 84
90 94 90 87 93 96 93 92 92 90 92 90 89 83 82 76 76 76 79 77 84 84 81 55 65 60 77 88 87 88 84 88 94 94 93 91 91 90 90 90 91 91 90
91 94 95 94 92 93 97 98 97 94 93 96 95 92 88 81 84 87 88 82 86 86 88 73 63 69 76 86 86 92 88 85 86 95 95 94 92 91 90 91 91 92 91
87 89 91 92 92 92 94 98 97 94 93 91 91 89 90 89 92 88 88 90 88 83 83 93 81 88 85 86 90 95 94 90 90 96 97 94 94 94 93 93 93 93 93
84 84 86 90 89 88 88 92 94 95 96 96 94 94 92 93 95 93 91 91 87 87 84 91 86 85 86 88 95 94 95 94 94 99 98 98 97 96 96 96 96 96 96
84 84 84 85 86 85 86 87 86 90 94 95 95 95 93 94 94 93 93 92 89 88 80 88 89 96 96 92 95 97 99 98 98 89 97 97 99 99 99 98 98 98 98
83 82 83 85 86 85 87 92 88 91 93 94 93 96 93 95 99 96 95 95 94 92 91 94 97 98 96 99 98 96 96 98 98 97 98 98 98 98 98 98 98 99 99
85 85 85 85 87 82 92 93 93 90 89 91 94 92 94 97 98 100 100 100 100 96 96 97 97 98 95 94 95 96 98 99 99 98 97 99 98 99 99 97 98 99 99
90 91 90 88 87 86 91 91 91 89 91 92 94 94 90 87 94 91 99 100 99 99 100 97 97 95 94 90 92 96 96 93 91 99 96 100 99 99 100 98 98 97 97
92 92 91 90 90 86 89 90 87 85 90 90 91 91 94 94 94 97 98 98 97 97 97 97 99 100 100 99 97 88 91 94 99 99 96 99 100 100 100 100 96 95 95
94 99 96 94 93 93 86 88 82 86 88 92 90 92 92 94 98 98 95 98 100 99 98 95 94 94 94 95 97 100 100 99 100 100 100 97 100 99 100 99 100 97 96
100 94 100 100 90 94 85 84 85 87 97 94 92 94 93 94 93 95 98 98 98 99 97 98 96 94 93 95 95 97 99 99 100 100 100 99 98 98 99 99 99 99 99

GFSMA_sfc_rhum_129.txt.gz
RH
93 93 93 94 95 97 95 97 98 93 94 90 88 79 75 82 86 96 98 95 88 83 82 84 83 87 84 84 86 85 84 82 79 76 79 79 78 79 79 78 78 76 78
96 89 91 91 92 91 92 88 90 90 92 87 83 71 71 71 81 95 97 97 96 90 86 83 82 84 81 80 85 85 83 82 81 79 76 76 76 68 73 77 78 74 68
94 91 88 93 89 87 91 88 92 90 92 83 79 76 68 71 76 88 95 98 98 96 92 88 85 85 83 80 84 85 83 83 80 78 76 74 68 75 76 77 72 66 66
91 92 87 90 87 90 87 89 94 93 87 86 86 78 72 69 72 89 92 94 98 93 95 93 90 88 86 85 82 81 80 82 81 81 77 70 72 76 76 75 64 74 68
91 84 85 90 89 89 94 87 94 91 91 85 82 87 81 78 79 75 86 90 94 95 92 95 94 94 92 88 83 77 74 76 80 80 79 74 72 74 74 64 67 76 74
91 88 94 92 90 90 90 89 90 95 94 91 74 77 86 87 85 83 78 80 87 90 93 93 96 95 96 92 88 80 73 72 73 74 77 73 72 72 74 71 71 74 74
92 88 94 93 91 90 87 86 93 92 96 94 87 88 84 80 84 84 78 91 89 89 94 94 92 95 96 95 92 85 75 70 72 73 78 78 74 73 75 73 72 73 70
91 87 85 90 89 88 90 91 89 97 95 96 93 96 96 92 90 86 94 87 94 93 92 94 95 95 93 95 95 91 84 78 76 77 78 81 79 78 78 77 73 72 71
83 87 82 85 94 90 91 89 92 88 94 97 92 93 98 96 97 95 94 96 92 96 93 94 96 95 95 95 95 95 94 90 83 79 80 82 83 83 81 77 77 74 72
83 84 78 79 87 88 93 91 83 91 92 96 97 88 89 89 90 98 96 96 95 91 94 96 94 96 92 91 89 93 97 96 92 87 82 85 86 82 82 80 78 76 74
82 82 79 77 74 80 83 86 82 78 87 86 90 98 96 96 94 96 96 97 96 96 92 93 96 96 95 93 91 90 95 97 95 92 89 87 84 84 82 81 80 79 76
86 84 83 79 78 82 81 81 82 83 80 85 92 96 94 86 90 97 97 95 95 96 84 87 94 95 96 95 91 92 96 97 96 94 93 91 86 86 85 83 81 80 79
80 90 86 84 84 82 84 83 84 88 86 84 88 91 94 91 91 93 95 96 94 93 94 92 89 92 93 95 92 93 95 96 96 95 93 92 90 88 88 86 83 81 80
91 90 89 88 86 86 88 89 91 90 90 92 92 94 87 82 92 89 93 95 94 95 95 90 95 90 91 92 91 95 89 96 96 95 94 93 92 92 91 90 87 84 82
91 94 91 93 91 91 92 94 94 96 95 93 94 93 92 90 96 97 96 97 96 94 95 95 96 92 91 90 92 94 93 97 95 95 95 94 92 92 93 93 92 89 87
96 97 96 97 96 95 93 95 96 96 97 96 94 95 94 94 97 96 98 99 99 98 98 94 95 96 87 91 90 93 94 96 98 96 96 95 96 95 94 95 95 92 91
96 97 96 93 94 95 96 98 98 97 96 95 94 95 94 94 95 98 99 96 94 94 95 84 95 94 95 93 95 94 96 97 95 99 97 96 96 96 96 96 96 95 93
95 96 93 93 95 95 94 95 96 96 98 97 96 98 98 98 98 97 97 96 93 88 92 85 95 97 95 95 91 94 96 96 96 98 100 99 97 97 97 98 98 97 96
91 94 92 93 94 94 94 94 93 92 92 94 95 95 96 96 97 97 97 96 96 93 97 97 92 96 93 96 98 97 96 96 96 95 100 100 100 98 98 98 99 98 97
98 96 97 96 94 90 91 91 91 92 90 89 92 92 93 94 96 96 95 97 96 97 93 96 94 92 95 96 92 95 98 97 97 97 100 100 99 99 99 99 99 99 98
99 97 93 93 93 91 91 94 90 90 89 88 89 86 90 91 92 95 95 96 96 97 98 97 97 97 98 99 98 96 96 95 99 99 99 99 99 98 98 99 98 98 98
88 88 90 89 92 88 92 88 85 87 88 89 90 88 82 87 89 92 97 97 97 96 97 98 97 96 88 97 97 97 97 99 99 99 99 99 99 99 99 99 99 100 99
88 88 89 87 88 87 88 88 89 87 89 91 91 91 86 82 89 88 92 93 95 95 99 96 98 97 97 97 97 98 96 97 97 99 98 100 99 100 99 99 99 99 100
89 89 89 87 86 83 86 87 85 85 88 89 91 88 90 90 89 89 89 92 92 95 98 95 98 99 99 98 97 94 97 98 99 100 98 100 100 100 100 100 98 98 99
90 91 88 88 89 87 83 84 84 84 84 89 84 85 86 87 86 89 89 91 92 95 90 90 93 93 93 95 94 95 99 100 100 100 100 100 100 100 100 100 100 98 98
91 88 91 88 84 89 78 76 82 89 94 90 89 91 84 82 82 85 89 93 97 98 96 94 93 92 91 92 91 97 98 99 100 100 100 100 99 98 100 99 99 100 100

GFSMA_sfc_rhum_132.txt.gz
RH
98 98 98 99 98 98 99 99 99 99 98 97 97 95 93 90 95 98 99 95 93 88 84 82 82 78 84 86 88 88 87 82 79 78 81 81 81 82 81 79 81 82 82
96 98 98 98 98 98 98 98 98 98 98 97 96 94 87 80 90 94 99 98 93 90 87 85 81 82 82 82 88 87 86 85 82 80 80 79 78 79 80 79 79 78 73
94 94 96 97 96 95 97 97 98 98 98 94 91 96 80 78 85 94 95 98 94 93 94 92 86 85 84 80 86 88 86 86 84 82 78 77 76 75 77 79 78 77 74
89 92 92 93 92 94 94 95 95 96 94 94 94 90 82 75 81 88 94 96 98 96 94 93 94 90 86 84 81 82 82 85 84 82 78 75 73 75 75 77 75 77 76
89 88 89 90 93 93 93 92 94 92 95 95 91 94 90 79 80 84 93 94 97 97 98 96 94 94 93 90 86 80 78 79 82 81 79 76 73 73 76 77 74 76 78
88 92 88 90 93 94 95 92 92 93 92 88 78 86 97 91 91 90 92 87 91 97 96 96 96 95 95 92 90 85 81 80 76 77 79 77 75 74 77 76 74 77 77
77 89 91 93 90 92 90 90 93 93 95 96 90 91 88 89 93 92 92 90 92 96 97 96 96 97 98 95 93 87 79 74 74 76 80 79 76 76 78 74 76 78 77
82 81 87 92 90 89 91 91 90 96 93 94 93 91 96 91 91 93 91 95 97 96 97 95 96 96 97 97 96 92 86 81 77 79 81 82 79 77 77 77 76 76 77
92 82 89 92 92 90 92 90 85 85 91 98 90 93 98 97 97 95 96 97 95 98 97 96 97 96 96 97 96 96 96 91 85 81 81 83 82 79 76 77 77 78 77
84 87 84 88 93 91 91 89 83 84 82 89 98 92 89 90 96 98 97 97 97 93 96 98 97 97 97 97 96 97 98 97 93 88 84 84 85 81 79 80 78 77 77
80 81 88 93 88 92 90 88 88 84 84 83 88 94 92 97 95 96 99 99 99 97 94 94 96 97 97 96 97 95 98 98 96 91 90 86 86 84 82 82 80 78 77
87 87 80 90 91 90 92 90 88 86 87 85 89 91 82 86 98 98 97 97 97 97 91 94 97 97 97 97 94 96 98 99 98 94 91 90 87 87 85 83 82 81 79
89 91 92 95 95 90 90 89 86 82 84 86 92 91 86 83 94 95 95 96 96 96 96 96 95 93 95 97 96 98 97 99 98 96 94 92 92 89 88 86 84 82 81
95 95 91 91 94 90 84 88 89 85 83 84 84 91 89 84 88 92 95 96 98 97 97 91 97 96 93 96 95 99 93 99 99 98 97 95 94 95 92 90 87 84 82
93 94 90 92 94 88 86 83 89 92 90 87 88 89 88 92 94 92 94 96 94 97 97 96 96 96 94 95 94 95 96 96 99 98 98 97 95 94 93 93 92 89 86
95 93 93 91 91 97 92 92 92 93 93 95 94 94 94 95 96 95 94 95 95 96 97 96 96 96 97 96 95 96 94 97 100 99 98 98 97 95 94 94 95 94 92
93 91 89 94 94 96 98 97 97 98 96 95 96 96 93 95 97 97 99 98 99 95 94 92 95 95 98 97 94 98 96 97 93 100 99 98 98 97 96 96 96 97 95
92 92 91 92 92 95 96 96 97 96 96 96 96 97 96 94 97 98 99 97 98 98 95 89 90 95 98 94 90 95 96 94 95 99 100 99 98 98 98 98 98 98 99
89 90 91 94 95 96 95 93 94 95 95 94 95 95 95 94 97 97 96 98 98 97 95 95 92 95 96 98 97 95 95 95 96 99 100 100 100 98 98 98 98 99 99
92 92 92 96 97 96 94 94 94 97 93 93 94 96 95 94 96 97 96 95 92 96 97 99 96 95 96 96 93 92 98 96 96 95 100 100 100 100 99 99 99 98 99
89 90 91 93 98 100 100 97 98 100 98 96 95 87 94 91 93 98 93 96 94 94 95 98 97 98 97 98 97 92 95 92 97 95 98 98 99 99 98 100 98 99 99
87 88 92 93 96 97 100 100 100 100 100 98 98 92 90 92 93 97 95 96 97 96 96 97 97 98 95 98 95 97 98 97 99 99 100 98 99 98 98 99 100 100 100
89 91 92 92 93 95 92 90 97 96 95 96 94 94 89 87 90 88 90 90 92 97 99 96 96 97 97 97 97 95 95 99 99 99 100 99 100 99 100 99 97 98 100
87 90 90 88 87 80 84 86 85 83 87 88 88 87 88 89 90 92 89 90 92 94 94 94 98 98 98 97 96 94 96 97 97 98 100 100 100 100 100 100 97 96 97
87 89 88 90 90 89 80 80 84 86 89 91 88 87 84 86 85 87 88 91 94 95 90 84 84 85 87 87 90 93 97 99 100 100 100 100 100 100 100 100 100 97 97
90 87 89 89 86 88 77 78 82 88 92 92 90 93 89 85 84 83 90 93 96 98 98 95 94 92 92 93 92 97 98 99 99 100 100 100 100 99 100 99 99 100 100

GFSMA_sfc_rhum_138.txt.gz
RH
97 95 95 96 94 92 94 95 94 88 92 98 98 97 97 97 96 97 98 97 96 89 84 78 80 81 84 86 86 88 89 88 87 87 90 91 90 90 89 87 85 84 86
96 95 95 95 95 92 92 91 89 88 91 98 99 98 95 96 95 96 96 95 95 92 89 85 82 79 77 80 84 87 87 88 87 87 89 90 89 87 82 78 80 82 83
85 94 94 96 94 91 91 94 94 93 93 97 98 98 97 95 94 96 96 96 95 96 94 90 87 86 82 81 83 84 86 88 88 88 88 88 87 83 80 80 77 80 81
82 83 94 93 95 94 94 94 95 96 94 96 98 98 98 97 93 96 95 95 96 94 94 93 93 90 88 86 81 80 82 88 88 87 87 87 85 84 82 79 78 76 79
81 88 89 92 92 96 95 92 94 94 93 94 97 98 98 98 95 90 94 96 96 97 94 95 94 93 92 90 86 79 78 82 85 85 87 85 85 82 82 80 80 77 78
80 87 85 87 93 92 95 95 93 95 92 91 94 96 98 98 97 95 91 89 92 95 96 94 95 94 95 94 88 84 77 78 80 79 84 84 82 80 80 78 80 79 78
83 84 84 88 92 86 92 92 94 93 96 96 98 99 99 99 98 97 95 93 94 94 97 96 93 95 95 96 93 88 79 79 77 79 83 84 82 80 79 79 79 81 79
84 88 91 90 89 91 90 96 94 94 94 96 94 94 99 99 98 98 99 97 95 95 96 93 97 96 94 92 93 93 87 82 82 83 84 86 84 82 79 80 80 82 80
80 86 88 90 87 90 88 93 95 91 92 96 93 94 99 91 99 98 97 97 97 98 97 96 97 96 95 94 94 95 97 94 90 85 86 87 86 84 80 80 81 82 80
71 73 81 88 88 90 96 90 93 94 91 93 96 93 87 90 95 100 98 98 97 96 96 97 96 96 95 94 96 97 100 99 96 92 88 88 88 86 82 80 81 82 82
69 74 83 86 90 93 93 94 96 98 95 89 95 93 94 94 92 93 98 99 98 97 95 94 95 95 95 94 95 96 100 100 99 96 92 89 88 88 86 82 81 82 82
80 74 80 87 92 94 94 94 94 89 94 92 91 90 83 82 95 94 96 98 92 98 94 96 98 96 95 94 93 97 100 100 100 98 95 93 91 88 88 85 83 82 82
86 81 77 91 92 93 92 91 94 91 95 95 93 91 83 71 90 90 88 95 97 97 99 97 94 93 94 96 94 98 100 100 100 100 98 96 94 93 90 88 85 82 82
90 87 84 91 88 94 93 95 95 92 89 95 97 93 90 83 86 90 86 94 98 98 97 93 98 94 92 94 94 100 95 100 100 100 100 98 97 95 96 93 90 87 84
89 89 89 89 93 96 96 97 94 94 90 92 96 96 94 91 92 88 86 88 83 97 97 94 94 96 95 95 95 97 97 100 100 100 100 100 99 98 96 96 94 92 90
91 93 94 94 94 92 96 93 93 90 89 92 93 94 95 95 94 93 91 90 89 81 89 91 94 94 96 97 97 97 96 100 100 100 100 100 100 99 98 97 96 96 94
93 93 93 92 92 92 92 98 94 94 90 94 97 95 95 93 96 95 94 96 96 96 88 90 93 95 96 96 98 98 97 97 97 100 100 100 100 100 100 99 99 97 97
90 92 91 91 90 91 91 93 95 94 94 96 95 95 97 92 98 99 97 97 95 94 92 92 95 97 96 96 94 96 98 97 96 99 100 100 100 100 100 100 100 100 100
94 92 93 95 93 92 91 90 88 89 92 93 93 94 95 94 96 97 97 98 98 97 98 93 92 95 93 96 96 96 96 96 96 99 100 100 100 100 100 100 100 99 100
94 95 94 94 94 94 92 92 91 93 91 91 93 94 94 96 97 96 95 97 95 96 96 98 95 97 98 98 97 98 99 98 97 98 100 100 100 100 100 100 100 99 99
96 96 94 94 95 93 99 98 99 99 96 96 97 97 99 96 98 98 96 97 96 95 96 97 96 96 97 96 97 95 96 93 94 97 97 96 99 99 98 99 99 99 99
95 95 96 95 96 97 98 97 95 96 96 95 96 95 95 95 99 100 100 97 98 98 96 93 93 97 99 100 98 98 96 97 99 94 91 92 98 98 99 99 100 100 100
88 92 91 90 87 89 89 87 87 93 94 93 94 93 94 96 96 98 98 96 96 96 98 99 97 99 99 99 98 94 94 98 96 92 95 97 99 100 100 99 98 98 98
88 87 88 86 87 83 85 82 82 83 87 91 90 91 92 94 94 95 94 94 95 96 97 97 97 98 98 98 97 96 96 95 94 96 94 100 100 100 100 100 97 96 96
86 88 87 87 89 90 82 80 81 85 85 91 89 88 88 88 86 87 87 89 93 95 90 87 85 86 87 85 90 91 96 96 98 100 96 98 100 100 100 100 99 94 96
86 86 87 85 83 88 74 76 81 85 90 90 89 88 78 84 82 85 88 90 95 97 95 93 91 89 89 90 89 97 97 97 97 98 99 98 99 100 100 100 98 98 100

GFSMA_sfc_rhum_141.txt.gz
RH
73 88 94 84 91 91 84 84 83 78 74 83 77 73 69 70 65 62 66 94 95 92 87 81 81 81 84 86 86 86 86 90 89 88 91 91 90 90 90 90 90 89 88
70 73 87 93 93 91 91 87 81 85 78 83 86 76 68 66 66 70 65 65 97 94 89 85 83 82 82 85 86 85 88 91 91 90 90 91 91 91 89 89 89 88 86
71 71 69 80 92 94 91 93 89 88 85 88 85 80 71 68 63 67 65 64 66 96 91 90 88 86 84 82 83 85 87 89 90 90 90 90 89 90 89 85 82 82 85
69 68 63 68 84 91 91 94 94 92 92 91 91 80 71 70 65 65 64 64 60 57 86 92 91 89 86 84 83 82 84 85 86 86 87 89 88 87 84 80 79 81 80
71 68 64 66 78 87 89 91 95 94 92 93 91 84 79 66 66 57 64 70 69 65 56 90 94 93 90 86 84 80 78 82 84 85 86 89 88 86 84 82 79 78 80
70 70 68 71 70 80 86 92 91 95 90 87 90 84 81 74 67 63 62 63 64 70 69 66 69 71 94 90 87 84 78 78 79 83 86 88 88 86 85 83 80 78 79
71 74 75 76 73 70 80 85 89 93 97 94 95 94 92 81 81 74 69 66 64 69 74 70 61 56 67 94 92 86 80 78 80 82 85 86 86 86 85 82 81 80 81
70 71 74 80 80 77 85 88 90 92 91 95 94 82 93 94 85 86 79 71 72 68 78 70 68 64 59 60 72 91 85 82 82 83 84 87 86 86 84 81 80 82 81
76 71 72 78 80 78 84 85 87 87 90 96 91 76 84 81 72 73 87 81 73 71 70 69 69 66 65 60 70 82 95 92 86 83 85 87 87 85 83 80 80 82 82
77 76 70 74 83 82 81 83 91 86 86 86 94 88 69 54 69 81 81 80 73 72 73 71 70 70 66 63 74 78 96 97 94 89 86 87 89 87 84 80 80 81 82
77 75 78 74 80 78 78 80 85 93 84 87 92 96 86 78 69 62 78 87 84 70 63 69 66 67 68 64 63 74 99 100 98 94 92 89 88 89 87 83 81 81 82
80 79 77 82 80 78 78 80 81 87 90 84 89 92 88 83 72 73 74 72 74 74 67 66 71 68 67 64 69 84 100 100 100 98 95 93 91 90 89 87 84 82 82
85 84 84 88 86 77 76 79 80 86 92 90 86 87 88 80 67 64 62 69 70 67 82 72 70 66 63 68 64 89 99 100 100 99 99 96 94 93 90 89 87 85 83
90 87 88 89 87 77 74 77 83 87 88 94 90 88 94 89 76 73 64 71 80 76 72 72 74 70 66 65 69 99 71 100 100 100 99 99 97 96 96 93 90 88 87
89 88 89 91 91 79 79 83 87 82 88 89 88 88 92 96 91 84 75 66 62 78 80 81 82 80 76 73 75 78 80 98 100 100 100 100 99 98 97 96 95 93 91
95 90 91 90 91 89 88 90 90 83 84 88 87 83 85 95 96 93 92 78 70 66 75 72 83 80 82 77 78 78 75 96 100 100 100 100 100 99 98 98 97 96 95
96 88 88 91 91 90 90 92 91 83 80 84 89 86 86 90 96 98 96 86 77 73 73 78 71 78 82 81 80 85 78 84 86 100 100 100 100 100 100 100 100 98 98
87 93 87 88 89 90 90 91 92 92 91 93 91 92 95 88 94 96 98 94 86 80 75 78 85 83 79 76 76 85 80 77 77 94 100 100 100 100 100 100 100 100 100
94 92 94 93 89 90 89 90 91 92 92 90 89 90 91 91 96 95 97 97 97 96 91 77 87 87 88 84 78 79 76 75 71 93 100 100 100 100 100 100 100 100 100
95 96 96 96 96 92 89 88 88 91 92 94 95 94 93 92 95 94 95 97 97 97 96 98 93 95 92 94 90 93 90 89 88 90 92 94 99 100 100 100 100 100 100
94 96 96 96 94 96 98 96 94 93 93 95 96 96 97 93 93 94 93 97 96 96 97 96 97 95 94 94 95 94 94 93 96 90 88 95 94 98 98 99 99 99 100
91 91 92 93 94 96 96 95 94 96 96 95 96 95 96 95 95 93 92 94 96 98 96 96 97 97 98 98 95 94 95 95 98 95 91 90 89 88 97 97 98 99 100
88 90 91 88 87 87 83 86 87 94 95 96 96 96 96 96 94 94 92 90 92 92 96 97 98 98 97 98 99 98 96 94 96 97 95 98 98 99 96 92 96 96 96
78 84 87 84 79 68 75 75 79 80 83 86 88 85 88 90 90 89 88 92 94 95 97 97 97 98 98 98 98 99 99 98 97 98 96 100 100 100 100 94 92 93 94
75 82 81 82 83 76 70 75 62 68 76 86 82 80 80 82 83 84 78 82 89 95 90 88 87 88 89 89 90 86 95 96 99 99 96 97 100 100 100 100 97 89 92
80 78 83 84 76 81 67 69 68 67 87 83 85 85 76 79 78 81 80 84 93 96 94 92 88 84 84 87 88 93 91 90 92 97 96 98 100 100 100 100 100 100 98

GFSMA_sfc_rhum_144.txt.gz
RH
48 44 42 46 72 81 81 72 62 67 69 61 58 54 51 53 50 41 41 91 93 90 81 78 79 80 84 87 87 88 90 88 88 91 92 91 90 88 89 91 90 90 89
53 48 45 40 44 63 74 74 82 68 73 67 63 58 52 48 51 51 42 55 95 94 92 89 83 82 83 84 86 88 86 90 91 92 92 90 90 90 90 90 90 90 89
57 57 49 44 39 44 62 84 81 88 84 76 70 62 58 51 48 54 48 43 59 96 94 92 88 85 84 83 84 86 85 88 89 92 91 90 90 90 90 91 91 90 88
60 59 50 47 43 44 63 72 79 89 93 86 82 66 64 49 51 53 48 45 42 41 84 92 92 90 88 84 83 83 84 86 87 91 91 90 90 90 89 88 89 88 86
58 57 53 50 54 48 46 66 80 86 92 92 83 80 74 54 47 45 48 49 49 45 43 86 93 93 91 88 84 83 81 83 86 90 88 89 89 89 88 87 85 83 82
58 57 54 58 57 52 49 51 73 75 86 90 84 86 79 66 47 55 48 45 47 52 48 48 62 66 92 90 87 84 81 79 81 85 86 88 88 88 87 86 82 81 80
60 62 62 65 64 59 56 53 54 79 85 81 95 96 94 83 69 59 50 49 48 51 58 48 48 47 62 92 90 86 83 80 82 84 85 86 88 88 88 86 83 82 80
73 71 70 64 66 66 66 67 63 68 74 78 88 92 98 99 87 72 56 58 56 57 55 56 52 47 44 55 66 89 85 82 83 84 86 86 88 89 89 87 84 82 81
67 74 75 77 72 69 76 71 70 81 81 78 82 89 96 91 82 77 78 62 64 62 59 53 54 49 48 44 61 78 94 90 85 85 86 88 88 88 88 87 84 82 81
69 73 77 78 77 74 72 76 72 66 79 88 80 88 95 98 70 74 71 74 69 68 66 57 54 55 48 44 57 67 94 96 93 88 86 88 90 88 88 86 84 82 82
68 71 77 79 81 79 75 74 74 78 70 80 77 68 89 92 95 90 64 71 78 64 62 65 59 51 50 46 45 62 92 97 96 93 89 87 89 90 88 86 84 82 81
68 76 78 82 83 84 81 76 72 67 76 76 78 73 70 70 79 91 79 65 76 62 60 63 68 59 50 49 50 70 90 98 97 94 93 91 90 90 90 88 85 82 81
74 81 84 87 87 84 84 78 73 69 80 89 86 80 82 76 71 78 77 71 77 55 67 63 65 65 48 51 49 74 94 100 100 97 95 94 93 93 92 91 88 85 83
84 85 86 86 87 88 86 79 79 77 79 86 90 83 82 78 73 76 83 80 80 75 67 65 59 65 58 50 52 85 61 100 100 100 99 96 96 96 95 94 92 90 86
88 89 91 89 88 89 90 85 82 81 80 72 79 86 84 78 83 83 86 83 77 82 82 64 64 67 60 53 56 61 62 97 100 100 100 100 98 96 96 96 95 94 91
94 92 96 90 89 88 88 89 89 82 88 83 78 79 84 79 80 87 90 89 86 84 75 60 60 64 67 52 63 62 61 87 100 100 100 100 100 99 98 98 97 96 95
97 95 93 89 92 89 88 88 88 88 91 90 90 93 87 76 77 83 90 94 93 86 90 70 66 64 76 75 64 68 65 66 71 100 100 100 100 100 100 100 99 98 97
96 96 87 89 97 93 87 88 89 89 92 93 91 91 93 90 91 86 84 86 92 92 96 93 78 75 72 75 76 77 65 60 63 94 100 100 100 100 100 100 100 100 100
96 96 90 94 94 96 85 86 85 85 87 89 92 92 93 93 95 93 91 96 95 87 96 96 91 82 82 81 77 73 75 70 61 96 100 100 100 100 100 100 100 100 100
96 98 96 97 96 95 91 89 83 85 84 86 90 91 91 93 95 94 96 96 94 97 92 98 98 98 97 94 91 95 92 94 91 78 88 94 99 100 100 100 100 100 100
94 89 90 92 95 96 98 96 95 92 91 90 90 90 93 89 92 95 94 97 94 95 97 96 98 96 97 96 96 96 95 94 96 87 85 88 92 98 97 99 98 100 100
88 88 90 88 91 91 83 90 95 98 96 95 96 94 92 92 93 95 93 93 95 96 95 95 96 99 99 100 97 96 97 95 99 93 91 90 91 97 96 95 97 97 97
78 82 85 82 83 84 70 79 82 94 93 94 95 95 95 95 95 98 94 90 92 91 95 95 96 98 97 99 100 99 97 95 97 92 89 99 95 99 97 94 96 95 96
58 64 72 67 64 56 69 60 69 71 80 86 89 89 89 87 90 89 87 92 96 96 97 97 97 98 98 97 98 100 100 100 97 93 93 99 97 100 100 100 94 95 94
62 72 67 70 71 70 64 63 48 53 74 82 79 83 77 80 82 72 69 72 87 92 85 81 80 81 84 87 90 91 98 100 100 97 96 98 100 100 100 100 100 96 94
75 69 76 76 74 71 64 64 54 51 74 73 77 84 77 81 80 80 72 73 88 89 87 87 89 92 88 89 84 98 92 91 93 97 100 97 98 100 100 100 100 100 100

GFSMA_sfc_rhum_147.txt.gz
RH
51 45 44 40 40 37 44 67 85 78 71 62 66 60 50 46 54 54 84 90 88 85 83 80 80 82 83 86 88 90 90 88 86 85 86 90 90 89 87 88 89 90 88
53 50 47 43 40 36 34 41 46 75 83 77 68 64 62 54 47 58 47 92 89 88 85 82 81 83 82 85 85 86 88 89 88 88 88 91 91 90 90 90 90 89 89
54 57 52 48 43 41 47 42 52 54 76 79 76 72 70 64 50 55 60 65 78 94 91 89 89 86 83 84 86 85 87 90 88 91 92 91 91 91 91 90 90 90 90
53 56 51 50 47 48 43 42 40 49 53 63 82 80 69 63 59 53 61 58 60 53 87 92 91 91 86 85 85 86 86 89 87 89 91 92 91 90 90 91 91 92 91
53 54 52 51 55 51 49 46 44 50 63 58 64 79 82 66 62 48 58 62 59 57 58 86 93 94 92 88 85 84 84 86 86 87 88 90 90 90 90 90 91 91 90
56 61 60 61 57 54 53 51 54 48 54 66 53 56 72 81 68 60 56 53 58 57 56 58 70 76 95 92 88 84 83 83 84 86 86 86 88 90 90 89 88 89 88
58 64 66 71 69 64 58 58 56 59 53 56 81 85 87 89 85 71 57 61 59 56 58 65 66 55 71 94 91 86 83 82 84 84 85 86 87 90 89 89 87 86 85
65 64 71 71 71 74 70 68 72 67 58 51 70 84 90 93 94 82 78 77 70 56 60 56 65 60 52 64 76 89 85 83 83 84 86 87 88 89 89 88 87 85 84
64 65 71 75 78 78 80 74 67 76 80 65 61 78 87 79 79 91 83 80 74 74 70 63 57 56 57 59 68 83 93 89 85 85 86 87 88 89 89 88 87 86 84
61 62 69 70 78 80 82 81 69 67 71 82 65 72 79 70 72 76 94 93 86 74 69 67 60 56 50 58 67 74 95 95 92 88 87 88 88 88 88 89 88 87 84
62 62 70 76 78 79 81 82 83 76 65 73 74 67 78 86 81 87 85 90 83 80 72 72 66 59 54 54 57 70 92 96 95 92 89 89 89 88 88 89 88 87 85
64 67 72 78 81 82 83 82 82 82 75 71 70 74 78 87 89 86 88 85 88 82 77 75 74 69 60 54 54 70 90 95 96 94 93 91 91 90 89 89 88 87 86
72 77 81 84 85 84 84 84 84 83 77 74 71 70 77 70 62 73 84 80 85 86 86 79 76 73 57 63 57 70 90 96 97 96 95 94 92 92 91 90 89 87 86
81 84 86 86 85 85 85 86 87 84 80 82 78 75 76 75 70 66 64 73 86 86 88 85 69 73 67 61 58 77 70 94 97 97 96 96 96 95 95 94 92 90 87
80 89 88 88 87 88 88 90 91 85 82 81 85 85 83 79 78 71 70 72 69 74 76 68 80 70 66 61 62 62 58 91 100 100 99 97 97 97 97 97 96 94 92
80 85 91 87 89 93 88 88 91 89 92 95 93 92 86 82 84 83 85 79 83 79 76 70 76 72 66 57 65 62 60 89 100 100 100 100 98 97 97 97 98 98 97
82 78 91 87 90 96 95 89 88 87 90 91 92 93 93 89 94 88 87 84 84 84 85 83 85 81 79 76 67 70 68 69 87 100 100 100 100 100 99 99 99 99 99
88 78 80 91 94 97 97 97 88 91 90 93 91 90 92 85 92 92 91 91 92 86 87 89 96 94 96 81 76 75 67 66 72 98 100 100 100 100 100 100 100 100 100
90 91 84 95 94 96 96 97 96 90 96 91 92 90 90 90 94 92 92 94 93 87 91 88 89 96 98 97 90 78 81 78 76 99 100 100 100 100 100 100 100 100 100
92 91 90 95 95 93 94 94 94 94 87 86 89 91 88 90 92 92 91 93 92 94 94 92 95 96 95 98 96 98 98 96 94 84 95 98 100 100 100 100 100 100 100
92 86 86 88 91 88 95 95 92 94 94 91 90 89 93 90 90 89 90 94 92 93 93 94 95 94 97 96 98 97 98 99 97 94 93 94 97 96 95 94 93 96 98
82 83 81 79 88 85 70 71 82 89 90 94 96 95 93 93 94 89 87 88 93 95 94 92 94 96 98 99 98 97 98 98 99 95 96 97 94 97 94 95 96 96 96
69 75 76 73 72 79 67 68 71 85 88 90 91 91 91 94 93 97 94 90 92 92 96 96 95 97 97 99 100 99 99 98 99 96 94 98 95 98 97 93 95 94 94
54 56 63 59 61 54 68 62 59 66 72 78 86 86 86 86 89 88 87 91 96 97 97 96 96 97 97 96 98 100 100 100 99 94 95 99 99 100 100 99 94 93 92
59 70 64 67 68 68 66 67 51 52 66 79 74 78 79 82 84 84 75 77 89 93 87 87 87 85 83 81 87 87 96 98 99 98 95 99 100 100 100 100 100 95 94
67 67 72 76 72 70 64 66 60 56 77 75 82 84 74 78 75 79 82 84 92 95 92 91 90 86 86 84 82 89 91 92 94 97 97 98 98 99 99 100 100 100 100